[[{"header":{"parameterUnit":"m.s-1","parameterCategory":1,"la1":30.6,"la2":28.766,"lo1":-90.7593,"lo2":-88.6598,"dx":0.0162,"dy":0.0183,"nx":116,"ny":114,"refTime":"2022-12-26T06:00:00:Z","depth":0,"parameterNumber":2,"parameterNumberName":"U-component_of_WINDS"},"data":[0.0,0.0,0.0,0.0,0.0,0.0,0.0,0.0,0.0,0.0,0.0,0.0,0.0,0.0,0.0,0.0,0.0,0.0,0.0,0.0,0.0,0.0,0.0,0.0,0.0,0.0,0.0,0.0,0.0,0.0,0.0,0.0,0.0,0.0,0.0,0.0,0.0,0.0,0.0,0.0,0.0,0.0,0.0,0.0,0.0,0.0,0.0,0.0,0.0,0.0,0.0,0.0,0.0,0.0,0.0,0.0,0.0,0.0,0.0,0.0,0.0,0.0,0.0,0.0,0.0,0.0,0.0,0.0,0.0,0.0,0.0,0.0,0.0,0.0,0.0,0.0,0.0,0.0,0.0,0.0,0.0,0.0,0.0,0.0,0.0,0.0,0.0,0.0,0.0,0.0,0.0,0.0,0.0,0.0,0.0,0.0,0.0,0.0,0.0,0.0,0.0,0.0,0.0,0.0,0.0,0.0,0.0,0.0,0.0,0.0,0.0,0.0,0.0,0.0,0.0,0.0,0.0,0.0,0.0,0.0,0.0,0.0,0.0,0.0,0.0,0.0,0.0,0.0,0.0,0.0,0.0,0.0,0.0,0.0,0.0,0.0,0.0,0.0,0.0,0.0,0.0,0.0,0.0,0.0,0.0,0.0,0.0,0.0,0.0,0.0,0.0,0.0,0.0,0.0,0.0,0.0,0.0,0.0,0.0,0.0,0.0,0.0,0.0,0.0,0.0,0.0,0.0,0.0,0.0,0.0,0.0,0.0,0.0,0.0,0.0,0.0,0.0,0.0,0.0,0.0,0.0,0.0,0.0,0.0,0.0,0.0,0.0,0.0,0.0,0.0,0.0,0.0,0.0,0.0,0.0,0.0,0.0,0.0,0.0,0.0,0.0,0.0,0.0,0.0,0.0,0.0,0.0,0.0,0.0,0.0,0.0,0.0,0.0,0.0,0.0,0.0,0.0,0.0,0.0,0.0,0.0,0.0,0.0,0.0,0.0,0.0,0.0,0.0,0.0,0.0,0.0,0.0,0.0,0.0,0.0,0.0,0.0,0.0,0.0,0.0,0.0,0.0,0.0,0.0,0.0,0.0,0.0,0.0,0.0,0.0,0.0,0.0,0.0,0.0,0.0,0.0,0.0,0.0,0.0,0.0,0.0,0.0,0.0,0.0,0.0,0.0,0.0,0.0,0.0,0.0,0.0,0.0,0.0,0.0,0.0,0.0,0.0,0.0,0.0,0.0,0.0,0.0,0.0,0.0,0.0,0.0,0.0,0.0,0.0,0.0,0.0,0.0,0.0,0.0,0.0,0.0,0.0,0.0,0.0,0.0,0.0,0.0,0.0,0.0,0.0,0.0,0.0,0.0,0.0,0.0,0.0,0.0,0.0,0.0,0.0,0.0,0.0,0.0,0.0,0.0,0.0,0.0,0.0,0.0,0.0,0.0,0.0,0.0,0.0,0.0,0.0,0.0,0.0,0.0,0.0,0.0,0.0,0.0,0.0,0.0,0.0,0.0,0.0,0.0,0.0,0.0,0.0,0.0,0.0,0.0,0.0,0.0,0.0,0.0,0.0,0.0,0.0,0.0,0.0,0.0,0.0,0.0,0.0,0.0,0.0,0.0,0.0,0.0,0.0,0.0,0.0,0.0,0.0,0.0,0.0,0.0,0.0,0.0,0.0,0.0,0.0,0.0,0.0,0.0,0.0,0.0,0.0,0.0,0.0,0.0,0.0,0.0,0.0,0.0,0.0,0.0,0.0,0.0,0.0,0.0,0.0,0.0,0.0,0.0,0.0,0.0,0.0,0.0,0.0,0.0,0.0,0.0,0.0,0.0,0.0,0.0,0.0,0.0,0.0,0.0,0.0,0.0,0.0,0.0,0.0,0.0,0.0,0.0,0.0,0.0,0.0,0.0,0.0,0.0,0.0,0.0,0.0,0.0,0.0,0.0,0.0,0.0,0.0,0.0,0.0,0.0,0.0,0.0,0.0,0.0,0.0,0.0,0.0,0.0,0.0,0.0,0.0,0.0,0.0,0.0,0.0,0.0,0.0,0.0,0.0,0.0,0.0,0.0,0.0,0.0,0.0,0.0,0.0,0.0,0.0,0.0,0.0,0.0,0.0,0.0,0.0,0.0,0.0,0.0,0.0,0.0,0.0,0.0,0.0,0.0,0.0,0.0,0.0,0.0,0.0,0.0,0.0,0.0,0.0,0.0,0.0,0.0,0.0,0.0,0.0,0.0,0.0,0.0,0.0,0.0,0.0,0.0,0.0,0.0,0.0,0.0,0.0,0.0,0.0,0.0,0.0,0.0,0.0,0.0,0.0,0.0,0.0,0.0,0.0,0.0,0.0,0.0,0.0,0.0,0.0,0.0,0.0,0.0,0.0,0.0,0.0,0.0,0.0,0.0,0.0,0.0,0.0,0.0,0.0,0.0,0.0,0.0,0.0,0.0,0.0,0.0,0.0,0.0,0.0,0.0,0.0,0.0,0.0,0.0,0.0,0.0,0.0,0.0,0.0,0.0,0.0,0.0,0.0,0.0,0.0,0.0,0.0,0.0,0.0,0.0,0.0,0.0,0.0,0.0,0.0,0.0,0.0,0.0,0.0,0.0,0.0,0.0,0.0,0.0,0.0,0.0,0.0,0.0,0.0,0.0,0.0,0.0,0.0,0.0,0.0,0.0,0.0,0.0,0.0,0.0,0.0,0.0,0.0,0.0,0.0,0.0,0.0,0.0,0.0,0.0,0.0,0.0,0.0,0.0,0.0,0.0,0.0,0.0,0.0,0.0,0.0,0.0,0.0,0.0,0.0,0.0,0.0,0.0,0.0,0.0,0.0,0.0,0.0,0.0,0.0,0.0,0.0,0.0,0.0,0.0,0.0,0.0,0.0,0.0,0.0,0.0,0.0,0.0,0.0,0.0,0.0,0.0,0.0,0.0,0.0,0.0,0.0,0.0,0.0,0.0,0.0,0.0,0.0,0.0,0.0,0.0,0.0,0.0,0.0,0.0,0.0,0.0,0.0,0.0,0.0,0.0,0.0,0.0,0.0,0.0,0.0,0.0,0.0,0.0,0.0,0.0,0.0,0.0,0.0,0.0,0.0,0.0,0.0,0.0,0.0,0.0,0.0,0.0,0.0,0.0,0.0,0.0,0.0,0.0,0.0,0.0,0.0,0.0,0.0,0.0,0.0,0.0,0.0,0.0,0.0,0.0,0.0,0.0,0.0,0.0,0.0,0.0,0.0,0.0,0.0,0.0,0.0,0.0,0.0,0.0,0.0,0.0,0.0,0.0,0.0,0.0,0.0,0.0,0.0,0.0,0.0,0.0,0.0,0.0,0.0,0.0,0.0,0.0,0.0,0.0,0.0,0.0,0.0,0.0,0.0,0.0,0.0,0.0,0.0,0.0,0.0,0.0,0.0,0.0,0.0,0.0,0.0,0.0,0.0,0.0,0.0,0.0,0.0,0.0,0.0,0.0,0.0,0.0,0.0,0.0,0.0,0.0,0.0,0.0,0.0,0.0,0.0,0.0,0.0,0.0,0.0,0.0,0.0,0.0,0.0,0.0,0.0,0.0,0.0,0.0,0.0,0.0,0.0,0.0,0.0,0.0,0.0,0.0,0.0,0.0,0.0,0.0,0.0,0.0,0.0,0.0,0.0,0.0,0.0,0.0,0.0,0.0,0.0,0.0,0.0,0.0,0.0,0.0,0.0,0.0,0.0,0.0,0.0,0.0,0.0,0.0,0.0,0.0,0.0,0.0,0.0,0.0,0.0,0.0,0.0,0.0,0.0,0.0,0.0,0.0,0.0,0.0,0.0,0.0,0.0,0.0,0.0,0.0,0.0,0.0,0.0,0.0,0.0,0.0,0.0,0.0,0.0,0.0,0.0,0.0,0.0,0.0,0.0,0.0,0.0,0.0,0.0,0.0,0.0,0.0,0.0,0.0,0.0,0.0,0.0,0.0,0.0,0.0,0.0,0.0,0.0,0.0,0.0,0.0,0.0,0.0,0.0,0.0,0.0,0.0,0.0,0.0,0.0,0.0,0.0,0.0,0.0,0.0,0.0,0.0,0.0,0.0,0.0,0.0,0.0,0.0,0.0,0.0,0.0,0.0,0.0,0.0,0.0,0.0,0.0,0.0,0.0,0.0,0.0,0.0,0.0,0.0,0.0,0.0,0.0,0.0,0.0,0.0,0.0,0.0,0.0,0.0,0.0,0.0,0.0,0.0,0.0,0.0,0.0,0.0,0.0,0.0,0.0,0.0,0.0,0.0,0.0,0.0,0.0,0.0,0.0,0.0,0.0,0.0,0.0,0.0,0.0,0.0,0.0,0.0,0.0,0.0,0.0,0.0,0.0,0.0,0.0,0.0,0.0,0.0,0.0,0.0,0.0,0.0,0.0,0.0,0.0,0.0,0.0,0.0,0.0,0.0,0.0,0.0,0.0,0.0,0.0,0.0,0.0,0.0,0.0,0.0,0.0,0.0,0.0,0.0,0.0,0.0,0.0,0.0,0.0,0.0,0.0,0.0,0.0,0.0,0.0,0.0,0.0,0.0,0.0,0.0,0.0,0.0,0.0,0.0,0.0,0.0,0.0,0.0,0.0,0.0,0.0,0.0,0.0,0.0,0.0,0.0,0.0,0.0,0.0,0.0,0.0,0.0,0.0,0.0,0.0,0.0,0.0,0.0,0.0,0.0,0.0,0.0,0.0,0.0,0.0,0.0,0.0,0.0,0.0,0.0,0.0,0.0,0.0,0.0,0.0,0.0,0.0,0.0,0.0,0.0,0.0,0.0,0.0,0.0,0.0,0.0,0.0,0.0,0.0,0.0,0.0,0.0,0.0,0.0,0.0,0.0,0.0,0.0,0.0,0.0,0.0,0.0,0.0,0.0,0.0,0.0,0.0,0.0,0.0,0.0,0.0,0.0,0.0,0.0,0.0,0.0,0.0,0.0,0.0,0.0,0.0,0.0,0.0,0.0,0.0,0.0,0.0,0.0,0.0,0.0,0.0,0.0,0.0,0.0,0.0,0.0,0.0,0.0,0.0,0.0,0.0,0.0,0.0,0.0,0.0,0.0,0.0,0.0,0.0,0.0,0.0,0.0,0.0,0.0,0.0,0.0,0.0,0.0,0.0,0.0,0.0,0.0,0.0,0.0,0.0,0.0,0.0,0.0,0.0,0.0,0.0,0.0,0.0,0.0,0.0,0.0,0.0,0.0,0.0,0.0,0.0,0.0,0.0,0.0,0.0,0.0,0.0,0.0,0.0,0.0,0.0,0.0,0.0,0.0,0.0,0.0,0.0,0.0,0.0,0.0,0.0,0.0,0.0,0.0,0.0,0.0,0.0,0.0,0.0,0.0,0.0,0.0,0.0,0.0,0.0,0.0,0.0,0.0,0.0,0.0,0.0,0.0,0.0,0.0,0.0,0.0,0.0,0.0,0.0,0.0,0.0,0.0,0.0,0.0,0.0,0.0,0.0,0.0,0.0,0.0,0.0,0.0,0.0,0.0,0.0,0.0,0.0,0.0,0.0,0.0,0.0,0.0,0.0,0.0,0.0,0.0,0.0,0.0,0.0,0.0,0.0,0.0,0.0,0.0,0.0,0.0,0.0,0.0,0.0,0.0,0.0,0.0,0.0,0.0,0.0,0.0,0.0,0.0,0.0,0.0,0.0,0.0,0.0,0.0,0.0,0.0,0.0,0.0,0.0,0.0,0.0,0.0,0.0,0.0,0.0,0.0,0.0,0.0,0.0,0.0,0.0,0.0,0.0,0.0,0.0,0.0,0.0,0.0,0.0,0.0,0.0,0.0,0.0,0.0,0.0,0.0,0.0,0.0,0.0,0.0,0.0,0.0,0.0,0.0,0.0,0.0,0.0,0.0,0.0,0.0,0.0,0.0,0.0,0.0,0.0,0.0,0.0,0.0,0.0,0.0,0.0,0.0,0.0,0.0,0.0,0.0,0.0,0.0,0.0,0.0,0.0,0.0,0.0,0.0,0.0,0.0,0.0,0.0,0.0,0.0,0.0,0.0,0.0,0.0,0.0,0.0,0.0,0.0,0.0,0.0,0.0,0.0,0.0,0.0,0.0,0.0,0.0,0.0,-6.5784,0.0,0.0,0.0,0.0,0.0,0.0,0.0,0.0,0.0,0.0,0.0,0.0,0.0,0.0,0.0,0.0,0.0,0.0,0.0,0.0,0.0,0.0,0.0,0.0,-3.8611,-3.8767,-3.9157,-3.9195,0.0,0.0,0.0,0.0,0.0,0.0,0.0,0.0,0.0,-4.5255,-4.61,-4.8293,-5.0469,-5.2465,-5.1573,-5.0513,-4.9333,0.0,0.0,0.0,0.0,0.0,0.0,0.0,0.0,0.0,0.0,0.0,0.0,0.0,0.0,0.0,0.0,0.0,0.0,0.0,0.0,0.0,0.0,0.0,0.0,0.0,0.0,0.0,0.0,0.0,0.0,0.0,0.0,0.0,0.0,0.0,0.0,0.0,0.0,0.0,0.0,0.0,0.0,0.0,0.0,0.0,0.0,0.0,0.0,0.0,0.0,0.0,0.0,0.0,0.0,0.0,0.0,0.0,0.0,0.0,0.0,0.0,0.0,0.0,0.0,0.0,0.0,0.0,0.0,0.0,0.0,0.0,-6.7993,0.0,0.0,0.0,0.0,0.0,0.0,0.0,0.0,0.0,0.0,0.0,0.0,0.0,0.0,0.0,0.0,0.0,0.0,0.0,0.0,0.0,-3.9088,-3.9238,-3.9394,-3.9744,-4.0405,-4.0483,-4.0795,-4.15,-4.1695,0.0,0.0,0.0,0.0,0.0,-4.6598,-4.8311,-4.9469,-5.1654,-5.3751,-5.5688,-5.6542,-5.4933,-5.1289,-4.9737,0.0,0.0,0.0,0.0,0.0,0.0,0.0,0.0,0.0,0.0,0.0,0.0,0.0,0.0,0.0,0.0,0.0,0.0,0.0,0.0,0.0,0.0,0.0,0.0,0.0,0.0,0.0,0.0,0.0,0.0,0.0,0.0,0.0,0.0,0.0,0.0,0.0,0.0,0.0,0.0,0.0,0.0,0.0,0.0,0.0,0.0,0.0,0.0,0.0,0.0,0.0,0.0,0.0,0.0,0.0,0.0,0.0,0.0,0.0,0.0,0.0,0.0,0.0,-7.5113,-7.5228,-7.4861,-7.5229,-7.5344,-7.5167,-7.3825,-7.3197,-7.2968,-7.0993,0.0,0.0,0.0,0.0,0.0,0.0,0.0,0.0,0.0,0.0,0.0,0.0,0.0,0.0,0.0,0.0,0.0,0.0,0.0,-4.1046,-4.1822,-4.2563,-4.3069,-4.3178,-4.3177,-4.3216,-4.3334,-4.4075,0.0,0.0,0.0,0.0,-4.7077,-4.8094,-4.9805,-5.2174,-5.614,-5.7857,-5.7479,-5.8361,-5.8031,-5.673,-5.5753,-5.5396,-5.538,0.0,0.0,0.0,0.0,0.0,0.0,0.0,0.0,0.0,0.0,0.0,0.0,0.0,0.0,0.0,0.0,0.0,0.0,0.0,0.0,0.0,0.0,0.0,0.0,0.0,0.0,0.0,0.0,0.0,0.0,0.0,0.0,0.0,0.0,0.0,0.0,0.0,0.0,0.0,0.0,0.0,-5.8653,-5.9748,0.0,0.0,0.0,0.0,0.0,0.0,0.0,0.0,0.0,0.0,0.0,0.0,0.0,-7.259,-7.2887,-7.5213,-7.5771,-7.4522,-7.7569,-7.8225,-7.6796,-7.8301,-7.9008,-7.8984,-7.8704,0.0,-7.3193,-7.3508,0.0,0.0,0.0,0.0,0.0,0.0,0.0,0.0,0.0,0.0,0.0,0.0,0.0,0.0,0.0,0.0,0.0,0.0,0.0,0.0,0.0,-4.464,-4.5576,-4.6549,-4.7057,-4.7094,-4.6661,-4.7401,0.0,0.0,0.0,-4.8837,-4.9735,-5.1023,-5.2973,-5.5584,-5.8426,-5.9907,-6.0021,-6.0861,-6.1306,-6.1379,-6.0993,-5.9509,-5.7166,-5.6429,0.0,0.0,0.0,0.0,0.0,0.0,0.0,0.0,0.0,0.0,0.0,0.0,0.0,0.0,0.0,0.0,0.0,0.0,0.0,0.0,0.0,0.0,0.0,0.0,0.0,0.0,0.0,0.0,0.0,0.0,0.0,0.0,0.0,0.0,0.0,0.0,0.0,0.0,0.0,-5.93,-6.1408,-6.3718,-6.3245,-6.3438,0.0,0.0,0.0,0.0,0.0,0.0,0.0,0.0,0.0,-7.351,-7.429,-7.5392,-7.6853,-7.8008,-7.794,-7.6712,-7.8757,-7.9023,-7.7868,-7.914,-7.9945,-8.0389,-8.0343,-7.9251,-7.7477,-7.7299,-7.7229,-7.7268,0.0,0.0,0.0,0.0,-7.8987,-7.9142,0.0,0.0,0.0,0.0,0.0,0.0,0.0,0.0,0.0,0.0,0.0,0.0,-4.5191,-4.6324,-4.7495,-4.8782,-4.9446,-4.964,-4.9244,-4.9984,-5.0097,-4.9267,-5.0436,-5.1492,-5.239,-5.4303,-5.6333,-5.848,-6.0432,-6.1715,-6.2368,-6.2981,-6.3594,-6.4214,-6.4448,-6.2532,-5.913,-5.9139,-5.8632,-5.7733,0.0,0.0,0.0,0.0,0.0,0.0,0.0,0.0,0.0,0.0,0.0,0.0,0.0,0.0,0.0,0.0,0.0,0.0,0.0,0.0,0.0,0.0,0.0,0.0,0.0,0.0,0.0,0.0,0.0,0.0,0.0,0.0,0.0,0.0,0.0,0.0,0.0,-6.3164,-6.5038,-6.781,-6.742,-6.7576,0.0,0.0,0.0,0.0,0.0,0.0,-7.23,-7.2963,-7.4369,-7.6711,-7.6594,-7.7492,-7.9678,-7.9912,-7.9717,-7.9092,-8.0381,-8.0537,-7.9717,-8.0615,-8.131,-8.1913,-8.1906,-8.187,-8.1704,-8.0368,-7.9844,-7.9844,-7.9844,-7.9961,-8.0156,-8.0156,-8.0312,-8.074,0.0,0.0,0.0,0.0,0.0,0.0,0.0,0.0,0.0,0.0,0.0,-4.6133,-4.6248,-4.7732,-4.8786,-4.89,-4.8939,-4.9287,-4.9984,-5.0843,-5.2049,-5.36,-5.3756,-5.4225,-5.5083,-5.7543,-5.93,-6.0276,-6.2852,-6.414,-6.4179,-6.4219,-6.4226,-6.4241,-6.5115,-6.4488,-6.2744,-6.2726,-6.2223,-6.1286,-5.9606,0.0,0.0,0.0,0.0,0.0,0.0,0.0,0.0,0.0,0.0,0.0,0.0,0.0,0.0,0.0,0.0,0.0,0.0,0.0,0.0,0.0,0.0,0.0,0.0,0.0,0.0,0.0,0.0,0.0,0.0,0.0,0.0,0.0,0.0,0.0,0.0,0.0,0.0,-7.1636,-7.0972,0.0,0.0,0.0,0.0,-7.4056,-7.3588,-7.4212,-7.6633,-7.6828,-7.7648,-7.9444,-7.8702,-7.8741,-7.9678,-8.0537,-8.0927,-8.0888,-8.3386,-8.4089,-8.3269,-8.4167,-8.4558,-8.4609,-8.4609,-8.4595,-8.4392,-8.1787,-8.0734,-8.0734,-8.0734,-8.1247,-8.1948,-8.1948,-8.2494,-8.3312,0.0,0.0,0.0,-3.2488,-3.4267,-3.6079,-3.755,-3.9755,-4.1894,-4.3695,-4.5288,-4.6674,-4.7851,-4.945,-5.0894,-5.207,-5.2655,-5.285,-5.2613,-5.4484,-5.5103,-5.4039,-5.5556,-5.684,-5.7738,-5.9729,-6.1213,-6.2071,-6.414,-6.539,-6.5939,-6.6429,-6.6989,-6.7499,-6.7795,-6.73,-6.618,-6.5668,-6.4626,-6.3377,-6.3298,-6.1737,0.0,0.0,0.0,0.0,0.0,0.0,0.0,0.0,0.0,0.0,0.0,0.0,0.0,0.0,0.0,0.0,0.0,0.0,0.0,0.0,0.0,0.0,0.0,0.0,0.0,0.0,0.0,0.0,0.0,0.0,0.0,0.0,0.0,0.0,0.0,0.0,0.0,-7.2807,-7.3002,0.0,-7.4798,-7.4837,-7.5423,-7.6906,-7.7765,-7.8663,-7.9561,-8.0146,-8.0966,-8.2098,-8.1825,-8.2098,-8.2957,-8.3308,-8.3152,-8.2645,-8.4675,-8.5182,-8.4401,-8.5807,-8.6774,-8.7265,-8.7265,-8.7258,-8.7173,-8.6194,-8.4813,-8.3312,-8.3312,-8.3507,-8.3819,-8.4403,-8.4793,-8.5104,0.0,-3.303,0.0,-3.3764,-3.5588,-3.7411,-3.8926,-4.1099,-4.3229,-4.5084,-4.6389,-4.7689,-4.918,-5.0769,-5.2248,-5.3437,-5.4285,-5.4792,-5.4882,-5.6205,-5.6747,-5.6192,-5.7783,-5.9104,-5.9961,-6.1408,-6.2852,-6.4297,-6.5741,-6.6873,-6.7695,-6.8196,-6.8749,-6.9283,-6.924,-6.889,-6.8358,-6.7844,-6.6658,-6.5197,-6.578,-6.4297,-6.1681,0.0,0.0,0.0,0.0,0.0,0.0,0.0,0.0,0.0,0.0,0.0,0.0,0.0,0.0,0.0,0.0,0.0,0.0,0.0,0.0,0.0,0.0,0.0,0.0,0.0,0.0,0.0,0.0,0.0,0.0,0.0,0.0,0.0,0.0,0.0,-7.4134,-7.4134,-7.511,-7.6047,-7.6633,-7.7453,-7.835,-7.9209,-8.0615,-8.1708,-8.2254,-8.284,-8.366,-8.4792,-8.3972,-8.4206,-8.5651,-8.5377,-8.5221,-8.526,-8.6705,-8.7095,-8.6588,-8.7759,-8.8572,-8.9062,-8.906,-8.9023,-8.9032,-8.9036,-8.8014,-8.6401,-8.578,-8.5533,-8.5611,-8.6196,-8.6585,-8.6897,-3.5742,-3.4389,-3.3764,-3.5433,-3.6439,-3.792,-4.0524,-4.2439,-4.4181,-4.5989,-4.7808,-4.9219,-5.0117,-5.1626,-5.2635,-5.2734,-5.35,-5.4711,-5.6483,-5.5932,-5.7058,-6.0409,-6.0516,-6.09,-6.1757,-6.2657,-6.4297,-6.6795,-6.7693,-6.8591,-6.9452,-6.9411,-6.9411,-6.9438,-6.938,-6.9358,-6.9317,-6.9317,-6.8401,-6.691,-6.6912,-6.5897,-6.4299,0.0,0.0,0.0,0.0,0.0,0.0,0.0,0.0,0.0,0.0,0.0,0.0,0.0,0.0,0.0,0.0,0.0,0.0,0.0,0.0,0.0,0.0,0.0,0.0,0.0,0.0,0.0,0.0,0.0,0.0,0.0,0.0,0.0,-7.351,-7.4837,-7.5894,-7.5894,-7.7414,-7.8468,-7.8468,-7.9287,-8.0146,-8.1005,-8.1942,-8.3152,-8.4792,-8.4948,-8.5729,-8.7446,-8.5026,-8.4909,-8.7446,-8.6627,-8.7056,-8.8735,-8.9594,-9.0023,-9.0023,-9.0062,-9.0104,-9.0108,-9.0025,-8.9994,-9.0075,-9.0042,-9.0035,-8.9871,-8.7993,-8.7287,-8.7287,-8.7287,-8.7832,-8.8651,-3.6709,-3.6168,-3.6013,-3.6477,-3.8334,-4.0206,-4.1568,-4.3233,-4.5056,-4.6919,-4.8146,-4.9126,-4.9983,-5.1542,-5.2818,-5.3497,-5.4825,-5.5928,-5.6562,-5.9294,-6.1867,-6.4079,-6.2943,-6.2705,-6.3555,-6.4453,-6.5507,-6.6795,-6.8318,-6.9489,-7.0389,-7.1521,-7.2041,-7.2071,-7.2573,-7.2489,-7.1978,-7.1978,-7.1009,-6.9484,-6.9557,-6.818,-6.6131,0.0,0.0,0.0,0.0,0.0,0.0,0.0,0.0,0.0,0.0,0.0,0.0,0.0,0.0,0.0,0.0,0.0,0.0,0.0,0.0,0.0,0.0,0.0,0.0,0.0,0.0,0.0,0.0,0.0,0.0,0.0,0.0,-7.6086,-7.5227,-7.6594,-7.7687,-7.7687,-7.8663,-7.96,-8.0224,-8.1083,-8.1942,-8.2762,-8.4792,-8.6197,-8.6666,-8.7876,-8.8774,-8.9281,-8.8579,-8.854,-8.9281,-8.8422,-8.854,-8.9633,-8.9906,-9.0335,-9.096,-9.1546,-9.2153,-9.2722,-9.2083,-9.2519,-9.363,-9.2958,-9.3017,-9.3285,-9.0278,-8.9079,-8.9079,-8.9079,-8.9235,-8.9469,-3.8102,-3.7715,-3.756,-3.7947,-3.9586,-4.1251,-4.2481,-4.3884,-4.5582,-4.7799,-4.8545,-4.9443,-5.0965,-5.2296,-5.3457,-5.4401,-5.597,-5.7263,-5.8125,-6.156,-6.3663,-6.3964,-6.3685,-6.3952,-6.4843,-6.5663,-6.6678,-6.7888,-6.9645,-7.0933,-7.1834,-7.308,-7.3627,-7.366,-7.4035,-7.3954,-7.3496,-7.3496,-7.2956,-7.2088,-7.2128,-7.0415,-6.7844,-6.8347,-6.7169,-6.5258,-6.528,-6.419,-6.2668,-6.2323,0.0,0.0,0.0,0.0,0.0,0.0,0.0,0.0,0.0,0.0,0.0,0.0,0.0,0.0,0.0,0.0,0.0,0.0,0.0,0.0,0.0,0.0,0.0,0.0,-7.5891,-7.6516,-7.636,-7.7531,-7.8546,-7.8897,-8.0029,-8.1005,-8.1513,-8.2645,-8.3855,-8.5026,-8.69,-8.8266,-8.9008,-8.9984,-9.0531,-9.0531,-9.0179,-9.0179,-9.0531,-9.0023,-9.0218,-9.1038,-9.1038,-9.1311,-9.1819,-9.2287,-9.2772,-9.3261,-9.312,-9.3631,-9.4515,-9.3942,-9.4009,0.0,0.0,0.0,0.0,0.0,-9.0677,-9.0326,-3.9501,-3.8953,-3.8727,-3.9402,-4.0354,-4.1583,-4.3263,-4.4213,-4.5768,-4.8554,-4.8828,-4.9726,-5.2265,-5.3344,-5.4236,-5.5077,-5.6782,-5.8655,-6.0586,-6.277,-6.3465,-6.2207,-6.3605,-6.4848,-6.5702,-6.6522,-6.781,-6.9567,-7.1206,-7.2495,-7.3434,-7.4173,-7.4525,-7.4519,-7.4502,-7.4434,-7.4356,-7.4356,-7.432,-7.4272,-7.4272,-7.2374,-6.9528,-6.9562,-6.8565,-6.7134,-6.7205,-6.6202,-6.4713,-6.3904,0.0,0.0,0.0,0.0,0.0,0.0,0.0,0.0,0.0,0.0,0.0,0.0,0.0,0.0,0.0,0.0,0.0,0.0,0.0,0.0,0.0,0.0,0.0,0.0,-7.605,-7.6438,-7.7414,-7.8194,-7.9014,-7.9873,-8.1513,-8.2645,-8.2879,-8.4206,-8.5807,-8.7564,-8.8501,-8.9633,-9.1077,0.0,0.0,0.0,0.0,-9.0648,-9.1428,-9.135,-9.1702,-9.2482,-9.2404,-9.2404,-9.2482,-9.26,-9.2717,-9.2834,-9.3615,-9.4048,-9.4217,-9.4062,-9.4005,-9.3952,-9.3677,-9.356,-9.3443,-9.2703,-9.1963,-9.1378,-3.9655,-3.9926,-4.015,-3.9665,-4.0859,-4.2252,-4.3392,-4.372,-4.5063,-4.8476,-4.8281,-4.8788,-5.131,-5.2977,-5.3953,-5.4159,-5.6964,-5.9826,-6.2344,-6.2304,-6.3005,-6.4753,-6.5181,-6.5721,-6.6563,-6.742,-6.8708,-7.0465,-7.148,-7.2768,-7.4293,-7.5031,-7.5381,-7.5378,-7.5974,-7.5871,-7.5249,-7.5249,-7.4831,-7.4226,-7.4226,-7.3062,-7.136,-7.1282,-7.0648,-6.9822,-6.9796,-6.9119,-6.8227,-6.8102,-6.6642,-6.4851,-6.4491,-6.4296,0.0,0.0,0.0,0.0,0.0,0.0,0.0,0.0,0.0,0.0,0.0,0.0,0.0,0.0,0.0,0.0,0.0,0.0,0.0,-7.6828,-7.7453,-7.8468,-8.0029,-8.0381,-8.081,-8.1708,-8.3308,-8.487,-8.6275,-8.6705,-8.7603,-8.9359,-9.0296,-9.0648,-9.0257,-9.1546,-9.1975,-9.1311,-9.178,-9.2092,-9.2287,-9.1624,-9.1702,-9.2482,0.0,0.0,-9.2522,-9.3224,-9.3927,-9.4591,-9.4786,-9.5628,-9.6829,-9.609,-9.5765,-9.5531,-9.3458,-9.2664,-9.2625,-9.2469,-9.2742,-9.321,-4.0278,-4.056,-4.0731,-4.032,-4.1688,-4.3008,-4.3526,-4.4362,-4.5738,-4.7969,-4.8242,-4.9023,-5.1126,-5.253,-5.3819,-5.5149,-5.839,-6.0738,-6.164,-6.2539,-6.3591,-6.4872,-6.5375,-6.5993,-6.6798,-6.7654,-6.8747,-7.0035,-7.1363,-7.2846,-7.4528,-7.5266,-7.581,-7.6275,-7.6565,-7.6493,-7.6104,-7.6104,-7.5832,-7.5444,-7.5444,-7.4763,-7.3631,-7.2711,-7.186,-7.1151,-7.0658,-6.9946,-6.9206,-6.9245,-6.8093,-6.6735,-6.7133,-6.6672,-6.6007,0.0,0.0,0.0,0.0,0.0,0.0,0.0,0.0,0.0,0.0,0.0,0.0,0.0,0.0,-7.4954,0.0,0.0,-7.6086,-7.6945,-7.7843,-7.8702,-7.9561,-8.1161,-8.2567,-8.3465,-8.5065,-8.6431,-8.7326,-8.8188,-8.9242,-9.0531,-9.1428,-9.1702,-9.1272,-9.2443,-9.2561,-9.135,-9.2092,-9.2326,-9.1897,-9.2326,-9.2756,-9.3146,-9.3185,-9.3419,-9.381,-9.4239,-9.4708,-9.5137,-9.5567,-9.5985,-9.6325,-9.5841,-9.5602,-9.5431,-9.4145,-9.3638,-9.3638,-9.3638,-9.3911,-9.4301,-4.0893,-4.0939,-4.0925,-4.0925,-4.2156,-4.3222,-4.3579,-4.4724,-4.5976,-4.7187,-4.7969,-4.8984,-5.0508,-5.1875,-5.3828,-5.6601,-5.9687,-6.1133,-6.0469,-6.2695,-6.4137,-6.4286,-6.5139,-6.5989,-6.6798,-6.7654,-6.8513,-6.9411,-7.1167,-7.2768,-7.4293,-7.5031,-7.5813,-7.6627,-7.6526,-7.657,-7.6687,-7.6687,-7.6687,-7.6687,-7.6687,-7.6349,-7.5641,-7.3915,-7.2725,-7.1934,-7.106,-7.0158,-6.9412,-6.9442,-6.8864,-6.826,-6.8894,-6.8295,-6.758,-6.8822,-6.8795,0.0,0.0,0.0,0.0,0.0,0.0,0.0,0.0,0.0,-7.3282,-7.5576,-7.6047,-7.6281,-7.6984,-7.5969,-7.5579,-7.7335,-7.8038,-7.8624,-7.9287,-8.1747,-8.3894,-8.4948,-8.6275,-8.7368,-8.7876,-8.9164,-9.0413,-9.1467,-9.2287,-9.26,-9.2287,-9.3224,-9.3107,-9.1585,-9.2326,-9.2522,-9.2053,-9.338,-9.4044,-9.4044,-9.4747,-9.5098,-9.5098,-9.5293,-9.5332,-9.541,-9.6241,-9.6229,-9.5585,-9.5541,-9.546,-9.5427,-9.5406,-9.5392,-9.5353,-9.5002,-9.5002,-9.5158,-4.0907,-4.099,-4.1097,-4.1097,-4.1261,-4.19,-4.3436,-4.3203,-4.3711,-4.6133,-4.6523,-4.6953,-4.793,-5.082,-5.4062,-5.7461,-5.9453,-6.0508,-6.039,-6.2109,-6.3475,-6.4286,-6.5145,-6.5996,-6.6798,-6.7654,-6.8513,-6.9411,-7.1167,-7.2495,-7.3434,-7.4173,-7.4954,-7.5726,-7.567,-7.6026,-7.6687,-7.6687,-7.6687,-7.6687,-7.6687,-7.6699,-7.6497,-7.4708,-7.3611,-7.2819,-7.1907,-7.0992,-7.0253,-7.0285,-6.9692,-6.8964,-6.9072,-6.9461,-6.9803,-6.9331,-6.9623,-6.998,-6.9253,-7.0269,-7.1682,-7.2427,-7.3204,-7.4047,0.0,0.0,-7.5654,-7.6711,-7.6945,-7.6984,-7.7062,-7.6945,-7.7375,-7.9131,-7.8858,-7.9444,-8.2489,-8.3269,-8.4128,-8.5768,-8.6119,-8.7173,-8.9477,-8.9906,-9.0648,-9.2248,-9.3185,-9.299,-9.1507,-9.2951,-9.3341,-9.2404,-9.3185,-9.3966,-9.4669,-9.4864,-9.4942,-9.4942,-9.5059,-9.5098,-9.5137,-9.5918,-9.6269,-9.6312,-9.7092,-9.7421,-9.733,-9.7319,-9.7285,-9.7309,-9.7227,-9.7223,-9.7028,-9.547,-9.5392,-9.6054,-4.0937,-4.1025,-4.1115,-4.1166,-4.1558,-4.2263,-4.3515,-4.3828,-4.4492,-4.6094,-4.6758,-4.7187,-4.7578,-5.1094,-5.3633,-5.4062,-5.7539,-5.9258,-5.8242,-5.9805,-6.1406,-6.2729,-6.3624,-6.4709,-6.6063,-6.6915,-6.7771,-6.863,-6.9372,-7.0426,-7.1795,-7.2532,-7.3351,-7.4164,-7.5086,-7.5677,-7.6026,-7.6493,-7.6687,-7.6648,-7.6182,-7.6013,-7.5852,-7.4101,-7.3231,-7.2935,-7.2555,-7.187,0.0,-7.1707,-7.0961,-6.995,-7.0409,-7.0432,-7.0448,-7.1191,-7.1605,-7.2018,-7.277,-7.3503,-7.4182,-7.4613,-7.4971,-7.5439,-7.6357,-7.6542,-7.6766,-7.7684,-7.7843,-7.7687,-7.7179,-7.7921,-7.8858,0.0,-8.0654,-8.1864,-8.3308,-8.3933,-8.4714,-8.5963,-8.6549,-8.7486,-8.9086,-9.014,-9.1038,-9.1741,-9.3497,-9.4044,-9.2834,-9.4395,-9.4903,-9.4044,-9.4356,-9.4747,-9.5098,-9.5606,-9.5879,-9.5879,-9.6386,-9.6621,-9.6621,-9.6972,-9.7167,-9.7171,-9.7485,-9.7889,-9.8358,-9.831,-9.8617,-9.9041,-9.902,-9.9016,-9.8782,-9.7067,-9.6639,-9.6951,-4.0981,-4.1051,-4.1125,-4.1172,-4.168,-4.2344,-4.3203,-4.4062,-4.4883,-4.5508,-4.6562,-4.7422,-4.7891,-5.0937,-5.2617,-5.1836,-5.5664,-5.7695,-5.668,-5.8242,-5.9843,-6.1286,-6.2414,-6.3578,-6.4859,-6.5904,-6.6795,-6.742,-6.7888,-6.8747,-6.9999,-7.0735,-7.1555,-7.2447,-7.3568,-7.42,-7.4472,-7.5288,-7.5638,-7.5638,-7.5288,-7.5133,-7.4977,-7.3462,-7.2918,-7.288,-7.2647,-7.2197,-7.1782,-7.2392,-7.1605,-7.0532,-7.1077,-7.1008,-7.0938,-7.222,-7.2928,-7.3581,-7.4943,-7.5513,-7.5712,-7.5765,-7.5954,-7.6252,-7.6939,-7.7242,-7.7582,-7.8269,-7.8585,-7.8585,-7.7921,-7.9053,-8.0224,-8.0654,-8.2489,-8.4011,-8.4519,-8.5338,-8.6119,-8.6744,-8.7603,-8.8383,-8.9008,-9.0413,-9.1389,-9.1624,-9.3771,-9.4708,-9.3849,-9.5215,-9.5879,-9.5488,-9.5215,-9.5332,-9.5801,-9.6425,-9.6777,-9.6777,-9.7636,-9.8065,-9.8065,-9.8299,-9.8427,-9.8401,-9.8377,-9.8705,-9.9258,-9.9226,-9.9537,-10.0095,-9.9839,-9.9756,-9.9561,-9.8042,-9.7652,-9.7808,-4.099,-4.1111,-4.1211,-4.1211,-4.1211,-4.1523,-4.2305,-4.3164,-4.375,-4.3789,-4.5273,-4.6992,-4.8672,-4.9726,-5.0937,-5.2539,-5.4336,-5.5742,-5.6562,-5.8242,-5.957,-6.0388,-6.2063,-6.3033,-6.3062,-6.477,-6.5663,-6.5663,-6.7303,-6.8122,-6.8203,-6.8939,-6.972,-7.057,-7.0486,-7.0937,-7.1792,-7.2647,-7.3035,-7.3113,-7.3929,-7.4239,-7.4123,-7.3229,-7.2918,-7.2802,-7.1947,-7.1653,-7.1718,-7.1711,-7.1174,-7.0475,-7.0454,-7.1011,-7.1651,-7.1661,-7.2841,-7.4203,-7.4392,-7.5057,-7.5713,-7.5797,-7.6438,-7.7062,-7.7101,-7.7765,-7.835,-7.839,-7.9053,-7.9639,-7.9639,-8.0341,-8.1474,-8.3113,-8.4167,-8.5338,-8.7056,-8.8032,-8.8579,-8.8618,-8.9398,-8.9945,0.0,-9.0765,-9.1624,-9.2404,-9.4083,-9.4708,-9.3849,-9.4669,-9.5527,-9.6347,-9.5527,-9.5918,-9.7597,-9.7636,-9.7675,-9.7675,-9.8533,-9.8963,-9.9002,-9.9822,-10.02,-10.0111,-10.0197,-10.0183,-10.0182,-10.0219,-10.0116,-10.0012,-9.9176,-9.8821,-9.8743,-9.7847,-9.8042,-9.8626,-4.0984,-4.1053,-4.1166,-4.1172,-4.1211,-4.1289,-4.1562,-4.2305,-4.3047,-4.3633,-4.4726,0.0,0.0,0.0,0.0,0.0,-5.1406,-5.2851,-5.3125,-5.4258,-5.5781,-5.7773,-5.9526,-6.0966,-6.2096,-6.3839,-6.4726,-6.4726,-6.5312,-6.5858,-6.6446,-6.7181,-6.8,-6.8892,-6.9863,-7.0471,-7.0782,-7.1675,-7.2375,-7.288,-7.2608,-7.2802,-7.3307,-7.2996,-7.253,-7.2064,0.0,-7.215,-7.186,-7.2393,-7.2036,-7.1455,-7.1972,-7.2341,-7.2801,-7.3907,-7.5067,-7.5945,-7.604,-7.6326,-7.657,-7.6663,-7.6867,-7.7257,-7.7843,-7.8194,-7.8741,-7.9873,-8.081,-8.1435,-8.1435,-8.3035,-8.4362,-8.4362,-8.5104,-8.608,-8.7251,-8.7134,-8.7173,-8.7759,-8.8618,0.0,0.0,0.0,0.0,-9.2482,-9.4669,-9.584,-9.5527,-9.6347,-9.6972,-9.7245,-9.6972,-9.7128,-9.7675,-9.826,-9.8572,-9.8572,-9.9431,-9.9861,-9.9861,-10.0212,-10.0301,-10.0317,-10.0918,-10.1087,-10.1093,-10.1608,-10.1488,-10.0987,-10.1203,-10.1003,-10.0497,-10.0185,-10.0302,-10.0302,0.0,-4.1053,-4.1166,-4.1172,-4.1211,0.0,0.0,0.0,0.0,0.0,0.0,0.0,0.0,0.0,0.0,0.0,0.0,-5.0312,-5.0937,-5.207,-5.3437,-5.5117,-5.7417,-5.9052,-5.987,-6.2158,-6.336,-6.336,-6.3984,-6.457,-6.5158,-6.5579,-6.609,-6.6631,-6.7612,-6.8062,-6.8101,-6.8956,-7.0354,-7.1831,-7.0354,-7.086,-7.2297,-7.1093,-7.0277,0.0,-7.0743,-7.0983,-7.1042,-7.216,-7.2016,-7.1521,-7.229,-7.2949,-7.3791,-7.5524,-7.6388,-7.6798,-7.6894,-7.698,-7.7016,-7.7092,-7.7335,-7.7726,-7.8272,-7.8897,-7.9639,-8.0771,-8.1708,-8.2371,-8.2684,-8.4323,-8.5651,-8.5729,-8.6705,-8.7681,-8.8266,-8.811,-8.8032,-8.8305,-8.8813,-8.9516,0.0,0.0,0.0,-9.2951,-9.4825,-9.6074,-9.6386,-9.6621,-9.705,-9.7675,-9.7401,-9.7401,-9.7714,-9.826,-9.8846,-9.947,-10.0017,-10.0603,-10.1188,-10.1188,-10.1188,-10.1192,-10.1705,-10.199,-10.1991,-10.2488,-10.2387,-10.1879,-10.2085,-10.1899,-10.1393,-10.1081,-10.1081,-10.1198,0.0,0.0,-4.1172,0.0,0.0,0.0,0.0,0.0,0.0,0.0,0.0,0.0,0.0,0.0,0.0,0.0,0.0,0.0,-4.9961,-5.1562,-5.2461,-5.2576,-5.5854,-5.7333,-5.6543,-5.9851,-6.1562,-6.1562,-6.3204,-6.4065,-6.4106,-6.4019,-6.3987,-6.4021,-6.4004,-6.3991,-6.4061,-6.4799,-6.7052,-6.9849,-6.7402,-6.8412,-7.0976,-6.779,-6.6547,-6.6625,-6.748,-6.8394,-6.939,-7.1018,-7.1221,-7.0862,-7.1614,-7.2998,-7.4661,-7.6303,-7.6791,-7.6819,-7.698,-7.7008,-7.702,-7.7092,-7.7765,-7.839,-7.8468,-7.9795,-8.1005,-8.1122,-8.1825,-8.2684,0.0,0.0,-8.5456,-8.7134,-8.8774,-8.9867,-8.9828,-9.0531,-9.0804,0.0,0.0,0.0,0.0,0.0,0.0,-9.381,0.0,-9.5527,-9.6347,-9.5645,-9.5996,-9.7636,-9.6894,-9.6855,-9.7675,-9.7753,-9.8612,-10.029,-10.029,-10.1188,-10.2711,-10.2711,-10.2789,-10.2796,-10.28,-10.2812,-10.2712,-10.2698,-10.2698,-10.2484,-10.1899,-10.1588,-10.1393,-10.0613,-10.0886,-10.151,0.0,0.0,0.0,0.0,0.0,0.0,0.0,0.0,0.0,0.0,0.0,0.0,0.0,0.0,0.0,0.0,0.0,0.0,-4.8203,-4.8672,-4.9492,-5.078,-5.351,-5.5183,-5.5607,-5.8367,-5.9766,-5.9766,-6.0198,-6.0744,-6.141,-6.1953,-6.2565,-6.316,-6.3726,-6.4001,-6.4022,-6.4216,-6.5149,-6.6423,-6.5802,-6.6431,-6.779,-6.7557,-6.7052,-6.6625,-6.748,-6.804,-6.8477,-6.9481,-7.0997,-7.2623,-7.349,-7.4895,-7.63,-7.6794,-7.6965,-7.697,-7.6999,-7.7028,-7.7092,-7.7098,-7.7765,-7.8585,-7.9209,-8.0224,-8.1356,-8.2606,-8.3543,-8.4636,-8.6119,0.0,0.0,-8.7329,-8.7759,0.0,-8.7173,-8.7837,0.0,-8.811,0.0,-8.8657,-9.0179,-9.1116,0.0,0.0,-9.5567,-9.6152,-9.6386,-9.6816,-9.7245,-9.7675,-9.7479,-9.7479,-9.7714,-9.8338,-9.9236,-10.029,-10.029,-10.0798,-10.1813,-10.1813,-10.2188,-10.2802,-10.2695,-10.2712,-10.2698,-10.331,-10.3208,-10.2718,-10.3809,-10.3809,-10.3302,-10.3692,-10.4004,-10.4198,0.0,0.0,0.0,0.0,0.0,0.0,0.0,0.0,0.0,0.0,0.0,0.0,0.0,0.0,0.0,0.0,0.0,0.0,0.0,-4.7383,-4.8046,-4.902,-5.1124,-5.2524,-5.3024,-5.5905,-5.7426,-5.7426,-5.8558,-5.9339,-5.9846,-6.0271,-6.0697,-6.1169,-6.1564,-6.1735,-6.173,-6.173,-6.2857,0.0,0.0,-6.3595,-6.5304,-6.4255,-6.3789,-6.3828,-6.4683,-6.6004,-6.7576,-6.8772,-7.121,-7.3771,-7.427,-7.5585,-7.6894,-7.699,-7.7004,-7.7008,-7.7028,-7.7085,-7.7101,-7.7101,-7.8038,-7.9092,-7.96,-8.0654,-8.1942,-8.323,-8.3894,-8.4753,-8.651,-8.6822,0.0,0.0,0.0,0.0,-8.729,-8.7642,-8.7837,0.0,-8.7759,0.0,-8.9867,-9.0804,-9.2209,0.0,-9.5332,-9.6152,-9.6933,-9.7089,-9.7284,-9.7675,-9.7714,-9.7714,-9.7714,-9.8182,-9.9041,-10.029,-10.029,-10.0915,-10.2086,-10.2515,-10.2885,-10.3419,0.0,-10.3801,-10.3886,-10.4304,-10.4198,-10.3809,-10.4822,-10.49,-10.451,-10.5017,-10.5212,-10.5212,0.0,0.0,0.0,0.0,0.0,0.0,0.0,0.0,0.0,0.0,0.0,-4.5469,0.0,0.0,0.0,0.0,0.0,0.0,0.0,0.0,-4.7418,-4.7414,-4.9048,-4.9939,-4.9928,-5.3132,-5.4771,-5.4771,-5.7113,-5.8324,-5.8441,-5.8591,-5.8744,-5.8827,-5.8878,-5.8854,-5.8817,-5.8817,-6.0565,-6.3051,-6.0021,-6.0604,-6.2973,0.0,-5.9322,-6.0215,-6.1232,-6.3644,-6.6666,-6.8455,-7.1365,-7.4249,-7.4371,-7.558,-7.6955,-7.7004,-7.7012,-7.702,-7.7092,-7.7101,-7.7101,-7.7101,-7.8305,-7.947,-7.9519,-8.0761,-8.2198,-8.3149,-8.3422,-8.4047,-8.5768,-8.608,-8.6588,-8.811,0.0,-8.8344,-8.8344,-8.8461,-8.8266,-8.7486,-8.8188,-8.9047,-8.9906,-9.0804,-9.2053,-9.3849,-9.4669,-9.5801,-9.744,-9.6933,-9.6933,-9.7675,-9.7714,-9.7714,-9.7714,-9.7792,-9.8612,-10.0095,-10.0212,-10.111,-10.2711,-10.3491,-10.4003,-10.4095,-10.4999,0.0,-10.5285,-10.5416,-10.5406,-10.5406,-10.5484,-10.5484,-10.5484,-10.5484,-10.5484,-10.5484,0.0,0.0,0.0,0.0,0.0,0.0,0.0,0.0,0.0,0.0,-4.7422,-4.6133,0.0,0.0,0.0,0.0,0.0,0.0,0.0,0.0,0.0,-4.6516,-4.8112,-4.9041,-4.9032,-5.1023,-5.2078,-5.2078,-5.3249,-5.4186,-5.4927,-5.6286,-5.73,-5.7968,-5.8609,-5.8865,-5.8817,-5.8817,-5.9166,-5.9632,-5.905,-5.9166,-5.9632,-5.905,0.0,0.0,-6.1959,-6.3722,-6.5598,-6.7545,-7.052,-7.3532,-7.4265,-7.5677,-7.7085,-7.7092,-7.7092,-7.7095,-7.7098,-7.7101,-7.7101,-7.7101,-7.7758,-7.8423,-7.8572,-7.9247,-8.0318,-8.2159,-8.305,-8.4013,-8.5765,-8.608,-8.6197,-8.651,-8.6549,-8.6549,-8.6549,-8.7173,-8.7564,0.0,-8.8188,-8.9047,-8.9906,-9.0804,0.0,0.0,0.0,-9.5567,-9.6582,-9.7167,-9.7558,-9.7714,-9.7714,-9.7714,-9.7714,-9.8416,-9.8924,-9.9236,-9.9978,-10.0798,-10.1813,-10.2593,-10.3399,-10.4094,-10.4996,0.0,-10.5383,-10.6013,-10.6303,-10.6303,-10.7082,-10.7316,-10.7316,-10.7316,-10.7316,-10.7199,0.0,0.0,0.0,0.0,0.0,0.0,0.0,-4.8594,-4.9101,-5.1211,-5.0391,-4.9297,-4.8437,-4.7109,-4.6289,0.0,0.0,0.0,0.0,0.0,0.0,0.0,0.0,0.0,-4.751,-4.9189,-5.0048,-5.0048,0.0,-5.2243,-5.2647,-5.3475,-5.4249,-5.5003,-5.54,-5.5794,-5.6136,-5.6136,-5.6408,-5.6835,-5.6835,-5.7107,-5.7496,0.0,0.0,0.0,-6.0854,-6.298,-6.527,-6.6061,-6.9379,-7.3349,-7.4243,-7.5384,-7.6516,-7.6984,-7.6789,-7.6516,-7.6984,-7.6789,-7.6393,-7.6353,-7.6887,-7.7562,-7.813,-7.8798,-7.989,-8.1883,-8.2577,-8.3224,-8.4512,-8.5104,0.0,-8.6041,-8.608,-8.6275,-8.6705,-8.7134,-8.7404,-8.7404,-8.8579,-8.9555,-8.9945,-9.1155,-9.2795,-9.4942,0.0,-9.5684,-9.7011,-9.7479,-9.7714,-9.7714,-9.7714,-9.7909,-9.8377,-9.8807,-9.9431,-10.029,-10.0681,-10.1383,-10.2203,-10.3491,-10.4404,-10.4819,-10.6092,0.0,-10.6702,-10.7002,-10.7216,-10.721,-10.762,-10.7783,-10.7783,-10.7783,-10.7783,-10.7705,0.0,0.0,0.0,0.0,0.0,0.0,0.0,-5.0703,-5.1055,-5.3516,-5.3164,-5.2187,-5.0898,-4.8398,-4.6719,0.0,0.0,0.0,0.0,0.0,0.0,0.0,0.0,0.0,0.0,0.0,0.0,-4.8252,-4.982,0.0,0.0,0.0,0.0,0.0,-5.2208,-5.2577,-5.3151,-5.3151,-5.3572,0.0,0.0,-5.4971,0.0,0.0,0.0,0.0,0.0,-6.2083,-6.4952,-6.482,-6.828,-7.2716,-7.3579,-7.4896,-7.6164,-7.6663,-7.6314,-7.5891,-7.6383,-7.5989,-7.5425,-7.529,-7.5697,-7.6345,-7.7116,-7.7715,-7.872,-8.0786,-8.129,-8.1585,-8.2287,-8.3269,-8.4284,0.0,-8.5416,-8.5963,-8.7212,-8.7404,-8.7404,0.0,-8.893,0.0,-8.9984,-9.1702,0.0,-9.4981,0.0,0.0,-9.7636,-9.7714,-9.7714,-9.7714,-9.787,-9.8299,-9.9002,-9.9353,-10.0212,-10.15,-10.1696,-10.2086,-10.2906,-10.4584,-10.5404,-10.5486,-10.7212,0.0,0.0,-10.7817,-10.7812,-10.7807,-10.7814,-10.7806,-10.7784,-10.7784,-10.7808,-10.7589,0.0,0.0,0.0,0.0,0.0,0.0,0.0,-5.0703,-5.1953,-5.6797,-5.4687,-5.2656,-5.25,-5.0195,-4.8008,0.0,0.0,0.0,0.0,0.0,0.0,0.0,0.0,0.0,0.0,0.0,0.0,-4.6534,-4.7418,0.0,0.0,0.0,0.0,0.0,0.0,-5.1369,-5.1435,-5.1435,0.0,0.0,0.0,0.0,0.0,0.0,0.0,0.0,0.0,-6.1587,-6.3959,-6.4571,-6.7346,-7.0642,-7.1496,-7.4153,-7.6822,-7.6045,-7.5826,-7.5606,-7.4787,-7.4488,-7.4383,-7.4203,-7.4072,-7.4102,-7.4535,-7.4507,-7.4994,-7.7145,-7.8164,-7.8694,-7.8852,-8.0224,0.0,0.0,0.0,-8.4597,-8.7056,-8.7404,-8.7404,-8.7404,0.0,0.0,-8.9984,-9.2248,0.0,-9.502,0.0,0.0,-9.7675,-9.7714,-9.7714,-9.7714,-9.8455,-9.8924,-9.9002,-10.0485,-10.1305,-10.15,-10.2281,-10.2711,-10.2906,-10.4584,-10.5404,-10.5486,-10.7212,0.0,0.0,-10.7883,-10.7909,-10.7909,-10.7904,-10.7914,-10.7816,-10.7816,-10.7801,-10.7589,0.0,0.0,0.0,0.0,0.0,0.0,-5.1445,-5.1325,-5.2507,-5.7214,-5.6591,-5.5346,-5.4375,-5.2422,-4.9883,-4.6601,0.0,0.0,0.0,0.0,0.0,0.0,0.0,0.0,0.0,0.0,-4.6272,-4.6245,-4.6562,0.0,0.0,0.0,0.0,0.0,0.0,-4.992,-5.0386,-4.9843,0.0,0.0,0.0,0.0,0.0,0.0,0.0,0.0,0.0,0.0,-6.369,-6.3676,-6.6228,-6.9558,-7.0254,-7.2407,-7.4732,-7.4932,-7.4636,-7.425,-7.4299,-7.3926,-7.3445,-7.3189,-7.3094,-7.3392,-7.4639,-7.4896,-7.5447,-7.7465,-7.8129,-7.8304,-7.8383,-7.9834,-8.1435,0.0,0.0,0.0,-8.7798,-8.772,-8.7603,-8.811,-8.9242,0.0,0.0,0.0,-9.4395,0.0,0.0,0.0,-9.7714,-9.7714,-9.7948,-9.8455,-9.8807,-9.947,-10.0485,-10.1188,-10.1813,-10.2281,-10.2593,-10.2789,-10.2789,-10.4116,-10.4897,-10.5482,-10.6718,0.0,0.0,-10.7889,-10.789,-10.789,-10.7881,-10.7904,-10.7886,-10.7886,-10.7481,-10.6914,0.0,0.0,0.0,0.0,0.0,-4.7547,-5.1842,-5.1998,-5.2951,-5.6862,-5.7333,-5.6686,-5.5074,-5.3083,-5.0702,-4.7695,-4.6758,0.0,0.0,0.0,0.0,0.0,0.0,0.0,0.0,0.0,-4.6361,-4.6562,-4.6558,-4.6646,0.0,0.0,-4.8049,-4.8599,0.0,0.0,0.0,0.0,0.0,0.0,0.0,0.0,0.0,0.0,0.0,0.0,0.0,0.0,0.0,0.0,0.0,-6.8303,-6.9231,-7.0774,-7.2555,-7.3948,-7.3743,-7.3197,-7.3586,-7.309,-7.2415,-7.2104,-7.2334,-7.2974,-7.4248,-7.4841,-7.5618,-7.7281,-7.7589,-7.7578,-7.7606,-7.9053,-8.0771,0.0,0.0,-8.5416,-8.8305,-8.7954,-8.7915,0.0,0.0,-9.0179,0.0,-9.2834,0.0,0.0,0.0,0.0,-9.7714,-9.7948,-9.8377,-9.8963,-9.947,-10.029,-10.15,-10.1813,-10.2203,-10.2789,-10.2789,-10.2789,-10.2789,-10.3687,-10.4584,-10.5404,-10.6302,0.0,0.0,-10.7904,-10.7915,-10.7917,-10.789,-10.7889,-10.7885,-10.7612,-10.71,-10.639,0.0,0.0,0.0,0.0,0.0,0.0,-5.1842,-5.2501,-5.3393,-5.5977,-5.6324,-5.5684,-5.4105,-5.157,-5.0061,-5.0156,-4.7773,0.0,0.0,0.0,0.0,0.0,0.0,0.0,0.0,0.0,-4.6601,-4.75,-4.7406,-4.7848,-4.8663,-4.8613,-4.8599,-4.8599,0.0,0.0,0.0,0.0,0.0,0.0,0.0,0.0,-5.5126,0.0,0.0,0.0,0.0,0.0,0.0,0.0,0.0,0.0,0.0,-6.9515,-7.0813,-7.3285,-7.3495,-7.2835,-7.2435,-7.1788,-7.1158,-7.0979,-7.1735,-7.2528,-7.269,-7.3561,-7.4582,-7.5606,-7.5813,-7.5813,-7.5816,-7.7257,-7.9014,-8.0732,0.0,0.0,-8.8227,-8.7954,-8.8344,0.0,0.0,-9.0648,-9.2326,-9.4044,0.0,0.0,0.0,0.0,-9.7714,-9.8533,-9.9002,-9.9002,-10.0603,-10.15,-10.15,-10.2398,-10.2789,-10.2789,-10.2789,-10.2789,-10.2789,-10.3687,-10.4584,-10.5404,0.0,0.0,0.0,-10.7981,-10.7981,-10.7981,-10.7981,-10.8016,-10.7809,-10.6911,-10.6601,-10.639,0.0,0.0,0.0,0.0,0.0,0.0,0.0,-4.8819,-4.9747,-5.2412,-5.3273,-5.3891,-5.4642,-5.238,-5.0826,-5.0884,-4.8078,0.0,0.0,0.0,0.0,0.0,0.0,0.0,0.0,0.0,-4.7771,-4.9202,-4.9139,-4.9569,-5.0436,-5.0948,-5.1202,-5.1202,-5.1202,-5.1202,0.0,0.0,0.0,0.0,0.0,-5.4116,-5.5981,0.0,0.0,0.0,0.0,0.0,0.0,0.0,0.0,0.0,0.0,0.0,0.0,-7.1649,-7.2116,-7.204,-7.1801,-7.1571,-7.1367,-7.1257,-7.1988,-7.2884,-7.3639,-7.455,-7.5517,-7.6507,-7.6672,-7.6516,-7.5894,-7.7726,-7.9678,-8.081,-8.3426,0.0,0.0,0.0,0.0,-9.1077,-9.1077,-9.178,0.0,0.0,0.0,0.0,0.0,0.0,-9.8572,-9.9392,-9.99,-9.99,-10.0915,-10.1813,-10.2398,-10.2711,-10.2789,-10.2789,-10.2789,-10.2789,-10.2789,-10.3101,-10.3999,0.0,0.0,0.0,0.0,-10.802,-10.802,-10.802,-10.802,-10.7993,-10.7892,-10.7694,-10.7198,-10.6583,0.0,0.0,0.0,0.0,0.0,0.0,0.0,-4.7386,-4.8203,-4.986,-5.0843,-5.1946,-5.3433,-5.1252,-4.9971,-5.063,-4.7964,0.0,0.0,0.0,0.0,0.0,0.0,0.0,-4.8023,-4.8008,-4.9086,-5.1449,-5.1051,-5.1463,-5.264,-5.3145,-5.3378,-5.3378,-5.3028,-5.3067,0.0,0.0,0.0,0.0,-5.4549,-5.532,-5.6408,0.0,0.0,0.0,0.0,0.0,0.0,0.0,0.0,0.0,0.0,0.0,0.0,0.0,-7.1021,-7.1257,-7.1735,-7.163,-7.1397,-7.1378,-7.2344,-7.3426,-7.3717,-7.4772,-7.5768,-7.6041,-7.6116,-7.6149,-7.6281,-7.7882,-7.9795,-8.163,-8.4284,0.0,0.0,0.0,0.0,-9.0648,0.0,0.0,0.0,0.0,0.0,0.0,0.0,0.0,-9.8963,-10.0095,-10.0798,-10.0798,-10.1618,-10.2281,-10.2789,-10.2789,-10.2789,-10.2789,-10.2789,-10.2984,-10.3296,-10.3296,-10.4194,0.0,0.0,0.0,0.0,-10.802,-10.802,-10.802,-10.802,-10.802,-10.802,-10.759,-10.72,-10.6693,0.0,0.0,0.0,0.0,0.0,0.0,0.0,-4.7688,-4.8237,-4.8237,-4.8972,-4.985,-5.0703,-4.8638,-4.7859,-4.9563,0.0,0.0,0.0,0.0,0.0,0.0,0.0,0.0,-4.9053,-4.9048,-5.0689,-5.3974,-5.321,-5.3689,-5.5281,-5.532,-5.5359,-5.532,-5.4465,-5.4465,-5.5165,0.0,0.0,0.0,-5.5981,-5.6291,0.0,0.0,0.0,0.0,0.0,0.0,0.0,0.0,0.0,0.0,0.0,0.0,0.0,0.0,0.0,0.0,0.0,-7.1849,-7.1324,-7.1334,-7.272,-7.3897,-7.3101,-7.4361,0.0,-7.475,-7.4694,-7.5265,-7.6822,-7.796,-7.9717,-8.2918,-8.4987,-8.6783,0.0,-8.8813,0.0,0.0,-9.299,0.0,-9.5176,0.0,0.0,0.0,0.0,0.0,-9.908,-10.0603,-10.15,-10.1618,-10.2398,-10.2789,-10.2789,-10.2789,-10.2789,-10.2789,-10.2906,-10.3296,-10.4116,-10.4194,-10.5092,0.0,0.0,0.0,0.0,-10.802,-10.802,-10.802,-10.802,-10.802,-10.7903,-10.72,-10.6888,-10.6888,0.0,0.0,0.0,0.0,0.0,0.0,0.0,0.0,0.0,0.0,-4.7154,-4.7794,-4.803,-4.7488,-4.7301,0.0,0.0,0.0,0.0,0.0,0.0,0.0,0.0,0.0,-5.152,-5.2253,-5.3619,-5.571,-5.6774,-5.7496,-5.7923,-5.8583,-5.8894,-5.8855,-5.8001,-5.7379,-5.6958,-5.6291,0.0,0.0,-5.6214,-5.6291,0.0,0.0,0.0,0.0,-6.0019,-6.0674,0.0,0.0,0.0,0.0,0.0,0.0,0.0,0.0,-6.9811,-7.0532,-7.1529,0.0,-7.1534,-7.1658,-7.2453,-7.3192,0.0,-7.4465,-7.564,-7.5452,-7.6532,-7.7404,-7.714,-7.9444,-8.1669,-8.245,-8.5104,-8.7486,-8.854,-8.9867,0.0,-9.096,-9.2834,-9.463,-9.5957,0.0,0.0,0.0,0.0,-9.9275,-9.9978,-10.0993,-10.1813,-10.2515,-10.2711,-10.2789,-10.2789,-10.2789,-10.2789,-10.2789,-10.3491,-10.3882,-10.4116,-10.4819,-10.5717,0.0,0.0,0.0,-10.802,-10.802,-10.802,-10.802,-10.802,-10.802,-10.8098,-10.8488,-10.8684,-10.8801,0.0,0.0,0.0,0.0,0.0,0.0,0.0,0.0,0.0,0.0,0.0,0.0,0.0,0.0,0.0,0.0,0.0,0.0,0.0,0.0,0.0,0.0,0.0,-5.1034,-5.3582,-5.4498,-5.5989,-5.8106,-5.8557,-5.9011,-5.9399,-5.9865,-6.0099,-6.006,-5.9205,-5.8117,-5.7036,-5.7301,-5.6758,-5.5825,-5.6991,0.0,0.0,0.0,0.0,0.0,-6.0333,-6.0871,0.0,-6.2093,-6.3106,-6.4139,0.0,0.0,0.0,0.0,-6.9422,-7.0005,-7.1248,-7.1598,-7.1622,-7.1711,-7.232,-7.2981,-7.3124,-7.4433,-7.5669,-7.5733,-7.679,-7.7961,-7.8735,-8.042,-8.2215,-8.3777,-8.5924,0.0,0.0,0.0,-9.1585,-9.2365,-9.3966,-9.5371,0.0,0.0,0.0,0.0,0.0,-9.9978,-10.0798,-10.1618,-10.2281,-10.2789,-10.2789,-10.2789,-10.2789,-10.2789,-10.2984,-10.3413,-10.3882,-10.4506,-10.5287,-10.5795,-10.6497,0.0,0.0,0.0,-10.802,-10.802,-10.802,-10.802,-10.841,-10.8605,-10.8684,-10.9503,-10.9894,-11.0011,0.0,0.0,0.0,0.0,0.0,0.0,0.0,0.0,0.0,0.0,0.0,0.0,0.0,0.0,0.0,0.0,0.0,0.0,0.0,0.0,0.0,0.0,0.0,-5.2922,-5.542,-5.663,-5.8209,-6.0171,-6.019,-6.0332,-6.0681,-6.0953,-6.0875,-6.0448,-5.9593,-5.8273,-5.6758,-5.8078,-5.7301,-5.5398,-5.7535,0.0,0.0,0.0,0.0,0.0,0.0,0.0,0.0,-6.2147,-6.3122,-6.4139,-6.4955,0.0,0.0,0.0,0.0,0.0,-7.1326,-7.1659,-7.1573,-7.1589,-7.2143,-7.2832,-7.3172,-7.4483,-7.5722,-7.6092,-7.6999,-7.8423,-8.0761,-8.1513,-8.2723,-8.5612,-8.6822,0.0,-9.057,-9.1038,-9.178,-9.3576,-9.5215,0.0,0.0,0.0,0.0,0.0,0.0,-10.0798,-10.15,-10.2281,-10.2789,-10.2789,-10.2789,-10.2906,-10.2984,-10.2984,-10.3413,-10.4116,-10.4389,-10.5287,-10.6693,-10.681,-10.7317,-10.802,0.0,0.0,-10.802,-10.8098,-10.8215,-10.8293,-10.9113,-10.9503,-10.9581,-11.0401,-11.0714,-11.0792,0.0,0.0,0.0,0.0,0.0,0.0,0.0,0.0,0.0,0.0,0.0,0.0,0.0,0.0,0.0,0.0,0.0,0.0,0.0,0.0,0.0,0.0,-5.2933,-5.514,-5.7016,-6.0049,-6.1119,-6.0116,-6.4364,-6.5382,-6.3439,-6.4838,-6.4372,-6.2274,-6.1381,-6.006,-5.8389,-5.7962,-5.7146,-5.6136,-5.6524,0.0,0.0,0.0,0.0,0.0,0.0,0.0,0.0,-6.2292,-6.3231,-6.4139,-6.4955,0.0,0.0,0.0,0.0,0.0,-7.2025,-7.2055,-7.1359,-7.1404,-7.1493,-7.1969,-7.3506,-7.4824,-7.6103,-7.7534,-7.9778,-8.1617,-8.2017,-8.3855,-8.5495,-8.6002,-8.6822,-8.7798,0.0,0.0,-9.1116,-9.3497,0.0,0.0,0.0,0.0,0.0,0.0,0.0,-10.1383,-10.15,-10.2281,-10.2789,-10.2789,-10.2789,-10.3218,-10.3882,-10.3882,-10.3999,-10.4116,-10.5599,-10.638,-10.6693,-10.7512,-10.7903,-10.802,0.0,-10.802,-10.8098,-10.8801,-10.9113,-10.9191,-11.0011,-11.0284,-11.0401,-11.1299,-11.1611,-11.1689,0.0,0.0,0.0,0.0,0.0,0.0,0.0,0.0,0.0,0.0,0.0,0.0,0.0,0.0,0.0,0.0,0.0,0.0,0.0,0.0,0.0,-5.3567,-5.5719,-5.7448,-5.8712,-6.1234,-6.2624,-6.2787,-6.5652,-6.6453,-6.5312,-6.5639,-6.4955,-6.3323,-6.2002,-6.0681,-5.9438,-5.8622,-5.7768,-5.7036,0.0,0.0,0.0,0.0,0.0,0.0,0.0,0.0,0.0,0.0,-6.3945,-6.4799,-6.5654,0.0,0.0,0.0,0.0,0.0,-7.1636,-7.1669,-7.128,-7.1959,-7.2084,-7.2568,-7.4476,-7.6015,-7.7412,-7.8754,-8.0731,-8.2542,-8.35,-8.4597,-8.5729,-8.6666,-8.7525,-8.8579,-8.9906,-9.1233,-9.2834,0.0,0.0,0.0,0.0,0.0,0.0,0.0,0.0,0.0,-10.2203,-10.2593,-10.2789,-10.2789,-10.3296,-10.3687,-10.4116,-10.5014,-10.5482,-10.5482,-10.6302,-10.6888,-10.7395,-10.7786,-10.802,-10.802,0.0,-10.802,-10.802,-10.841,-10.8918,-10.9386,-11.0206,-11.0792,-11.1299,-11.2197,-11.2509,-11.2587,0.0,0.0,0.0,0.0,0.0,0.0,0.0,0.0,0.0,0.0,0.0,0.0,0.0,0.0,0.0,0.0,0.0,0.0,0.0,0.0,-5.3459,-5.5625,-5.7559,-5.9288,-6.0765,-6.2507,-6.4045,-6.5398,-6.6889,-6.742,-6.7005,-6.6415,-6.546,-6.4216,-6.2896,-6.1575,-6.037,-5.971,-5.8817,-5.793,0.0,0.0,0.0,0.0,0.0,0.0,0.0,0.0,0.0,0.0,0.0,0.0,0.0,0.0,0.0,-6.8645,-6.9383,-7.0036,-7.1672,-7.1887,-7.1989,-7.35,-7.3345,-7.3404,-7.5634,-7.7304,-7.8754,-8.0202,-8.1685,-8.3289,-8.5094,-8.5573,-8.6158,-8.7486,-8.8266,-8.9242,-9.0765,-9.2443,-9.4122,-9.5879,-9.6855,0.0,0.0,0.0,0.0,0.0,0.0,0.0,-10.2789,-10.2789,-10.2789,-10.2789,-10.3608,-10.4194,-10.4389,-10.5912,-10.6693,-10.6693,-10.6888,-10.7395,-10.802,-10.802,-10.802,-10.802,-10.802,-10.802,-10.802,-10.8215,-10.8684,-10.9386,-11.0401,-11.1299,-11.2197,-11.2587,-11.29,-11.3017,0.0,0.0,0.0,0.0,0.0,0.0,0.0,0.0,0.0,0.0,0.0,0.0,0.0,0.0,0.0,0.0,0.0,0.0,0.0,0.0,-5.3846,-5.4851,-5.725,-6.0101,-6.3359,-6.5141,-6.6137,-6.629,-6.9601,-7.0421,-6.8909,-6.8831,-6.7472,-6.5102,-6.4986,-6.3588,-6.1296,-6.1218,-6.0254,-5.8739,-5.8778,0.0,0.0,0.0,0.0,0.0,0.0,0.0,0.0,0.0,0.0,0.0,0.0,0.0,-6.7907,-6.8839,-7.0199,-7.1767,-7.3325,-7.3566,-7.405,-7.6687,-7.5272,-7.4007,-7.6815,-7.8198,-7.9629,-8.2295,-8.3636,-8.4919,-8.6847,-8.7876,-8.8461,-8.8579,-8.8657,-8.9047,-8.9945,0.0,-9.3224,-9.4981,0.0,0.0,0.0,0.0,0.0,0.0,0.0,0.0,-10.2789,-10.2789,-10.2789,-10.2789,-10.3608,-10.4506,-10.5287,-10.6185,-10.6693,-10.6693,-10.7512,-10.7903,-10.802,-10.802,-10.802,-10.802,-10.802,-10.802,-10.8098,-10.8918,-10.9191,-10.9503,-11.1104,-11.2197,-11.29,-11.2197,-11.2392,-11.29,0.0,0.0,0.0,0.0,0.0,0.0,0.0,0.0,0.0,0.0,0.0,0.0,0.0,0.0,0.0,0.0,0.0,0.0,0.0,0.0,-5.5673,-5.7572,-5.878,-6.1243,-6.5171,-6.6448,-6.7871,-6.9508,-7.0902,-7.1258,-7.0624,-6.96,-6.8296,-6.678,-6.5693,-6.4675,-6.3704,-6.2663,-6.1847,-6.1186,-6.0642,-6.0604,0.0,0.0,0.0,0.0,0.0,0.0,0.0,0.0,-6.4492,-6.5731,-6.5979,-6.6777,-6.7763,-6.8519,-6.9992,-7.1736,-7.3296,-7.4072,-7.4993,-7.7201,-7.8037,-7.8379,-7.8543,-8.0206,-8.1929,-8.2811,-8.3883,-8.5422,-8.7752,-8.7603,-8.7798,-8.9945,-8.9867,-8.9984,-9.135,-9.3029,0.0,0.0,0.0,0.0,0.0,0.0,0.0,0.0,0.0,0.0,-10.2789,-10.2789,-10.2984,-10.3608,-10.4506,-10.5287,-10.6185,-10.7083,-10.7512,-10.7512,-10.7786,-10.802,-10.802,-10.802,-10.802,-10.802,-10.802,-10.802,-10.802,-10.841,-10.8801,-10.9386,-11.0518,-11.1182,-11.1416,-11.1104,-11.1182,-11.1416,0.0,0.0,0.0,0.0,0.0,0.0,0.0,0.0,0.0,0.0,0.0,0.0,0.0,0.0,0.0,0.0,0.0,0.0,-5.3875,-5.5143,-5.6783,-5.8803,-5.9865,-6.2298,-6.64,-6.7586,-6.9226,-7.1355,-7.1746,-7.1678,-7.1114,-6.9722,-6.8738,-6.8086,-6.6384,-6.5615,-6.5537,-6.41,-6.3168,-6.2655,-6.1997,-6.1555,0.0,0.0,0.0,0.0,0.0,0.0,0.0,0.0,-6.4347,-6.5627,-6.5839,-6.6791,-6.7944,-6.871,-7.0424,-7.2446,-7.3999,-7.5259,-7.6552,-7.8194,-8.0405,-8.1857,-8.0611,-8.2003,-8.347,-8.3339,-8.5,-8.6822,-8.8071,-8.8188,-8.8735,0.0,-9.0843,-9.1194,0.0,0.0,0.0,0.0,0.0,0.0,0.0,0.0,0.0,0.0,0.0,0.0,0.0,-10.3101,-10.3491,-10.4116,-10.5209,-10.6107,-10.6693,-10.759,-10.802,-10.802,-10.802,-10.802,-10.802,-10.802,-10.802,-10.802,-10.802,-10.802,-10.802,-10.802,-10.8488,-10.9386,-10.9894,-11.0284,-11.0518,-11.0206,-11.0284,-11.0401,0.0,0.0,0.0,0.0,0.0,0.0,0.0,0.0,-5.1931,-5.1931,-5.1931,0.0,0.0,0.0,0.0,0.0,0.0,0.0,-5.39,-5.553,-5.688,-5.7682,-6.0151,-6.3225,-6.6962,-6.8732,-7.0169,-7.133,-7.2235,-7.1871,-7.0215,-6.9407,-6.9007,-6.8929,-6.7262,-6.6508,-6.6431,-6.5569,-6.4248,-6.2687,-6.2482,-6.1888,-6.1104,0.0,0.0,0.0,0.0,0.0,0.0,0.0,-6.3844,-6.4822,-6.5513,-6.7013,-6.8675,-6.955,-7.1738,-7.4237,-7.5697,-7.7342,-7.8902,-8.0123,-8.2173,-8.3733,-8.2987,-8.3358,-8.3901,-8.4174,-8.7267,-8.9437,-8.7759,-9.0179,0.0,-9.0296,-9.1428,-9.2522,0.0,0.0,0.0,0.0,0.0,0.0,0.0,0.0,0.0,0.0,0.0,0.0,0.0,-10.3608,-10.4116,-10.4116,-10.5795,-10.6693,-10.6693,-10.759,-10.802,-10.802,-10.802,-10.802,-10.802,-10.802,-10.802,-10.802,-10.802,-10.802,-10.802,-10.802,-10.8488,-10.9308,-10.9308,-10.9816,-11.0401,-10.9581,-10.9816,-11.0206,0.0,0.0,0.0,0.0,0.0,0.0,0.0,0.0,-5.3658,-5.3658,-5.3658,0.0,0.0,0.0,0.0,0.0,0.0,0.0,-5.5066,-5.6338,-5.746,-5.8281,-6.0355,-6.2271,-6.3967,-6.7414,-7.05,-7.3214,-7.2879,-7.2463,-7.2016,-7.0589,-6.9606,-6.901,-6.7899,-6.7052,-6.6423,-6.548,-6.4769,-6.4257,-6.3438,-6.2952,-6.2622,0.0,0.0,0.0,0.0,0.0,0.0,0.0,0.0,0.0,-6.5953,-6.7683,-6.9333,-7.0032,-7.2184,-7.4658,-7.6108,-7.8012,-7.9983,-8.1538,-8.4126,-8.6047,-8.5045,-8.5466,-8.5903,-8.544,-8.6235,-8.7481,-8.8958,-8.9047,0.0,-9.3068,-9.299,0.0,0.0,0.0,0.0,0.0,0.0,0.0,0.0,0.0,0.0,0.0,0.0,0.0,0.0,-10.4506,-10.5014,-10.5014,-10.6107,-10.7005,-10.759,-10.7903,-10.802,-10.802,-10.802,-10.802,-10.802,-10.802,-10.802,-10.802,-10.802,-10.802,-10.802,-10.802,-10.8215,-10.841,-10.841,-10.8488,-10.8684,-10.8488,-10.8488,-10.8684,0.0,0.0,0.0,0.0,0.0,0.0,-5.4409,-5.4409,-5.4409,-5.4409,-5.4409,-5.4409,0.0,0.0,0.0,-5.4409,-5.4409,-5.4747,-5.5555,-5.6568,-5.7532,-5.8346,-6.0475,-6.2427,-6.4167,-6.7821,-7.0758,-7.2932,-7.2595,-7.2468,-7.2474,-7.1329,-7.0696,-7.0529,-6.9619,-6.8912,-6.836,-6.7309,-6.6503,-6.5796,-6.5068,-6.4188,-6.3279,0.0,0.0,0.0,0.0,0.0,0.0,0.0,0.0,0.0,-6.5261,-6.7393,-6.9604,-7.0708,-7.2754,-7.5183,-7.7485,-7.9067,-8.0439,-8.1998,-8.4543,-8.6579,-8.6295,-8.6397,-8.6295,-8.5449,-8.6434,-8.777,-8.8767,-8.9789,0.0,-9.3654,0.0,0.0,0.0,0.0,0.0,0.0,0.0,0.0,0.0,0.0,0.0,0.0,0.0,0.0,0.0,-10.5287,-10.6107,-10.6419,-10.7317,-10.7981,-10.8488,-10.8215,-10.802,-10.802,-10.802,-10.802,-10.802,-10.802,-10.802,-10.802,-10.802,-10.802,-10.802,-10.802,-10.802,-10.802,-10.802,-10.802,-10.802,-10.802,-10.8215,-10.8488,0.0,0.0,0.0,0.0,0.0,0.0,-5.4634,-5.4634,-5.4634,-5.4634,-5.4559,-5.4521,0.0,0.0,0.0,-5.4409,-5.4409,-5.4747,-5.5555,-5.6436,-5.7263,-5.807,-6.0492,-6.3198,-6.6214,-6.9021,-7.0644,-7.1047,-7.1878,-7.2209,-7.2055,-7.1844,-7.2066,-7.2609,-7.1696,-7.1239,-7.1063,-7.0011,-6.8692,-6.7253,-6.7076,-6.5638,-6.3692,-6.424,0.0,0.0,0.0,0.0,0.0,0.0,0.0,0.0,-6.4229,-6.6789,-6.9741,-7.1458,-7.3402,-7.5723,-7.9079,-8.0105,-8.0528,-8.1835,-8.3944,-8.5891,-8.6897,-8.6527,-8.5708,-8.4916,-8.7429,-8.9359,-8.7993,-9.1663,-9.4434,0.0,0.0,0.0,0.0,0.0,0.0,0.0,0.0,0.0,0.0,0.0,0.0,0.0,0.0,0.0,0.0,-10.5795,-10.7083,-10.802,-10.8801,-10.9308,-10.9386,-10.8488,-10.802,-10.8098,-10.802,-10.802,-10.802,-10.802,-10.802,-10.802,-10.802,-10.802,-10.802,-10.802,-10.802,-10.802,-10.802,-10.802,-10.802,-10.802,-10.8488,-10.9113,0.0,0.0,0.0,0.0,0.0,0.0,-5.6361,-5.6361,-5.6361,-5.6361,-5.5761,-5.533,-5.533,-5.4784,0.0,-5.4409,-5.4409,-5.4747,-5.5555,-5.6436,-5.7263,-5.807,-6.0492,-6.2729,-6.4709,-6.6673,-6.8129,-6.9108,-7.2069,-7.3168,-7.2557,-7.3136,-7.2721,-7.1556,-7.138,-7.0811,-6.9972,-6.8963,-6.8306,-6.7985,-6.7759,-6.7363,-6.6865,-6.6346,-6.5948,0.0,0.0,0.0,0.0,0.0,0.0,0.0,-6.6636,-6.8967,-7.1238,-7.1647,-7.3615,-7.5923,-7.7391,-7.9018,-8.0711,-8.2392,-8.4416,-8.6233,-8.7143,-8.7186,-8.697,-8.6611,-8.7307,-8.8461,-9.014,0.0,0.0,0.0,0.0,0.0,0.0,0.0,0.0,0.0,0.0,0.0,0.0,0.0,0.0,0.0,0.0,0.0,-10.5092,-10.6107,-10.7083,-10.802,-10.8215,-10.8918,-11.0206,-10.8801,-10.8293,0.0,-10.8293,-10.802,-10.802,-10.802,-10.802,-10.802,-10.802,-10.802,-10.802,-10.802,-10.802,-10.802,-10.802,-10.802,-10.802,-10.802,-10.8098,-10.841,0.0,0.0,0.0,0.0,0.0,0.0,0.0,0.0,-5.7751,-5.7,-5.6512,-5.6043,-5.563,-5.5218,0.0,0.0,-5.4409,-5.4747,-5.5555,-5.6436,-5.7788,-5.9778,-6.0755,-6.2052,-6.3861,-6.5539,-6.6994,-6.8147,-7.1289,-7.2748,-7.2685,-7.2881,-7.2636,-7.2174,-7.2637,-7.2328,-7.1426,-7.1159,-7.0609,-6.9866,-6.9757,-6.8967,-6.7897,-6.7897,-6.74,-6.6674,-6.6636,0.0,0.0,0.0,0.0,0.0,0.0,0.0,-7.1789,-7.2301,-7.373,-7.5686,-7.7996,-7.9056,-8.0237,-8.3465,-8.4773,-8.5717,-8.7085,-8.7338,-8.7497,-8.8316,-8.8587,-8.9203,0.0,0.0,0.0,0.0,0.0,0.0,0.0,0.0,0.0,0.0,0.0,0.0,0.0,0.0,0.0,0.0,0.0,-10.4702,-10.599,-10.681,-10.7708,-10.8605,-10.8996,-10.962,-11.0518,-10.9308,-10.8996,-10.9894,-10.8605,-10.802,-10.802,-10.802,-10.802,-10.802,-10.802,-10.802,-10.802,-10.802,-10.802,-10.802,-10.802,-10.802,-10.8098,-10.8488,-10.8918,-10.9308,0.0,0.0,0.0,0.0,0.0,0.0,0.0,0.0,0.0,-5.7713,-5.7413,-5.7,-5.6118,-5.5893,-5.5573,0.0,0.0,0.0,-5.5781,-5.6774,-5.8727,-6.1881,-6.1393,-6.1845,-6.3608,-6.5271,-6.6643,-6.7697,-7.0057,-7.1679,0.0,0.0,0.0,-7.2909,-7.3822,-7.3822,-7.3254,-7.3904,-7.3323,-7.1964,-7.2062,-7.0686,-6.8623,-6.9349,-6.8661,-6.7439,-6.8088,-6.7821,-6.7133,-6.7133,0.0,0.0,0.0,0.0,-7.2073,-7.2809,-7.3844,-7.5485,-7.8992,-7.9764,-8.0561,-8.465,-8.5212,-8.5242,-8.7003,-8.7273,-8.7666,-8.9427,-8.9906,0.0,0.0,0.0,0.0,0.0,0.0,0.0,0.0,0.0,0.0,0.0,0.0,0.0,0.0,0.0,0.0,0.0,0.0,-10.4897,-10.6614,-10.7395,-10.8293,-10.9503,-11.0011,-11.0518,-11.0909,-11.0011,-10.9894,-11.0714,-10.8996,-10.8098,-10.802,-10.802,-10.802,-10.802,-10.8215,-10.8098,-10.802,-10.8215,-10.8098,-10.802,-10.802,-10.8098,-10.8293,-10.8996,-10.9816,-11.0518,0.0,0.0,0.0,0.0,0.0,0.0,0.0,0.0,0.0,0.0,-5.944,-5.8689,-5.7845,-5.715,-5.6662,-5.6587,-5.6549,-5.6624,-5.6737,0.0,0.0,-6.282,-6.2782,-6.314,-6.4196,-6.585,-6.6898,-6.7367,-6.8824,-7.0486,0.0,0.0,0.0,-7.1585,0.0,0.0,-7.2861,-7.3806,-7.3667,-7.2902,-7.359,-7.2788,-7.1221,-7.1298,-7.0763,-6.9922,-7.0037,-6.954,-6.8852,-6.8852,-6.8852,0.0,0.0,0.0,-7.2728,-7.2073,-7.3667,-7.6064,-7.8023,-8.1001,-8.3921,-8.5478,-8.5877,-8.6144,0.0,0.0,-8.7667,0.0,0.0,0.0,0.0,0.0,0.0,0.0,0.0,0.0,0.0,0.0,0.0,0.0,0.0,0.0,0.0,0.0,0.0,0.0,-10.4116,-10.4897,-10.6614,-10.681,-10.7903,-11.0284,-10.9816,-11.0518,-11.2704,-11.1104,-11.0792,-11.1611,-10.9894,-10.8684,-10.802,-10.802,-10.802,-10.802,-10.8801,-10.8684,-10.8098,-10.8801,-10.8684,-10.802,-10.802,-10.8488,-10.9113,-10.9308,-10.9816,-11.0596,0.0,0.0,0.0,0.0,0.0,0.0,0.0,0.0,0.0,0.0,0.0,-5.9703,-5.8877,-5.8051,-5.7375,-5.6925,-5.73,-5.7976,-5.8915,-6.0041,-6.143,-6.3045,-6.2595,-6.2745,-6.3608,-6.4772,-6.57,-6.6293,-6.7785,-6.9461,0.0,-7.1892,-7.2052,0.0,0.0,0.0,0.0,0.0,0.0,-7.4328,-7.5236,0.0,0.0,0.0,-7.2864,-7.2482,-7.2024,-7.1642,-7.1336,-7.1336,-7.1336,-7.1336,-7.1336,0.0,0.0,0.0,-7.3942,-7.5529,-7.8299,-8.1245,-8.4043,0.0,-8.6602,-8.6939,-8.7329,-8.8149,-8.8813,0.0,0.0,0.0,0.0,0.0,0.0,0.0,0.0,0.0,0.0,0.0,0.0,0.0,0.0,0.0,0.0,0.0,0.0,0.0,-10.4584,-10.5404,-10.6614,-10.72,-10.7903,-10.9113,-10.9699,-11.0518,-11.1611,-11.1416,-11.1182,-11.1104,-11.0792,-11.0011,-10.8684,-10.8684,-10.8488,-10.802,-10.841,-10.841,-10.802,-10.841,-10.8293,-10.802,-10.802,-10.8215,-10.8684,-10.9581,-11.0206,-11.0714,0.0,0.0,0.0,0.0,0.0,0.0,0.0,0.0,0.0,0.0,0.0,-6.0905,-6.0041,0.0,0.0,0.0,-5.8915,-6.0079,-6.1731,-6.2407,-6.3045,-6.3683,-6.3083,-6.2932,-6.3383,-6.4172,-6.4885,-6.5523,0.0,0.0,-7.0818,-7.1419,-7.2219,0.0,-7.2957,-7.2849,0.0,0.0,0.0,-7.5989,0.0,0.0,0.0,0.0,0.0,0.0,0.0,0.0,-7.3284,-7.3284,-7.317,-7.2979,-7.2979,-7.3552,0.0,0.0,0.0,-7.5799,-7.8804,0.0,-8.3757,-8.596,-8.7105,-8.7706,0.0,0.0,-8.9555,0.0,0.0,0.0,0.0,0.0,0.0,0.0,0.0,0.0,0.0,0.0,0.0,0.0,0.0,0.0,0.0,0.0,0.0,0.0,-10.5014,-10.5912,-10.7005,-10.759,-10.8098,-10.8293,-10.9503,-11.0284,-11.0518,-11.1416,-11.1494,-11.0792,-11.1299,-11.0792,-10.9581,-10.9191,-10.8684,-10.8293,-10.8293,-10.8215,-10.802,-10.8215,-10.8215,-10.802,-10.802,-10.8098,-10.8488,-11.0011,-11.0596,-11.0987,0.0,0.0,0.0,0.0,0.0,0.0,0.0,0.0,0.0,0.0,0.0,-6.2632,-6.1768,-6.1618,-6.1581,-6.1543,-6.2332,-6.3533,-6.5148,-6.5298,-6.5336,-6.5373,-6.5336,0.0,-6.4247,-6.5035,-6.5448,-6.5523,0.0,0.0,-7.1644,-7.1681,-7.3071,-7.5501,-7.4708,-7.4065,-7.3741,0.0,0.0,0.0,0.0,0.0,0.0,0.0,0.0,0.0,0.0,0.0,-7.4125,-7.4125,-7.3628,-7.2979,-7.2979,-7.3552,-7.4201,0.0,0.0,0.0,0.0,-8.1663,0.0,-8.534,-8.7117,-8.857,0.0,0.0,0.0,0.0,0.0,0.0,0.0,0.0,0.0,0.0,0.0,0.0,0.0,0.0,0.0,0.0,0.0,0.0,0.0,0.0,0.0,0.0,-10.5404,-10.6107,-10.7786,-10.802,-10.841,-10.9191,-10.9308,-10.9699,-11.0518,-11.1416,-11.1807,-11.1689,-11.0909,-11.0518,-11.0401,-10.8801,-10.8488,-10.9191,-10.9191,-10.8801,-10.8098,-10.8918,-10.8684,-10.802,-10.802,-10.8488,-10.9308,-11.0206,-11.0987,-11.1885,0.0,0.0,0.0,0.0,0.0,0.0,0.0,0.0,0.0,0.0,0.0,0.0,0.0,-6.2932,-6.2632,-6.2632,-6.4359,-6.5486,-6.5523,-6.6011,-6.5861,-6.4772,-6.4247,-6.4059,-6.4284,-6.4096,-6.4472,0.0,0.0,-6.7664,-7.012,-7.1171,-7.2215,-7.3146,-7.3489,-7.4148,-7.5027,-7.6166,0.0,0.0,0.0,0.0,0.0,0.0,0.0,0.0,0.0,0.0,-7.5806,-7.5806,-7.5997,-7.6227,-7.6227,0.0,0.0,0.0,0.0,0.0,0.0,0.0,0.0,-8.5844,-8.7163,-8.7936,-8.8496,-8.9536,0.0,0.0,0.0,0.0,0.0,0.0,0.0,0.0,0.0,0.0,0.0,0.0,0.0,0.0,0.0,0.0,0.0,0.0,0.0,0.0,0.0,-10.5717,-10.6302,-10.7395,-10.8098,-10.8488,-10.8996,-10.9699,-11.0518,-11.1416,-11.1807,-11.1807,-11.1494,-11.0987,-11.0518,-10.9308,-10.8996,-10.9308,-10.8684,-10.8293,-10.802,-10.8293,-10.8293,-10.802,-10.802,-10.8488,-10.9386,-11.0206,-11.1104,-11.1885,0.0,0.0,0.0,0.0,0.0,0.0,0.0,0.0,0.0,-6.5936,0.0,0.0,0.0,0.0,-6.4434,-6.4735,-6.6237,-6.695,-6.6387,-6.6875,-6.6425,-6.4772,-6.4209,-6.4021,-6.4284,-6.3759,0.0,0.0,0.0,0.0,0.0,-7.0517,-7.1907,-7.2958,-7.3107,-7.412,0.0,0.0,0.0,-7.8413,0.0,0.0,-7.9143,0.0,0.0,0.0,0.0,0.0,0.0,-7.8042,0.0,0.0,0.0,0.0,0.0,0.0,0.0,0.0,-8.1273,0.0,0.0,0.0,0.0,-8.8646,-8.8979,0.0,0.0,0.0,0.0,0.0,0.0,0.0,0.0,0.0,0.0,0.0,0.0,0.0,0.0,0.0,0.0,0.0,0.0,0.0,0.0,0.0,0.0,0.0,-10.5795,-10.72,-10.802,-10.802,-10.8605,-10.9308,-11.0089,-11.0909,-11.1494,-11.1807,-11.1494,-11.1182,-11.0909,-10.9816,-10.9386,-10.9699,-10.8801,-10.841,-10.841,-10.8098,-10.8215,-10.841,-10.841,-10.8996,-10.9816,-11.0596,-11.1299,-11.1885,0.0,0.0,0.0,0.0,0.0,0.0,0.0,0.0,-6.6858,-6.6858,0.0,0.0,0.0,0.0,0.0,-6.8002,-6.8077,-6.8077,-6.8039,-6.8002,-6.7213,-6.5561,-6.5448,-6.5073,-6.4322,-6.4304,0.0,0.0,0.0,0.0,0.0,0.0,-7.217,-7.5235,-7.3822,-7.4158,-7.5862,0.0,-7.7619,-7.8571,0.0,-7.908,-7.9806,0.0,0.0,0.0,-8.1879,-8.1632,0.0,-8.0736,0.0,0.0,0.0,0.0,0.0,0.0,0.0,0.0,0.0,0.0,0.0,0.0,0.0,0.0,-9.01,0.0,0.0,0.0,0.0,0.0,0.0,0.0,0.0,0.0,0.0,0.0,0.0,0.0,0.0,0.0,0.0,0.0,0.0,0.0,0.0,0.0,0.0,-10.5717,-10.6614,-10.7512,-10.802,-10.802,-10.802,-10.841,-10.9308,-11.0089,-11.0909,-11.1807,-11.0909,-11.0987,-11.1689,-11.0089,-10.9816,-11.0518,-10.9581,-10.9308,-10.9191,-10.841,-10.8488,-10.9308,-10.9308,-10.9816,-11.0596,-11.1494,-11.1807,-11.2002,0.0,0.0,0.0,0.0,0.0,-6.5598,-6.5824,-6.6875,-6.7664,0.0,0.0,0.0,0.0,0.0,-6.8903,-6.9729,-6.9804,-6.9541,-6.8903,-6.7776,-6.665,-6.5561,-6.4397,-6.3946,-6.4284,-6.3721,0.0,0.0,0.0,0.0,0.0,0.0,0.0,0.0,-7.2913,-7.4252,-7.6381,-7.6165,0.0,-7.8205,-7.941,-7.9509,0.0,0.0,0.0,0.0,0.0,-8.1232,-8.1652,0.0,-8.1843,-8.2302,0.0,0.0,0.0,0.0,0.0,0.0,-8.2535,0.0,0.0,0.0,0.0,0.0,0.0,0.0,0.0,0.0,0.0,0.0,0.0,0.0,0.0,0.0,0.0,0.0,0.0,0.0,0.0,0.0,0.0,0.0,0.0,0.0,0.0,0.0,-10.3999,-10.4819,-10.5717,-10.72,-10.802,-10.802,-10.802,-10.8098,-10.841,-10.9191,-11.0011,-11.0909,-11.0596,-11.0987,-11.1807,-11.0714,-11.0284,-11.0518,-10.9581,-10.9308,-10.9191,-10.841,-10.8098,-10.841,-10.9113,-10.9816,-11.0596,-11.1494,-11.2197,-11.2783,0.0,0.0,-6.3158,-6.5018,-6.5711,-6.6387,-6.7438,-6.8415,-6.9166,0.0,0.0,0.0,0.0,0.0,-6.9954,-7.0442,-7.0179,-6.9766,-6.9219,-6.8002,-6.7063,-6.6575,-6.496,-6.4322,-6.4772,-6.4021,0.0,0.0,0.0,0.0,0.0,0.0,0.0,0.0,-7.2545,-7.4498,0.0,0.0,0.0,0.0,-7.9698,0.0,0.0,-8.1398,-8.2039,0.0,0.0,0.0,-8.3635,-8.3027,-8.3372,0.0,0.0,0.0,0.0,0.0,0.0,0.0,0.0,0.0,0.0,0.0,0.0,0.0,0.0,0.0,0.0,0.0,0.0,0.0,0.0,0.0,0.0,0.0,0.0,0.0,0.0,0.0,0.0,0.0,0.0,0.0,0.0,0.0,0.0,-10.2789,-10.3608,-10.4584,-10.5912,-10.6888,-10.759,-10.802,-10.802,-10.802,-10.802,-10.8918,-10.9503,-11.0011,-11.0284,-11.0792,-11.1299,-11.1104,-11.0792,-11.0518,-11.0011,-10.9581,-10.9191,-10.841,-10.8215,-10.8605,-10.9503,-11.0284,-11.1104,-11.2002,-11.2704,-11.3095,0.0,0.0,-6.3045,-6.6145,-6.6896,-6.7814,-7.0029,-7.0367,-7.0668,0.0,-7.1719,0.0,0.0,0.0,0.0,0.0,-7.0067,-6.9594,-6.9594,-6.879,-6.8227,-6.8152,-6.6612,-6.5711,-6.5523,-6.481,0.0,0.0,0.0,0.0,0.0,0.0,0.0,0.0,-7.2545,-7.4723,0.0,0.0,0.0,-7.9316,-7.9804,-8.0817,0.0,0.0,-8.4043,-8.4999,-8.4798,-8.5543,-8.6409,-8.5146,-8.5206,0.0,0.0,0.0,0.0,0.0,-8.2294,0.0,0.0,0.0,0.0,0.0,0.0,0.0,0.0,0.0,0.0,0.0,0.0,0.0,0.0,0.0,0.0,0.0,0.0,0.0,0.0,0.0,0.0,0.0,0.0,0.0,0.0,-10.1305,-10.1696,-10.2593,-10.3491,-10.4702,-10.6497,-10.6614,-10.7005,-10.802,-10.802,-10.802,-10.802,-10.8801,-10.9191,-10.9308,-11.0011,-11.0518,-11.0714,-11.1416,-11.1299,-11.0518,-11.0518,-11.0011,-10.9113,-10.8293,-10.8488,-10.9191,-11.0089,-11.0987,-11.1807,-11.2704,-11.3095,-11.3095,-6.3458,-6.3909,-6.4209,-6.5523,-6.7401,-6.8903,-6.9369,-6.9444,-6.9992,-7.1494,-7.1719,0.0,0.0,0.0,0.0,0.0,-7.2282,-7.217,-7.217,-7.0818,-6.9691,-6.8994,-6.8039,-6.6875,-6.5523,-6.5336,-6.5261,0.0,0.0,0.0,0.0,0.0,0.0,0.0,-7.2545,-7.4385,0.0,0.0,0.0,-8.023,-8.0969,0.0,-8.249,-8.4651,-8.5883,-8.6497,-8.7134,-8.7554,-8.7725,-8.746,-8.746,-8.7635,0.0,0.0,0.0,-8.6171,0.0,0.0,0.0,0.0,0.0,0.0,-8.7261,0.0,0.0,0.0,0.0,0.0,0.0,0.0,0.0,0.0,0.0,0.0,0.0,0.0,0.0,0.0,0.0,0.0,0.0,0.0,0.0,-10.0095,-10.0915,-10.1696,-10.2593,-10.3804,-10.5599,-10.5717,-10.6419,-10.802,-10.802,-10.802,-10.802,-10.8215,-10.8605,-10.9308,-10.9503,-11.0206,-11.1611,-11.1689,-11.1299,-11.0518,-11.0518,-10.962,-10.8215,-10.8098,-10.8098,-10.841,-10.9894,-11.0596,-11.0909,-11.2509,-11.3095,-11.3095,-6.3383,-6.4021,-6.4697,-6.5936,-6.7513,-6.9015,-7.0233,-7.078,-7.1494,-7.277,0.0,0.0,0.0,0.0,0.0,0.0,0.0,0.0,-7.4122,-7.3033,-7.217,-7.1719,-7.0142,-6.864,-6.7342,-6.6124,-6.5711,0.0,0.0,0.0,0.0,0.0,0.0,0.0,0.0,0.0,0.0,0.0,-8.1444,-8.2258,-8.2497,0.0,-8.3771,-8.5703,-8.6892,-8.7498,-8.7918,-8.811,-8.8224,-8.9065,-8.9065,0.0,-8.8959,-8.8525,-8.794,0.0,-8.6773,-8.5624,0.0,0.0,0.0,-8.6208,-8.716,0.0,0.0,0.0,0.0,0.0,0.0,0.0,0.0,0.0,0.0,0.0,0.0,0.0,0.0,0.0,0.0,0.0,0.0,0.0,0.0,-9.8768,-9.9705,-10.1383,-10.1891,-10.2711,-10.3999,-10.4897,-10.5795,-10.6693,-10.7512,-10.802,-10.802,-10.802,-10.8215,-10.8684,-10.9113,-10.9699,-11.0596,-11.0987,-11.0714,-10.9894,-10.9894,-10.9191,-10.802,-10.802,-10.802,-10.8215,-10.9816,-11.0518,-11.0714,-11.2509,-11.3095,-11.3095,-6.3909,-6.4472,-6.5448,-6.6783,-6.8077,-6.9616,-7.1644,-7.247,-7.3221,0.0,0.0,0.0,0.0,0.0,0.0,0.0,0.0,0.0,-7.5539,-7.4826,-7.4324,-7.4235,-7.2282,-7.0668,-6.9504,-6.7326,-6.665,-6.7535,0.0,0.0,0.0,0.0,0.0,0.0,0.0,0.0,0.0,0.0,0.0,-8.3186,0.0,-8.4755,-8.6014,-8.7014,-8.793,-8.8735,-8.8777,-8.8797,-8.9065,-9.0784,-9.0902,-9.0393,-9.0608,-9.036,0.0,0.0,0.0,0.0,0.0,0.0,-8.5923,-8.7089,-8.7556,-8.8131,0.0,0.0,0.0,0.0,0.0,0.0,0.0,0.0,0.0,0.0,0.0,0.0,0.0,0.0,0.0,0.0,0.0,0.0,0.0,-9.7948,-9.9236,-10.111,-10.1696,-10.2281,-10.2984,-10.4194,-10.5092,-10.5599,-10.7005,-10.7786,-10.802,-10.802,-10.802,-10.802,-10.8684,-10.9113,-10.9308,-11.0011,-10.9894,-10.9308,-10.9308,-10.8801,-10.802,-10.8215,-10.8293,-10.841,-10.9894,-11.0518,-11.0714,-11.2509,-11.3095,-11.3095,-6.6821,-6.7025,-6.7626,-6.7814,-7.0367,-7.2432,-7.2733,-7.2845,-7.3221,0.0,0.0,0.0,0.0,0.0,0.0,0.0,0.0,0.0,-7.6219,0.0,0.0,-7.4212,-7.3934,-7.2695,-7.0405,-6.9316,-6.9203,-7.0067,0.0,0.0,0.0,0.0,0.0,0.0,-7.6225,0.0,0.0,0.0,-8.1594,0.0,-8.3916,-8.726,0.0,-8.9576,-9.0119,-9.1088,-9.1272,-9.1395,-9.1625,0.0,-9.4053,-9.4196,0.0,-9.4359,-9.4203,-9.2932,0.0,0.0,0.0,0.0,0.0,0.0,-8.8916,-8.9774,0.0,0.0,-9.1546,-9.2443,0.0,0.0,0.0,0.0,0.0,0.0,0.0,0.0,0.0,0.0,0.0,0.0,0.0,0.0,0.0,0.0,-10.0915,-10.0485,-10.2515,-10.3804,-10.3882,-10.3413,-10.4194,-10.6497,-10.6693,-10.72,-10.802,-10.802,-10.802,-10.802,-10.8098,-10.8605,-10.9308,-10.9386,-10.9386,-10.9308,-10.9308,-10.8801,-10.8098,-10.8801,-10.9191,-10.9191,-11.0089,-11.0518,-11.0714,-11.2509,-11.3095,-11.3095,-6.8677,-6.8865,-6.9466,-6.9466,-7.1343,-7.2883,-7.2883,-7.3709,-7.4986,0.0,0.0,0.0,0.0,0.0,0.0,0.0,0.0,-7.805,0.0,0.0,0.0,-7.7027,-7.6112,-7.4685,-7.2695,-7.1794,-7.1306,-7.1193,-7.0855,0.0,0.0,0.0,0.0,0.0,-7.7276,0.0,-7.9191,0.0,-8.4035,0.0,0.0,0.0,0.0,-9.0321,-8.9954,-9.0939,-9.1047,-9.1395,-9.1892,0.0,-9.3948,0.0,0.0,0.0,0.0,0.0,0.0,0.0,0.0,0.0,0.0,0.0,0.0,0.0,-9.2578,-9.2737,-9.2717,-9.2522,0.0,0.0,0.0,0.0,0.0,0.0,-9.4239,0.0,0.0,0.0,0.0,0.0,0.0,0.0,0.0,0.0,0.0,0.0,0.0,-10.4194,-10.2711,-10.3687,-10.4584,-10.5209,-10.6185,-10.7083,-10.802,-10.802,-10.802,-10.802,-10.802,-10.8215,-10.8488,-10.8488,-10.8488,-10.8605,-10.9113,-10.8801,-10.8098,-10.8918,-10.9308,-10.9386,-11.0206,-11.0792,-11.1416,-11.2587,-11.3095,-11.3095,-7.1606,0.0,-7.1456,-7.1193,-7.2695,-7.3934,-7.3934,-7.5549,-7.7314,0.0,0.0,0.0,-7.9616,-7.9837,0.0,0.0,-7.9327,-7.9514,0.0,0.0,-7.914,-7.9041,-7.7928,-7.6638,-7.5249,-7.4122,-7.3409,-7.3033,0.0,0.0,0.0,0.0,0.0,0.0,0.0,-7.9265,-8.1193,0.0,-8.5049,-8.7677,-8.8128,-9.0493,-9.3436,-9.0825,-9.0098,-9.0568,-9.1173,-9.1924,-9.271,-9.3251,-9.4693,0.0,-9.5093,0.0,0.0,0.0,0.0,0.0,-9.5256,0.0,0.0,0.0,0.0,0.0,0.0,0.0,0.0,0.0,0.0,0.0,0.0,0.0,0.0,0.0,0.0,0.0,0.0,0.0,0.0,0.0,0.0,0.0,0.0,0.0,0.0,0.0,0.0,0.0,-10.2008,-10.3687,-10.4506,-10.4116,-10.5599,-10.681,-10.759,-10.7903,-10.802,-10.802,-10.802,-10.802,-10.802,-10.802,-10.8098,-10.841,-10.8996,-10.9113,-10.8684,-10.9386,-10.9816,-11.0011,-11.0596,-11.1416,-11.2197,-11.29,-11.3095,-11.3095,-7.6413,-7.5136,-7.3822,-7.2958,-7.4911,-7.6563,-7.6563,-7.8666,0.0,0.0,0.0,0.0,0.0,0.0,0.0,0.0,0.0,-7.8396,-7.8559,0.0,-7.9572,-7.8953,-7.8966,-7.8628,-7.7802,-7.615,-7.5699,-7.645,0.0,0.0,0.0,0.0,0.0,0.0,0.0,-7.9307,-7.9832,-8.1142,-8.2683,-8.4373,-8.595,-8.795,-9.0144,0.0,-9.1363,-9.0508,-9.2659,0.0,0.0,-9.6874,-9.7758,0.0,0.0,0.0,0.0,0.0,0.0,0.0,0.0,0.0,0.0,-9.6086,0.0,0.0,0.0,0.0,-9.584,0.0,0.0,0.0,0.0,0.0,0.0,0.0,0.0,0.0,0.0,0.0,0.0,0.0,0.0,0.0,0.0,0.0,0.0,0.0,0.0,0.0,-10.2906,-10.2789,-10.3296,-10.4116,-10.5014,-10.5912,-10.6693,-10.759,-10.802,-10.802,-10.802,-10.802,-10.802,-10.802,-10.8488,-10.9308,-10.9308,-10.9699,-11.0401,-11.0518,-11.0987,-11.1689,-11.1689,-11.2314,-11.3095,-11.3095,-11.3095,-11.3017,-7.6713,-7.6638,-7.6375,-7.5511,-7.6075,-7.7201,-7.8891,-7.9304,0.0,0.0,0.0,0.0,0.0,-8.2417,-8.1894,0.0,0.0,-8.0619,-8.0308,-8.0586,0.0,-7.9904,-8.0443,-7.9867,0.0,0.0,-7.8027,0.0,0.0,0.0,0.0,0.0,0.0,0.0,0.0,-8.0748,0.0,0.0,0.0,0.0,0.0,-8.9929,-9.0222,0.0,0.0,-9.17,-9.3006,-9.4154,0.0,-9.582,-9.7214,-9.8454,-9.7538,-9.8838,-10.0276,-9.7903,-9.8015,0.0,0.0,0.0,-9.7048,-9.8315,0.0,0.0,0.0,0.0,0.0,0.0,0.0,0.0,0.0,0.0,0.0,0.0,0.0,0.0,0.0,0.0,0.0,0.0,0.0,0.0,0.0,0.0,0.0,0.0,0.0,0.0,0.0,-10.2711,-10.3491,-10.3218,-10.4584,-10.5795,-10.6693,-10.7005,-10.7395,-10.802,-10.7395,-10.7395,-10.802,-10.802,-10.8488,-10.9308,-10.9894,-11.0206,-11.0518,-11.1104,-11.1494,-11.1807,-11.1807,-11.2314,-11.3095,-11.3095,-11.3095,-11.29,-7.759,-7.7952,-7.7952,-7.6826,-7.6863,-7.7802,0.0,0.0,0.0,0.0,-8.376,0.0,-8.4339,0.0,-8.3161,0.0,-8.2198,-8.1995,-8.1988,-8.2249,0.0,-8.208,-8.2268,-8.1393,0.0,0.0,0.0,0.0,0.0,-7.854,0.0,0.0,0.0,0.0,0.0,-8.1097,-8.3205,0.0,-8.5436,0.0,0.0,-9.0955,0.0,0.0,-9.2291,-9.2986,0.0,-9.5351,-9.6305,-9.6706,-9.7881,-9.9057,-9.8129,-9.9177,-10.0289,-9.8252,-9.8248,-9.8714,-9.7898,-9.7665,0.0,-9.9522,-9.9947,0.0,-10.0118,0.0,-9.8552,0.0,0.0,0.0,0.0,0.0,0.0,0.0,0.0,0.0,0.0,0.0,0.0,0.0,0.0,0.0,0.0,0.0,0.0,0.0,0.0,0.0,0.0,0.0,-10.3413,-10.2789,-10.4506,-10.5717,-10.6185,-10.6888,-10.7395,-10.802,-10.728,-10.7303,-10.7889,-10.7889,-10.8318,-10.9215,-11.0115,-11.0714,-11.0987,-11.1611,-11.2002,-11.2197,-11.1885,-11.2314,-11.3095,-11.3095,-11.2704,-11.2002,-7.9016,-7.9041,-7.859,-7.7164,-7.7577,0.0,0.0,0.0,-8.3008,0.0,-8.5115,-8.5943,-8.576,-8.4352,-8.3392,-8.321,-8.2511,-8.2487,-8.3292,-8.4083,0.0,0.0,-8.4234,-8.3164,-8.1632,0.0,0.0,0.0,0.0,0.0,0.0,0.0,0.0,0.0,-7.9344,0.0,-8.2892,-8.2537,-8.4579,-8.806,-8.9314,-9.097,-9.2772,-9.3331,-9.3769,-9.4381,-9.622,-9.7415,-9.8348,-9.9432,-9.9802,-9.9802,-9.9802,-9.9258,-9.8636,-9.8597,-9.8015,-9.7548,-9.8287,-9.852,-9.8775,-9.9678,0.0,0.0,0.0,0.0,-9.8748,0.0,0.0,0.0,0.0,0.0,0.0,0.0,0.0,0.0,0.0,0.0,0.0,0.0,0.0,0.0,0.0,0.0,0.0,0.0,0.0,0.0,0.0,0.0,-10.2789,-10.2711,-10.4389,-10.5404,-10.5404,-10.7005,-10.7899,-10.8011,-10.7703,-10.7589,-10.7619,-10.7619,-10.8087,-10.9,-10.9996,-11.0982,-11.1807,-11.1807,-11.2392,-11.3017,-11.2197,-11.2314,-11.3017,-11.3017,-11.2002,-11.0401,-7.8303,-7.8215,-7.8853,0.0,-8.1407,-8.1482,0.0,0.0,0.0,0.0,-8.511,-8.4823,-8.4763,-8.4391,-8.3908,-8.3254,-8.3552,0.0,0.0,0.0,0.0,-8.2398,-8.4004,-8.387,-8.167,-8.2608,-8.2285,-8.0515,0.0,0.0,-8.0125,0.0,0.0,0.0,0.0,0.0,-8.4706,-8.5176,-8.7255,-9.0234,-9.0852,-9.2564,0.0,0.0,-9.6394,-9.7573,-9.7696,-9.844,-9.9432,-9.9712,-9.9802,-9.9802,-9.9802,-10.0112,-10.019,-9.9646,-9.9724,-9.9802,-9.8792,-9.8986,-9.9552,-9.9833,-10.0398,-10.0902,0.0,0.0,0.0,0.0,0.0,0.0,0.0,0.0,0.0,0.0,0.0,0.0,0.0,0.0,0.0,-8.651,0.0,0.0,0.0,0.0,0.0,0.0,0.0,0.0,0.0,0.0,0.0,-10.1891,-10.3491,-10.4702,-10.5404,-10.5795,-10.6617,-10.7689,-10.6981,-10.6887,-10.7316,-10.7316,-10.7918,-10.8913,-10.978,-11.0798,-11.1885,-11.2509,-11.29,-11.3095,-11.29,-11.2509,-11.208,-11.208,-11.1416,-11.0401,-7.9129,0.0,0.0,-8.242,0.0,0.0,-8.3254,0.0,0.0,-8.7369,-8.6341,0.0,-8.6449,-8.5558,-8.474,-8.4295,-8.4666,0.0,-8.4381,0.0,0.0,-8.3559,-8.4615,-8.4406,-8.2721,-8.3247,0.0,-8.1527,0.0,0.0,-8.0566,0.0,0.0,0.0,0.0,-8.3162,0.0,-8.7291,-8.9795,-9.236,-9.2439,0.0,0.0,-9.6542,-9.789,-9.9645,-9.946,-9.9796,-10.0384,-10.0812,-10.0889,-10.0889,-10.0889,-10.0889,-10.0889,-10.0501,-10.0384,-10.0307,-9.9763,-9.9957,-10.0279,-10.0395,-10.0483,-10.0708,-10.1201,-10.0286,-9.9435,0.0,0.0,0.0,0.0,0.0,0.0,0.0,0.0,0.0,0.0,0.0,0.0,0.0,-8.932,0.0,0.0,0.0,0.0,0.0,0.0,0.0,0.0,0.0,0.0,-10.2086,-10.3804,-10.4897,-10.5404,-10.6411,-10.721,-10.7589,-10.6904,-10.6679,-10.6998,-10.6998,-10.7391,-10.8211,-10.9191,-11.022,-11.1299,-11.2197,-11.2783,-11.3095,-11.2704,-11.2197,-11.1689,-11.0987,-11.0401,-10.9894,0.0,0.0,0.0,0.0,0.0,0.0,0.0,-8.586,0.0,-8.9045,0.0,-8.7341,-8.879,-8.7044,-8.5706,-8.5595,0.0,-8.6095,-8.6877,-8.6274,-8.5906,-8.6144,-8.561,-8.4915,-8.411,-8.3585,-8.3075,0.0,0.0,0.0,0.0,0.0,0.0,0.0,0.0,0.0,0.0,-8.9439,-9.2209,0.0,-9.3945,-9.5378,-9.7627,-9.7383,-9.8776,-10.078,-10.1179,-10.1317,-10.1317,-10.221,-10.2521,-10.2521,-10.2599,-10.2094,-10.1511,-10.1511,-10.0889,-10.0384,-10.1006,-10.12,-10.1084,-10.1006,-10.0617,-10.0291,-10.0981,-9.9999,-9.9159,-9.9937,-9.9506,-9.8748,0.0,0.0,0.0,0.0,0.0,0.0,0.0,0.0,0.0,0.0,0.0,0.0,0.0,0.0,0.0,0.0,0.0,0.0,0.0,0.0,0.0,-10.2593,-10.4116,0.0,-10.5305,0.0,-10.8109,-10.7704,-10.7115,-10.6824,-10.6697,-10.6785,-10.6912,-10.7312,-10.8483,-10.9589,-11.0596,-11.1611,-11.2392,-11.3017,-11.2314,-11.1807,-11.1494,-11.0011,-10.9308,-10.8996,0.0,0.0,0.0,0.0,0.0,-8.6487,-8.7601,-8.7802,-8.7995,-8.8442,-8.7508,-8.6895,-8.7192,-8.6858,-8.6301,-8.5669,-8.6189,0.0,0.0,0.0,0.0,-8.532,-8.5917,-8.5585,-8.411,-8.5237,-8.5498,0.0,0.0,0.0,0.0,0.0,0.0,0.0,0.0,0.0,-9.0094,-9.2848,0.0,-9.4694,-9.502,-9.6707,-9.8949,-9.8985,-9.9743,-10.1013,-10.2488,-10.2589,-10.221,-10.3104,-10.3415,-10.3492,-10.4191,-10.4308,-10.4191,-10.4191,-10.3609,-10.2793,-10.221,-10.2094,-10.1899,-10.12,-10.1394,-10.1705,-10.1184,-10.0921,-10.0581,-10.0107,-9.9943,-9.9645,-9.8916,0.0,0.0,0.0,0.0,0.0,0.0,0.0,0.0,0.0,0.0,-9.3146,0.0,0.0,0.0,0.0,0.0,0.0,0.0,0.0,0.0,0.0,-10.2008,0.0,0.0,0.0,-10.6486,-10.7981,-10.7215,-10.6688,-10.6487,-10.6705,-10.6912,-10.7312,-10.9106,-11.0096,-11.0596,-11.2197,-11.3017,-11.3095,-11.29,-11.2002,-11.0714,-11.0401,-10.9386,-10.8215,0.0,0.0,0.0,0.0,0.0,0.0,0.0,-8.8604,0.0,-8.9399,-8.8667,-8.8418,-8.9236,-8.8976,-8.8567,-8.8158,-8.8586,-8.8567,-8.7809,-8.7599,-8.7145,-8.6406,-8.6469,-8.6138,-8.5349,-8.5687,-8.6114,-8.6619,0.0,0.0,0.0,0.0,0.0,0.0,0.0,-9.2378,0.0,0.0,0.0,-9.5908,-9.6568,-9.7827,-9.9297,-9.9425,-10.031,-10.1594,-10.2514,-10.2888,-10.3104,-10.3997,-10.4308,-10.4308,-10.4813,-10.4891,-10.4891,-10.4891,-10.458,-10.4191,-10.3803,-10.3609,-10.3415,-10.2599,-10.2288,-10.221,-10.1783,-10.1401,-10.0981,-10.0699,-10.0292,-9.9683,-9.8522,-9.9392,0.0,0.0,0.0,0.0,0.0,0.0,0.0,0.0,0.0,0.0,0.0,0.0,0.0,0.0,0.0,0.0,0.0,0.0,0.0,0.0,0.0,0.0,0.0,0.0,0.0,-10.6686,-10.6189,-10.6102,-10.6405,-10.6488,-10.7089,-10.7894,-10.8916,-10.999,-11.1299,-11.2587,-11.3095,-11.3017,-11.208,-11.1182,-11.0401,-10.9503,-10.8684,-10.802,0.0,-8.6724,0.0,0.0,-8.8257,0.0,-8.8747,-8.907,-8.9533,-9.0164,-8.983,-9.0053,-9.1316,-9.087,-9.0499,-9.0499,-9.0695,-9.0522,-8.9882,-8.9518,-8.8981,-8.8186,-8.7435,-8.6964,-8.6776,-8.6175,-8.6442,0.0,0.0,0.0,0.0,0.0,0.0,0.0,0.0,0.0,0.0,0.0,-9.6976,-9.686,-9.775,-9.8678,-9.9568,-9.9696,-10.0712,-10.2098,-10.2397,-10.3094,-10.3997,-10.4891,-10.5202,-10.5202,-10.5396,-10.5396,-10.5396,-10.5396,-10.5279,-10.5202,-10.5202,-10.5007,-10.4697,-10.3997,-10.3415,-10.2909,-10.2909,-10.221,-10.1606,-10.1794,-10.1003,-9.9976,-9.8986,-9.9978,0.0,0.0,0.0,0.0,0.0,0.0,0.0,0.0,0.0,0.0,0.0,0.0,0.0,0.0,0.0,0.0,0.0,0.0,0.0,0.0,0.0,-10.4219,-10.3092,0.0,-10.618,0.0,-10.5409,-10.5597,-10.6097,-10.6621,-10.7392,-10.8516,-10.8887,-11.0213,-11.208,-11.2783,-11.3017,-11.2704,-11.1299,-11.0596,-11.0089,-10.8801,-10.8215,-10.802,0.0,0.0,0.0,0.0,0.0,0.0,-9.0117,-8.9719,-8.931,-8.9384,-8.9979,-9.0462,-9.061,-9.0536,-9.0499,-9.0499,-9.0695,-9.0814,-9.0856,-9.0924,-9.0659,-8.9977,-8.9179,-8.8428,-8.7715,-8.7602,-8.7445,0.0,0.0,-9.1125,0.0,0.0,0.0,0.0,0.0,0.0,0.0,-9.6938,-9.7518,-9.686,-9.775,-9.9065,-10.0512,-10.0587,-10.1215,-10.2215,-10.3096,-10.3987,-10.4891,-10.5784,-10.6095,-10.6212,-10.6911,-10.7183,-10.7183,-10.7183,-10.66,-10.6095,-10.6095,-10.5512,-10.4891,-10.4813,-10.4697,-10.4697,-10.4697,-10.3997,-10.3411,-10.3501,-10.2297,-10.1512,-10.2195,-10.0603,-9.99,0.0,0.0,0.0,0.0,0.0,-9.7284,-9.6503,0.0,0.0,0.0,0.0,0.0,0.0,0.0,0.0,0.0,0.0,0.0,-10.3497,0.0,-10.3302,-10.5202,-10.4683,-10.4696,-10.508,-10.5887,-10.5905,-10.531,-10.7098,-10.8083,-10.8606,-11.041,-11.1805,-11.3017,-11.3095,-11.2587,-11.1885,-11.1689,-11.0714,-10.9386,-10.9191,-10.8684,-10.802,0.0,0.0,0.0,0.0,0.0,0.0,0.0,-9.1093,-9.1502,-9.1502,-9.1799,-9.1985,-9.1985,-9.2876,-9.3434,-9.3434,-9.3635,-9.3797,-9.3949,-9.272,-9.2121,-9.2484,-9.0719,-8.9592,-8.9254,-8.8766,-8.8839,0.0,0.0,0.0,0.0,0.0,0.0,0.0,0.0,-9.6396,-9.5855,-9.7441,-9.7905,-9.7634,-9.8485,-9.9529,-10.0589,-10.062,-10.1211,-10.2215,-10.3081,-10.4105,-10.5007,-10.5901,-10.6522,-10.6989,-10.7299,-10.7416,-10.7416,-10.7416,-10.7183,-10.6911,-10.6911,-10.6717,-10.6289,-10.5784,-10.5707,-10.5512,-10.5007,-10.458,-10.4382,-10.4502,-10.331,-10.2014,-10.1294,-10.1718,-10.1891,0.0,0.0,0.0,0.0,0.0,0.0,-9.7037,0.0,-9.7466,0.0,0.0,0.0,0.0,0.0,0.0,0.0,0.0,0.0,-10.4188,0.0,-10.2695,-10.3907,-10.3591,-10.3812,-10.4405,-10.4713,-10.5213,-10.5905,-10.67,-10.7885,-10.9383,-11.1287,-11.2514,-11.3095,-11.2509,-11.208,-11.1689,-11.0714,-10.9894,-10.9191,-10.8684,-10.8293,-10.802,-9.0347,0.0,-9.0801,0.0,-9.078,-9.0685,-9.1167,-9.2245,-9.3174,-9.3619,-9.3917,-9.3954,-9.3731,-9.4734,-9.5403,-9.5403,-9.5603,-9.58,-9.5892,-9.4472,-9.3942,-9.4662,-9.2521,0.0,-9.132,-9.0268,-9.0077,-9.0764,-9.2556,0.0,0.0,-9.5118,0.0,0.0,-9.6783,-9.6667,-9.6474,-9.7634,-9.8098,-9.8176,-9.9259,-10.011,-10.0705,-10.1185,-10.1778,-10.2589,-10.3508,-10.4402,-10.5396,-10.6017,-10.6717,-10.7416,-10.7416,-10.7416,-10.7416,-10.7416,-10.7416,-10.7416,-10.7416,-10.7416,-10.7299,-10.6717,-10.66,-10.6406,-10.5784,-10.5512,-10.5198,-10.5008,-10.4104,-10.2913,-10.1183,-10.2407,-10.3101,-10.1305,0.0,0.0,0.0,-9.9567,0.0,0.0,-9.9242,-9.9343,-9.874,0.0,0.0,0.0,0.0,0.0,0.0,0.0,0.0,0.0,0.0,0.0,0.0,-10.3211,-10.3205,-10.3905,-10.4097,-10.4905,-10.5982,-10.6603,-10.8084,-11.0199,-11.1715,-11.2514,-11.2704,-11.208,-11.1494,-11.0909,-10.9816,-10.9113,-10.8801,-10.8215,-10.802,-10.802,-9.1646,-9.1184,-9.0759,-9.1539,-9.1019,-9.1056,-9.2728,-9.2988,-9.3582,-9.5143,-9.6071,-9.6257,-9.5477,-9.5403,-9.5403,-9.5403,-9.5698,-9.5892,-9.5892,-9.6206,-9.6359,0.0,0.0,-9.3948,-9.3948,-9.2296,-9.1057,-9.0193,0.0,0.0,-8.6019,-8.8577,-9.2321,-9.6783,-9.6783,-9.6319,-9.5623,-9.7363,-9.8098,-9.8253,-9.9916,-10.0613,-10.0783,-10.26,-10.3293,-10.3494,-10.4415,-10.5411,-10.6212,-10.6212,-10.6717,-10.7416,-10.7416,-10.7416,-10.7416,-10.7416,-10.7416,-10.7416,-10.7416,-10.7416,-10.7416,-10.7416,-10.7416,-10.7416,-10.7416,-10.6794,-10.6014,-10.5202,-10.4988,-10.4611,-10.3004,-10.2714,-10.2789,-10.2789,0.0,0.0,0.0,-10.15,0.0,-10.2289,-10.391,-10.4104,-10.2082,0.0,0.0,0.0,0.0,0.0,0.0,0.0,0.0,-10.5509,-10.2806,0.0,-10.629,-10.3905,-10.2981,-10.3905,-10.4713,-10.5097,-10.5194,-10.719,-10.9082,-11.1015,-11.1287,-11.1585,-11.1807,-11.1807,-11.0792,-10.9308,-10.9308,-10.8801,-10.802,-10.802,-10.802,-10.802,-9.171,-9.2017,-9.2468,-9.3248,-9.3174,-9.3397,-9.4474,-9.5105,-9.5626,-9.6146,-9.6963,-9.7595,-9.7892,-9.7446,-9.7112,0.0,-9.7312,-9.7442,0.0,-9.6755,-9.6567,-9.7252,-9.5713,-9.5075,-9.5638,-9.4023,-9.3047,-9.2784,0.0,0.0,0.0,-9.3697,-9.4721,-9.5081,-9.628,-9.6667,-9.6512,-9.8214,-9.9259,-9.9839,-10.038,-10.1309,-10.2392,-10.3003,-10.3607,-10.4301,-10.5186,-10.5812,-10.6188,-10.6821,-10.7183,-10.7416,-10.7416,-10.7416,-10.7416,-10.7416,-10.7416,-10.7416,-10.7416,-10.7416,-10.7416,-10.7416,-10.7416,-10.7416,-10.7416,-10.7183,-10.6792,-10.602,-10.5883,-10.5703,-10.4688,-10.4514,-10.4584,-10.4584,-10.4116,0.0,-10.2515,0.0,-10.1688,-10.0592,-10.0911,-10.0901,0.0,-10.1983,0.0,0.0,0.0,0.0,0.0,0.0,0.0,0.0,-10.3194,0.0,-10.4713,-10.3905,-10.3597,-10.3905,-10.4713,-10.5405,-10.5982,-10.7778,-10.9103,-10.988,-11.0605,-11.1099,-11.1408,-11.0316,-10.9594,-10.9191,-10.8605,-10.8215,-10.802,-10.802,-10.802,-10.802,-9.2988,-9.3545,-9.4065,-9.4548,-9.466,-9.492,-9.5737,-9.6294,-9.6814,-9.7446,-9.8003,-9.8672,-9.9452,-9.9118,0.0,-9.8925,-9.9022,-9.9225,-9.939,-9.8316,-9.7948,-9.8567,-9.7027,-9.6389,-9.6877,-9.5563,0.0,-9.4887,-9.466,-9.5021,-9.5981,-9.6806,-9.6801,-9.6164,-9.7247,-9.775,-9.7827,-9.922,-10.011,-10.069,-10.1309,-10.2199,-10.3282,-10.3901,-10.449,-10.5123,-10.6088,-10.6392,-10.6589,-10.7197,-10.7416,-10.7416,-10.7416,-10.7416,-10.7416,-10.7416,-10.7416,-10.7416,-10.7416,-10.7416,-10.7416,-10.7416,-10.7416,-10.7416,-10.7416,-10.7416,-10.7285,-10.6822,-10.6799,-10.6591,-10.5903,-10.5787,-10.5795,-10.5482,-10.5295,-10.4918,-10.3786,0.0,-10.2498,0.0,0.0,0.0,0.0,-10.2802,-10.3815,0.0,0.0,0.0,0.0,0.0,0.0,-10.4617,-10.2981,0.0,-10.4289,-10.4097,-10.4097,-10.4405,-10.5213,-10.5905,-10.6405,-10.7521,-10.8299,-10.8907,-10.941,-11.0005,-11.0394,-10.9303,-10.8894,-10.8801,-10.8215,-10.802,-10.802,-10.802,-10.802,-10.802,-9.5105,-9.544,0.0,0.0,-9.5588,0.0,-9.6666,-9.6814,-9.7409,-9.8969,-9.9192,-9.9489,-10.0307,-10.0381,-10.0524,-10.0773,0.0,0.0,0.0,-10.0499,-10.0181,-10.0181,-9.8679,-9.7853,-9.7853,-9.6952,-9.6464,-9.6396,-9.6419,-9.6911,-9.7845,-9.7914,-9.8421,-9.9251,-9.9359,-9.9413,-9.9452,-10.0303,-10.069,-10.0883,-10.2508,-10.3282,-10.3514,-10.51,-10.5821,-10.6014,-10.6902,-10.722,-10.7288,-10.7391,-10.7416,-10.7416,-10.7416,-10.7416,-10.7416,-10.7416,-10.7416,-10.7416,-10.7416,-10.7416,-10.7416,-10.7416,-10.7416,-10.7416,-10.7416,-10.7416,-10.7416,-10.7389,-10.7607,-10.7385,-10.6614,-10.6695,-10.6493,-10.5708,-10.5305,-10.5204,-10.5109,-10.4092,-10.4001,0.0,0.0,0.0,0.0,-10.5597,-10.5097,0.0,0.0,0.0,0.0,0.0,-10.4789,-10.3789,-10.2404,-10.2712,-10.4982,-10.4405,-10.4405,-10.5213,-10.602,-10.6405,-10.6405,-10.6521,-10.7085,-10.81,-10.81,-10.8386,-10.8897,-10.8819,-10.849,-10.802,-10.802,-10.802,-10.802,-10.802,-10.802,-10.802,0.0,0.0,-9.6331,-9.6331,-9.7372,-9.83,-9.8486,-9.9043,-9.9563,-9.9972,-10.0009,-10.0307,-10.1124,-10.1415,-10.1779,-10.2622,-10.1499,-10.0819,-10.089,-10.0998,-10.112,-10.112,-10.0106,-9.9543,-9.9543,-9.8116,-9.7065,-9.6396,-9.6781,-9.7063,-9.7313,-9.8069,-9.8539,-9.8803,-9.9845,-10.0303,-10.0303,-10.1193,-10.2005,-10.2585,-10.3011,-10.4017,-10.5177,-10.5605,-10.6216,-10.6789,-10.7206,-10.73,-10.7288,-10.7391,-10.7416,-10.7416,-10.7416,-10.7416,-10.7416,-10.7416,-10.7416,-10.7416,-10.7416,-10.7416,-10.7416,-10.7416,-10.7416,-10.7416,-10.7416,-10.7416,-10.7401,-10.7505,-10.7597,-10.7606,-10.7501,-10.7508,-10.7398,-10.7111,-10.6989,-10.668,-10.5811,-10.5509,-10.5088,0.0,-10.4001,-10.3482,-10.3213,-10.2789,-10.3097,0.0,0.0,0.0,0.0,-10.579,-10.5097,-10.2981,-10.4405,-10.4905,-10.4212,-10.529,-10.5905,-10.6097,-10.629,-10.6405,-10.6405,-10.7098,-10.7505,-10.7798,-10.7798,-10.8117,-10.851,-10.7888,-10.7806,-10.802,-10.802,-10.802,-10.802,-10.802,-10.802,-10.802,-9.6443,-9.7186,-9.7743,-9.7743,-9.882,-9.9638,-9.9638,-10.0009,-10.0418,-10.0789,-10.0789,-10.1198,-10.2015,-10.2232,-10.2597,-10.3112,-10.25,-10.2112,-10.2178,-10.2,-10.1909,-10.1909,-10.112,-10.0707,-10.0707,-9.9843,-9.898,-9.8116,-9.8334,-9.8196,-9.7712,-9.8869,-9.913,-9.8692,-10.0392,-10.0999,-10.069,-10.2005,-10.2779,-10.3282,-10.4017,-10.4906,-10.5719,-10.6192,-10.6704,-10.7099,-10.7178,-10.7286,-10.7288,-10.7391,-10.7416,-10.7416,-10.7416,-10.7416,-10.7416,-10.7416,-10.7416,-10.7416,-10.7416,-10.7416,-10.7416,-10.7416,-10.7416,-10.7416,-10.7416,-10.7416,-10.7401,-10.751,-10.7604,-10.7617,-10.7606,-10.7611,-10.7611,-10.7393,-10.7288,-10.7015,-10.6392,-10.5898,-10.5299,-10.4725,-10.3879,-10.3421,-10.3194,-10.2789,-10.2904,-10.3905,-10.4713,0.0,-10.529,-10.602,-10.5597,-10.3789,-10.5097,-10.5405,-10.4482,-10.5405,-10.602,-10.6405,-10.6405,-10.6405,-10.6405,-10.6905,-10.7098,-10.7098,-10.7098,-10.7293,-10.7619,-10.7288,-10.7393,-10.7794,-10.8002,-10.802,-10.802,-10.802,-10.802,-10.802,-9.8077,-9.882,-9.9266,-9.9266,-9.9935,-10.0492,-10.0492,-10.0604,-10.0901,-10.1607,-10.1718,-10.1978,-10.2683,-10.29,-10.3081,-10.3079,-10.3391,-10.3697,-10.3796,-10.3078,-10.281,-10.281,-10.2021,-10.1608,-10.1608,-10.1495,-10.1007,-10.0106,-10.0106,-9.9517,-9.8513,-9.9707,-9.9769,-9.8961,-10.0887,-10.1416,-10.0883,-10.2392,-10.3088,-10.3282,-10.4906,-10.5603,-10.5796,-10.6702,-10.7114,-10.7114,-10.7188,-10.7311,-10.7301,-10.7391,-10.7416,-10.7416,-10.7416,-10.7416,-10.7416,-10.7416,-10.7416,-10.7416,-10.7416,-10.7416,-10.7416,-10.7416,-10.7416,-10.7416,-10.7416,-10.7416,-10.7416,-10.7416,-10.7499,-10.7505,-10.7299,-10.7305,-10.7483,-10.7715,-10.7284,-10.7095,-10.7491,-10.6295,-10.5482,-10.5482,-10.4482,-10.3905,-10.3905,-10.3712,-10.3212,-10.252,-10.3789,-10.4482,-10.3905,-10.5405,-10.5905,-10.529,-10.529,-10.529,-10.529,-10.529,-10.5713,-10.6405,-10.6405,-10.6405,-10.6405,-10.6405,-10.6405,-10.6405,-10.6405,-10.6603,-10.6779,-10.7012,-10.7299,-10.7605,-10.7883,-10.8007,-10.802,-10.802,-10.802,-10.802,-9.9786,-10.0009,-10.0121,-10.0121,-10.0789,-10.131,-10.131,-10.1904,-10.2387,-10.2498,-10.2498,-10.2572,-10.29,-10.3077,-10.3288,-10.3496,-10.3697,-10.3688,-10.3593,-10.3576,-10.3598,-10.3598,-10.281,-10.2397,-10.2397,-10.1721,-10.1007,-10.0106,-10.0106,-9.968,-9.8832,-9.9432,-9.986,-10.0206,-10.0902,-10.1413,-10.1696,-10.2005,-10.2508,-10.3282,-10.421,-10.5022,-10.5796,-10.6688,-10.7114,-10.7188,-10.7311,-10.7301,-10.7404,-10.7416,-10.7416,-10.7416,-10.7416,-10.7416,-10.7416,-10.7416,-10.7416,-10.7416,-10.7416,-10.7416,-10.7416,-10.7416,-10.7416,-10.7416,-10.7416,-10.7416,-10.7416,-10.7416,-10.7389,-10.7389,-10.7184,-10.7197,-10.7883,-10.9604,-10.8796,-10.8577,-11.0513,-10.8793,-10.729,-10.729,-10.529,-10.3905,-10.3905,-10.2597,-10.1597,-10.152,-10.2404,-10.3289,-10.3905,-10.4789,-10.5597,-10.6213,-10.6213,-10.6213,-10.6213,-10.6213,-10.629,-10.6405,-10.6405,-10.6405,-10.6405,-10.6405,-10.6405,-10.6405,-10.6405,-10.6603,-10.6802,-10.6789,-10.721,-10.7597,-10.762,-10.7782,-10.802,-10.802,-10.802,-10.802,-10.0195,-10.0604,-10.0901,-10.0901,-10.1607,-10.2127,-10.2127,-10.2498,-10.2721,-10.2721,-10.2721,-10.2794,-10.2973,-10.3222,-10.3394,-10.3601,-10.3726,-10.3791,-10.3693,-10.3796,-10.3824,-10.3824,-10.341,-10.2997,-10.2584,-10.2209,-10.1383,-10.0106,-10.0106,-9.9468,-9.8266,-9.9179,-9.9403,-9.9098,-10.0494,-10.109,-10.1309,-10.2199,-10.2817,-10.3282,-10.4094,-10.4906,-10.5719,-10.6192,-10.672,-10.7183,-10.7192,-10.73,-10.7404,-10.7404,-10.7416,-10.7416,-10.7416,-10.7416,-10.7416,-10.7416,-10.7416,-10.7416,-10.7416,-10.7416,-10.7416,-10.7416,-10.7416,-10.7416,-10.7416,-10.7416,-10.7416,-10.7416,-10.7288,-10.7086,-10.689,-10.6905,-10.7315,-10.8608,-10.828,-10.8396,-10.9888,-10.8713,-10.7713,-10.7713,-10.5482,-10.4097,-10.4482,-10.2597,-10.152,-10.202,-10.2404,-10.3212,-10.4482,-10.4905,-10.5713,-10.7098,-10.6597,-10.6405,-10.6405,-10.6405,-10.6405,-10.6405,-10.6405,-10.6405,-10.6405,-10.6405,-10.6405,-10.6405,-10.6405,-10.6506,-10.6601,-10.689,-10.7184,-10.7412,-10.7689,-10.79,-10.802,-10.802,-10.802,-10.802,-10.0789,-10.1384,-10.1793,-10.1793,-10.2313,-10.2721,-10.2721,-10.2721,-10.2721,-10.2721,-10.2721,-10.2794,-10.2973,-10.3222,-10.3394,-10.3601,-10.3726,-10.3824,-10.3824,-10.3824,-10.3824,-10.3824,-10.3824,-10.341,-10.2584,-10.2584,-10.1796,-10.0106,-10.0106,-9.9355,-9.8003,-9.8998,-9.9005,-9.8378,-10.0097,-10.0923,-10.0811,-10.2283,-10.2895,-10.3011,-10.3784,-10.4519,-10.5216,-10.5603,-10.6192,-10.6789,-10.7096,-10.7206,-10.7288,-10.7391,-10.7416,-10.7416,-10.7416,-10.7416,-10.7416,-10.7416,-10.7416,-10.7416,-10.7416,-10.7416,-10.7416,-10.7416,-10.7416,-10.7416,-10.7416,-10.7416,-10.7416,-10.7416,-10.7206,-10.6905,-10.6705,-10.6602,-10.6909,-10.8081,-10.809,-10.8482,-10.9906,-10.8983,-10.8213,-10.7982,-10.5713,-10.4289,-10.4789,-10.2712,-10.1597,-10.2212,-10.252,-10.3212,-10.4482,-10.4713,-10.5482,-10.6982,-10.6597,-10.6405,-10.6405,-10.6405,-10.6405,-10.6405,-10.6405,-10.6405,-10.6405,-10.6405,-10.6405,-10.6405,-10.6405,-10.6405,-10.6389,-10.6905,-10.7081,-10.718,-10.7703,-10.7881,-10.802,-10.802,-10.802,-10.802,-10.2387,-10.261,-10.261,-10.261,-10.2721,-10.2721,-10.2721,-10.2721,-10.2721,-10.2721,-10.2721,-10.2794,-10.2973,-10.3222,-10.3394,-10.3601,-10.3726,-10.3824,-10.3824,-10.3824,-10.3824,-10.3824,-10.3824,-10.341,-10.2584,-10.2584,-10.1796,-10.0106,-10.0106,-9.9656,-9.8829,-9.8898,-9.9146,-9.9498,-10.0209,-10.071,-10.1096,-10.1722,-10.2005,-10.2082,-10.2895,-10.3282,-10.3591,-10.51,-10.5805,-10.6014,-10.6902,-10.7206,-10.7288,-10.7391,-10.7416,-10.7416,-10.7416,-10.7416,-10.7416,-10.7416,-10.7416,-10.7416,-10.7416,-10.7416,-10.7416,-10.7416,-10.7416,-10.7416,-10.7416,-10.7416,-10.7416,-10.7416,-10.7206,-10.6889,-10.6694,-10.6487,-10.7505,-11.041,-10.9678,-10.9906,-11.3214,-11.1483,-10.9713,-10.8906,-10.6597,-10.4713,-10.4097,-10.2404,-10.1289,-10.1404,-10.2097,-10.2712,-10.2789,-10.3482,-10.4405,-10.529,-10.602,-10.6405,-10.6405,-10.6405,-10.6405,-10.6405,-10.6405,-10.6405,-10.6405,-10.6405,-10.6405,-10.6405,-10.6405,-10.6405,-10.6387,-10.6684,-10.7018,-10.7207,-10.7489,-10.7814,-10.802,-10.802,-10.802,-10.802,-10.261,-10.2721,-10.2721,-10.2721,-10.2721,-10.2721,-10.2721,-10.2721,-10.2721,-10.2721,-10.2721,-10.2793,-10.3187,-10.3291,-10.3391,-10.3693,-10.3829,-10.3824,-10.3824,-10.3824,-10.3824,-10.3824,-10.3824,-10.3223,-10.1909,-10.1909,-10.1007,-9.9355,-9.9355,-9.9205,-9.8905,-9.8905,-9.9162,-9.9634,-10.0198,-10.0684,-10.1097,-10.1705,-10.1889,-10.1889,-10.2315,-10.2701,-10.3282,-10.4002,-10.4505,-10.5024,-10.5497,-10.5707,-10.5707,-10.5786,-10.5784,-10.5784,-10.5784,-10.5784,-10.5784,-10.5784,-10.5784,-10.5784,-10.5784,-10.66,-10.7416,-10.7416,-10.7416,-10.7416,-10.7416,-10.7313,-10.7217,-10.7217,-10.6813,-10.6411,-10.6292,-10.6189,-10.6907,-10.9191,-10.9178,-10.9713,-11.2099,-11.1214,-10.9906,-10.8983,-10.6713,-10.4982,-10.4713,-10.3097,-10.2289,-10.2904,-10.2712,-10.2789,-10.3405,-10.3712,-10.3982,-10.4289,-10.4713,-10.529,-10.6405,-10.6405,-10.6405,-10.6405,-10.6405,-10.6405,-10.6405,-10.6405,-10.6405,-10.6405,-10.6405,-10.6405,-10.6407,-10.6882,-10.708,-10.718,-10.7714,-10.791,-10.802,-10.802,-10.802,-10.802,-10.2721,-10.2721,-10.2721,-10.2721,-10.2721,-10.2721,-10.2721,-10.2721,-10.2721,-10.2721,-10.2721,-10.283,-10.3117,-10.3219,-10.3391,-10.3589,-10.3721,-10.3824,-10.3824,-10.3824,-10.3824,-10.3824,-10.3824,-10.2997,-10.142,-10.142,-10.0594,-9.8905,-9.8905,-9.8905,-9.8905,-9.8905,-9.9073,-9.9396,-10.0125,-10.0617,-10.0899,-10.1577,-10.1889,-10.1889,-10.1889,-10.2082,-10.2408,-10.2686,-10.2996,-10.3305,-10.4115,-10.4311,-10.4388,-10.4815,-10.4891,-10.4891,-10.4891,-10.4891,-10.4891,-10.4891,-10.4891,-10.4891,-10.4891,-10.5707,-10.6717,-10.6989,-10.6989,-10.7105,-10.7299,-10.7206,-10.7006,-10.7006,-10.6486,-10.6122,-10.6122,-10.5975,-10.6598,-10.8285,-10.8602,-10.9098,-11.0791,-11.0291,-10.9483,-10.8598,-10.6482,-10.4982,-10.4713,-10.3212,-10.2404,-10.302,-10.2789,-10.2904,-10.3482,-10.3789,-10.3789,-10.3482,-10.3789,-10.4597,-10.602,-10.602,-10.6097,-10.6405,-10.6405,-10.6405,-10.6405,-10.6405,-10.6405,-10.6405,-10.6405,-10.6405,-10.6389,-10.7018,-10.7222,-10.7309,-10.7814,-10.802,-10.802,-10.802,-10.802,-10.802,-10.2721,-10.2721,-10.2721,-10.2721,-10.2721,-10.2721,-10.2721,-10.2721,-10.2721,-10.2721,-10.2721,-10.2721,-10.2721,-10.3117,-10.3288,-10.3288,-10.3626,-10.3824,-10.3824,-10.3824,-10.3824,-10.3824,-10.3824,-10.2997,-10.142,-10.142,-10.0594,-9.8905,-9.8905,-9.8905,-9.8905,-9.8905,-9.8905,-9.8966,-9.9949,-10.0413,-10.0482,-10.1511,-10.1889,-10.1889,-10.1889,-10.1386,-10.069,-10.158,-10.1394,-10.0887,-10.2716,-10.3405,-10.36,-10.4595,-10.4891,-10.4891,-10.4891,-10.4891,-10.4891,-10.4891,-10.4891,-10.4891,-10.4891,-10.4891,-10.5085,-10.6017,-10.6212,-10.6406,-10.7183,-10.7206,-10.7006,-10.7006,-10.6486,-10.6122,-10.6122,-10.5975,-10.6598,-10.8285,-10.8103,-10.829,-10.9906,-10.9406,-10.8598,-10.779,-10.6097,-10.4789,-10.3982,-10.2289,-10.1289,-10.1289,-10.2097,-10.2597,-10.2597,-10.3405,-10.3482,-10.2597,-10.3405,-10.4289,-10.5097,-10.5097,-10.5482,-10.6405,-10.6405,-10.6405,-10.6405,-10.6405,-10.6405,-10.6405,-10.6405,-10.6405,-10.6389,-10.7018,-10.7183,-10.7309,-10.7814,-10.802,-10.802,-10.802,-10.802,-10.802,-10.2721,-10.2721,-10.2721,-10.2721,-10.2721,-10.2721,-10.2721,-10.2721,-10.2721,-10.2721,-10.2793,-10.301,-10.3114,-10.3397,-10.3489,-10.3622,-10.3721,-10.3824,-10.3824,-10.3824,-10.3824,-10.3824,-10.3824,-10.3298,-10.2284,-10.1683,-10.0895,-9.9731,-9.9205,-9.8905,-9.8905,-9.8905,-9.8905,-9.8935,-9.9563,-9.9999,-10.0383,-10.1096,-10.1581,-10.1812,-10.1193,-10.0806,-10.0589,-10.0286,-10.0408,-10.0785,-10.1414,-10.21,-10.2591,-10.3002,-10.3104,-10.3104,-10.3104,-10.3104,-10.3104,-10.3104,-10.3104,-10.3104,-10.3104,-10.3104,-10.3609,-10.5707,-10.5707,-10.5512,-10.6406,-10.5696,-10.5104,-10.5684,-10.5305,-10.5089,-10.5701,-10.5894,-10.6407,-10.748,-10.768,-10.7905,-10.8406,-10.8213,-10.7482,-10.5982,-10.4905,-10.3905,-10.3097,-10.252,-10.2212,-10.2212,-10.2981,-10.2981,-10.1789,-10.3097,-10.3482,-10.2597,-10.3405,-10.4289,-10.5097,-10.5097,-10.5482,-10.6405,-10.6405,-10.6405,-10.6405,-10.6405,-10.6405,-10.6405,-10.6405,-10.6488,-10.6723,-10.7104,-10.7288,-10.7489,-10.7889,-10.802,-10.802,-10.802,-10.802,-10.802,-10.2721,-10.2721,-10.2721,-10.2721,-10.2721,-10.2721,-10.2721,-10.2721,-10.2721,-10.2721,-10.283,-10.301,-10.3187,-10.3432,-10.3526,-10.3693,-10.3829,-10.3824,-10.3824,-10.3824,-10.3824,-10.3824,-10.3824,-10.3298,-10.2096,-10.1608,-10.082,-9.9618,-9.913,-9.8905,-9.8905,-9.8905,-9.8905,-9.8935,-9.9368,-9.9885,-10.0421,-10.0878,-10.1223,-10.1309,-10.0806,-10.0187,-9.9568,-9.9086,-9.926,-9.9834,-10.0186,-10.0987,-10.1813,-10.2198,-10.2288,-10.2288,-10.2288,-10.2288,-10.2288,-10.2288,-10.2288,-10.2288,-10.2288,-10.2288,-10.2793,-10.4697,-10.4813,-10.458,-10.5512,-10.4783,-10.4093,-10.471,-10.4275,-10.4081,-10.4616,-10.5089,-10.571,-10.6598,-10.6677,-10.6689,-10.7077,-10.6597,-10.579,-10.4789,-10.3905,-10.3212,-10.2712,-10.2289,-10.2097,-10.2097,-10.3212,-10.3097,-10.1404,-10.2981,-10.3289,-10.2097,-10.2904,-10.3789,-10.4597,-10.4905,-10.5482,-10.6405,-10.6097,-10.6097,-10.6405,-10.6405,-10.6405,-10.6405,-10.6405,-10.6603,-10.6796,-10.7106,-10.741,-10.7605,-10.7905,-10.802,-10.802,-10.802,-10.802,-10.802,-10.2721,-10.2721,-10.2721,-10.2721,-10.2721,-10.2721,-10.2721,-10.2721,-10.2721,-10.2721,-10.2684,-10.283,-10.3009,-10.3184,-10.3428,-10.3597,-10.3688,-10.3824,-10.3824,-10.3824,-10.3824,-10.3824,-10.3824,-10.2997,-10.142,-10.142,-10.0594,-9.9017,-9.8942,-9.8905,-9.8905,-9.8905,-9.8905,-9.8935,-9.9349,-9.9834,-10.0421,-10.0798,-10.0802,-10.0613,-10.038,-9.9452,-9.8098,-9.8098,-9.8239,-9.8518,-9.9371,-10.0315,-10.1188,-10.2016,-10.2288,-10.2288,-10.2288,-10.2288,-10.2288,-10.2288,-10.2288,-10.2288,-10.2288,-10.2288,-10.2521,-10.3298,-10.3492,-10.3686,-10.458,-10.428,-10.3823,-10.39,-10.3507,-10.3087,-10.3202,-10.3909,-10.4814,-10.5595,-10.5191,-10.5106,-10.5903,-10.4713,-10.3789,-10.3712,-10.2981,-10.252,-10.252,-10.1789,-10.1289,-10.1289,-10.2904,-10.3097,-10.1404,-10.302,-10.3212,-10.152,-10.2289,-10.3097,-10.3905,-10.4482,-10.5405,-10.629,-10.5482,-10.5482,-10.629,-10.629,-10.629,-10.6405,-10.6405,-10.6583,-10.6905,-10.7119,-10.742,-10.7706,-10.7905,-10.802,-10.802,-10.802,-10.802,-10.802,-10.2721,-10.2721,-10.2721,-10.2721,-10.2721,-10.2721,-10.2721,-10.2721,-10.2721,-10.2721,-10.2793,-10.3009,-10.3184,-10.3391,-10.3597,-10.3688,-10.3791,-10.3824,-10.3824,-10.3824,-10.3824,-10.3824,-10.3824,-10.2997,-10.142,-10.142,-10.0895,-9.9843,-9.9205,-9.8905,-9.8905,-9.8905,-9.8905,-9.8905,-9.902,-9.9535,-10.0398,-9.9778,-9.9961,-10.0496,-9.9181,-9.8408,-9.8098,-9.8098,-9.8544,-9.9289,-10.0197,-10.1091,-10.1995,-10.2187,-10.2288,-10.2288,-10.2288,-10.2288,-10.2288,-10.2288,-10.2288,-10.2288,-10.2288,-10.2288,-10.2288,-10.2521,-10.2599,-10.2793,-10.3686,-10.2886,-10.2202,-10.2897,-10.2585,-10.24,-10.3087,-10.3397,-10.3581,-10.3895,-10.392,-10.3779,-10.3301,-10.2998,-10.2597,-10.1904,-10.1712,-10.1597,-10.1597,-10.1404,-10.1289,-10.1289,-10.2904,-10.3097,-10.1404,-10.3597,-10.4097,-10.2404,-10.3212,-10.3712,-10.3905,-10.3405,-10.3905,-10.5405,-10.5213,-10.5213,-10.5405,-10.5405,-10.579,-10.6405,-10.6405,-10.6691,-10.7094,-10.7197,-10.75,-10.791,-10.8011,-10.802,-10.802,-10.802,-10.802,-10.802,-10.2721,-10.2721,-10.2721,-10.2721,-10.2721,-10.2721,-10.2721,-10.2721,-10.2721,-10.2721,-10.2794,-10.301,-10.3291,-10.3394,-10.3489,-10.3791,-10.3824,-10.3824,-10.3824,-10.3824,-10.3824,-10.3824,-10.3824,-10.2997,-10.142,-10.142,-10.082,-9.9543,-9.913,-9.8905,-9.8905,-9.8905,-9.8905,-9.8905,-9.8905,-9.9103,-9.9428,-9.9188,-9.9086,-9.9034,-9.8346,-9.7866,-9.7518,-9.7943,-9.8646,-9.9507,-10.0507,-10.1414,-10.2279,-10.2315,-10.2288,-10.2288,-10.2288,-10.2288,-10.2288,-10.2288,-10.2288,-10.2288,-10.2288,-10.2288,-10.2288,-10.2288,-10.2288,-10.2404,-10.2909,-10.2189,-10.1585,-10.2009,-10.1702,-10.1406,-10.1903,-10.2294,-10.2708,-10.27,-10.2813,-10.2807,-10.2491,-10.2092,-10.1806,-10.1385,-10.1289,-10.1289,-10.1289,-10.1289,-10.1289,-10.1289,-10.252,-10.2712,-10.1404,-10.2981,-10.3289,-10.202,-10.2789,-10.3289,-10.3289,-10.3212,-10.3482,-10.3905,-10.3905,-10.4289,-10.5097,-10.5097,-10.5597,-10.6405,-10.6507,-10.6796,-10.7183,-10.731,-10.7605,-10.802,-10.802,-10.802,-10.802,-10.802,-10.802,-10.802,-10.2721,-10.2721,-10.2721,-10.2721,-10.2721,-10.2721,-10.2721,-10.2721,-10.2721,-10.2721,-10.2721,-10.2903,-10.3291,-10.3432,-10.3493,-10.3791,-10.3824,-10.3824,-10.3824,-10.3824,-10.3824,-10.3824,-10.3824,-10.311,-10.1608,-10.1495,-10.0594,-9.8905,-9.8905,-9.8905,-9.8905,-9.8905,-9.8905,-9.8905,-9.8905,-9.8702,-9.8447,-9.8725,-9.8308,-9.7421,-9.7726,-9.7441,-9.6899,-9.7905,-9.8762,-9.9517,-10.0623,-10.1595,-10.2288,-10.2288,-10.2288,-10.2288,-10.2288,-10.2288,-10.2288,-10.2288,-10.2288,-10.2288,-10.2288,-10.2288,-10.2288,-10.2288,-10.2288,-10.2288,-10.2288,-10.1918,-10.1508,-10.1508,-10.1011,-10.0604,-10.0604,-10.1215,-10.1697,-10.1775,-10.1897,-10.1887,-10.2121,-10.1587,-10.1188,-10.1288,-10.1308,-10.1289,-10.1289,-10.1289,-10.1289,-10.1289,-10.2097,-10.2212,-10.1289,-10.2097,-10.2212,-10.1289,-10.202,-10.2404,-10.2404,-10.3097,-10.3097,-10.2404,-10.2404,-10.329,-10.5024,-10.4906,-10.5485,-10.6507,-10.6701,-10.698,-10.7305,-10.7489,-10.7801,-10.802,-10.802,-10.802,-10.802,-10.802,-10.802,-10.802,-10.2721,-10.2721,-10.2721,-10.2721,-10.2721,-10.2721,-10.2721,-10.2721,-10.2721,-10.2721,-10.2721,-10.2903,-10.3291,-10.3597,-10.3796,-10.3824,-10.3824,-10.3824,-10.3824,-10.3824,-10.3824,-10.3824,-10.3824,-10.341,-10.2509,-10.1796,-10.0594,-9.8905,-9.8905,-9.8905,-9.8905,-9.8905,-9.8905,-9.8905,-9.8905,-9.8702,-9.8409,-9.8116,-9.7751,-9.7364,-9.7086,-9.6899,-9.6976,-9.8562,-9.922,-9.9521,-10.1307,-10.21,-10.2288,-10.2288,-10.2288,-10.2288,-10.2288,-10.2288,-10.2288,-10.2288,-10.2288,-10.2288,-10.2288,-10.2288,-10.2288,-10.2288,-10.2288,-10.2288,-10.2288,-10.1918,-10.1508,-10.1508,-10.1011,-10.0604,-10.0604,-10.0718,-10.0795,-10.0818,-10.091,-10.1,-10.0984,-10.0995,-10.1102,-10.1188,-10.1307,-10.1289,-10.1289,-10.1289,-10.1289,-10.1289,-10.2097,-10.2212,-10.1289,-10.2097,-10.2212,-10.1289,-10.1404,-10.152,-10.152,-10.1597,-10.1597,-10.152,-10.152,-10.2518,-10.4399,-10.4195,-10.5224,-10.7092,-10.6913,-10.7106,-10.7516,-10.758,-10.7801,-10.802,-10.802,-10.802,-10.802,-10.802,-10.802,-10.802,-10.2721,-10.2721,-10.2721,-10.2721,-10.2721,-10.2721,-10.2721,-10.2721,-10.2721,-10.2721,-10.2794,-10.2973,-10.3291,-10.3593,-10.3824,-10.3824,-10.3824,-10.3824,-10.3824,-10.3824,-10.3824,-10.3824,-10.3824,-10.341,-10.2584,-10.1796,-10.082,-9.958,-9.913,-9.8905,-9.8905,-9.8905,-9.8905,-9.8905,-9.8416,-9.7892,-9.7243,-9.6906,-9.657,-9.6284,-9.6358,-9.659,-9.6938,-9.8176,-9.867,-9.8922,-10.0819,-10.1815,-10.2288,-10.2288,-10.2288,-10.221,-10.1705,-10.1589,-10.1511,-10.1006,-10.0889,-10.0889,-10.0889,-10.0889,-10.1006,-10.1511,-10.1589,-10.1705,-10.221,-10.1918,-10.1508,-10.1508,-10.1011,-10.0604,-10.0604,-10.0604,-10.0604,-10.0604,-10.0612,-10.0696,-10.0825,-10.0908,-10.0919,-10.1102,-10.1206,-10.121,-10.121,-10.1288,-10.1289,-10.1289,-10.1712,-10.1712,-10.1289,-10.1712,-10.1712,-10.1289,-10.1289,-10.1289,-10.1289,-10.1289,-10.1289,-10.1289,-10.1514,-10.2207,-10.3591,-10.4005,-10.4993,-10.6522,-10.6986,-10.7392,-10.7597,-10.7801,-10.79,-10.802,-10.802,-10.802,-10.802,-10.802,-10.802,-10.802]},{"header":{"parameterUnit":"m.s-1","parameterCategory":1,"la1":30.6,"la2":28.766,"lo1":-90.7593,"lo2":-88.6598,"dx":0.0162,"dy":0.0183,"nx":116,"ny":114,"refTime":"2022-12-26T06:00:00:Z","depth":0,"parameterNumber":3,"parameterNumberName":"V-component_of_WINDS"},"data":[0.0,0.0,0.0,0.0,0.0,0.0,0.0,0.0,0.0,0.0,0.0,0.0,0.0,0.0,0.0,0.0,0.0,0.0,0.0,0.0,0.0,0.0,0.0,0.0,0.0,0.0,0.0,0.0,0.0,0.0,0.0,0.0,0.0,0.0,0.0,0.0,0.0,0.0,0.0,0.0,0.0,0.0,0.0,0.0,0.0,0.0,0.0,0.0,0.0,0.0,0.0,0.0,0.0,0.0,0.0,0.0,0.0,0.0,0.0,0.0,0.0,0.0,0.0,0.0,0.0,0.0,0.0,0.0,0.0,0.0,0.0,0.0,0.0,0.0,0.0,0.0,0.0,0.0,0.0,0.0,0.0,0.0,0.0,0.0,0.0,0.0,0.0,0.0,0.0,0.0,0.0,0.0,0.0,0.0,0.0,0.0,0.0,0.0,0.0,0.0,0.0,0.0,0.0,0.0,0.0,0.0,0.0,0.0,0.0,0.0,0.0,0.0,0.0,0.0,0.0,0.0,0.0,0.0,0.0,0.0,0.0,0.0,0.0,0.0,0.0,0.0,0.0,0.0,0.0,0.0,0.0,0.0,0.0,0.0,0.0,0.0,0.0,0.0,0.0,0.0,0.0,0.0,0.0,0.0,0.0,0.0,0.0,0.0,0.0,0.0,0.0,0.0,0.0,0.0,0.0,0.0,0.0,0.0,0.0,0.0,0.0,0.0,0.0,0.0,0.0,0.0,0.0,0.0,0.0,0.0,0.0,0.0,0.0,0.0,0.0,0.0,0.0,0.0,0.0,0.0,0.0,0.0,0.0,0.0,0.0,0.0,0.0,0.0,0.0,0.0,0.0,0.0,0.0,0.0,0.0,0.0,0.0,0.0,0.0,0.0,0.0,0.0,0.0,0.0,0.0,0.0,0.0,0.0,0.0,0.0,0.0,0.0,0.0,0.0,0.0,0.0,0.0,0.0,0.0,0.0,0.0,0.0,0.0,0.0,0.0,0.0,0.0,0.0,0.0,0.0,0.0,0.0,0.0,0.0,0.0,0.0,0.0,0.0,0.0,0.0,0.0,0.0,0.0,0.0,0.0,0.0,0.0,0.0,0.0,0.0,0.0,0.0,0.0,0.0,0.0,0.0,0.0,0.0,0.0,0.0,0.0,0.0,0.0,0.0,0.0,0.0,0.0,0.0,0.0,0.0,0.0,0.0,0.0,0.0,0.0,0.0,0.0,0.0,0.0,0.0,0.0,0.0,0.0,0.0,0.0,0.0,0.0,0.0,0.0,0.0,0.0,0.0,0.0,0.0,0.0,0.0,0.0,0.0,0.0,0.0,0.0,0.0,0.0,0.0,0.0,0.0,0.0,0.0,0.0,0.0,0.0,0.0,0.0,0.0,0.0,0.0,0.0,0.0,0.0,0.0,0.0,0.0,0.0,0.0,0.0,0.0,0.0,0.0,0.0,0.0,0.0,0.0,0.0,0.0,0.0,0.0,0.0,0.0,0.0,0.0,0.0,0.0,0.0,0.0,0.0,0.0,0.0,0.0,0.0,0.0,0.0,0.0,0.0,0.0,0.0,0.0,0.0,0.0,0.0,0.0,0.0,0.0,0.0,0.0,0.0,0.0,0.0,0.0,0.0,0.0,0.0,0.0,0.0,0.0,0.0,0.0,0.0,0.0,0.0,0.0,0.0,0.0,0.0,0.0,0.0,0.0,0.0,0.0,0.0,0.0,0.0,0.0,0.0,0.0,0.0,0.0,0.0,0.0,0.0,0.0,0.0,0.0,0.0,0.0,0.0,0.0,0.0,0.0,0.0,0.0,0.0,0.0,0.0,0.0,0.0,0.0,0.0,0.0,0.0,0.0,0.0,0.0,0.0,0.0,0.0,0.0,0.0,0.0,0.0,0.0,0.0,0.0,0.0,0.0,0.0,0.0,0.0,0.0,0.0,0.0,0.0,0.0,0.0,0.0,0.0,0.0,0.0,0.0,0.0,0.0,0.0,0.0,0.0,0.0,0.0,0.0,0.0,0.0,0.0,0.0,0.0,0.0,0.0,0.0,0.0,0.0,0.0,0.0,0.0,0.0,0.0,0.0,0.0,0.0,0.0,0.0,0.0,0.0,0.0,0.0,0.0,0.0,0.0,0.0,0.0,0.0,0.0,0.0,0.0,0.0,0.0,0.0,0.0,0.0,0.0,0.0,0.0,0.0,0.0,0.0,0.0,0.0,0.0,0.0,0.0,0.0,0.0,0.0,0.0,0.0,0.0,0.0,0.0,0.0,0.0,0.0,0.0,0.0,0.0,0.0,0.0,0.0,0.0,0.0,0.0,0.0,0.0,0.0,0.0,0.0,0.0,0.0,0.0,0.0,0.0,0.0,0.0,0.0,0.0,0.0,0.0,0.0,0.0,0.0,0.0,0.0,0.0,0.0,0.0,0.0,0.0,0.0,0.0,0.0,0.0,0.0,0.0,0.0,0.0,0.0,0.0,0.0,0.0,0.0,0.0,0.0,0.0,0.0,0.0,0.0,0.0,0.0,0.0,0.0,0.0,0.0,0.0,0.0,0.0,0.0,0.0,0.0,0.0,0.0,0.0,0.0,0.0,0.0,0.0,0.0,0.0,0.0,0.0,0.0,0.0,0.0,0.0,0.0,0.0,0.0,0.0,0.0,0.0,0.0,0.0,0.0,0.0,0.0,0.0,0.0,0.0,0.0,0.0,0.0,0.0,0.0,0.0,0.0,0.0,0.0,0.0,0.0,0.0,0.0,0.0,0.0,0.0,0.0,0.0,0.0,0.0,0.0,0.0,0.0,0.0,0.0,0.0,0.0,0.0,0.0,0.0,0.0,0.0,0.0,0.0,0.0,0.0,0.0,0.0,0.0,0.0,0.0,0.0,0.0,0.0,0.0,0.0,0.0,0.0,0.0,0.0,0.0,0.0,0.0,0.0,0.0,0.0,0.0,0.0,0.0,0.0,0.0,0.0,0.0,0.0,0.0,0.0,0.0,0.0,0.0,0.0,0.0,0.0,0.0,0.0,0.0,0.0,0.0,0.0,0.0,0.0,0.0,0.0,0.0,0.0,0.0,0.0,0.0,0.0,0.0,0.0,0.0,0.0,0.0,0.0,0.0,0.0,0.0,0.0,0.0,0.0,0.0,0.0,0.0,0.0,0.0,0.0,0.0,0.0,0.0,0.0,0.0,0.0,0.0,0.0,0.0,0.0,0.0,0.0,0.0,0.0,0.0,0.0,0.0,0.0,0.0,0.0,0.0,0.0,0.0,0.0,0.0,0.0,0.0,0.0,0.0,0.0,0.0,0.0,0.0,0.0,0.0,0.0,0.0,0.0,0.0,0.0,0.0,0.0,0.0,0.0,0.0,0.0,0.0,0.0,0.0,0.0,0.0,0.0,0.0,0.0,0.0,0.0,0.0,0.0,0.0,0.0,0.0,0.0,0.0,0.0,0.0,0.0,0.0,0.0,0.0,0.0,0.0,0.0,0.0,0.0,0.0,0.0,0.0,0.0,0.0,0.0,0.0,0.0,0.0,0.0,0.0,0.0,0.0,0.0,0.0,0.0,0.0,0.0,0.0,0.0,0.0,0.0,0.0,0.0,0.0,0.0,0.0,0.0,0.0,0.0,0.0,0.0,0.0,0.0,0.0,0.0,0.0,0.0,0.0,0.0,0.0,0.0,0.0,0.0,0.0,0.0,0.0,0.0,0.0,0.0,0.0,0.0,0.0,0.0,0.0,0.0,0.0,0.0,0.0,0.0,0.0,0.0,0.0,0.0,0.0,0.0,0.0,0.0,0.0,0.0,0.0,0.0,0.0,0.0,0.0,0.0,0.0,0.0,0.0,0.0,0.0,0.0,0.0,0.0,0.0,0.0,0.0,0.0,0.0,0.0,0.0,0.0,0.0,0.0,0.0,0.0,0.0,0.0,0.0,0.0,0.0,0.0,0.0,0.0,0.0,0.0,0.0,0.0,0.0,0.0,0.0,0.0,0.0,0.0,0.0,0.0,0.0,0.0,0.0,0.0,0.0,0.0,0.0,0.0,0.0,0.0,0.0,0.0,0.0,0.0,0.0,0.0,0.0,0.0,0.0,0.0,0.0,0.0,0.0,0.0,0.0,0.0,0.0,0.0,0.0,0.0,0.0,0.0,0.0,0.0,0.0,0.0,0.0,0.0,0.0,0.0,0.0,0.0,0.0,0.0,0.0,0.0,0.0,0.0,0.0,0.0,0.0,0.0,0.0,0.0,0.0,0.0,0.0,0.0,0.0,0.0,0.0,0.0,0.0,0.0,0.0,0.0,0.0,0.0,0.0,0.0,0.0,0.0,0.0,0.0,0.0,0.0,0.0,0.0,0.0,0.0,0.0,0.0,0.0,0.0,0.0,0.0,0.0,0.0,0.0,0.0,0.0,0.0,0.0,0.0,0.0,0.0,0.0,0.0,0.0,0.0,0.0,0.0,0.0,0.0,0.0,0.0,0.0,0.0,0.0,0.0,0.0,0.0,0.0,0.0,0.0,0.0,0.0,0.0,0.0,0.0,0.0,0.0,0.0,0.0,0.0,0.0,0.0,0.0,0.0,0.0,0.0,0.0,0.0,0.0,0.0,0.0,0.0,0.0,0.0,0.0,0.0,0.0,0.0,0.0,0.0,0.0,0.0,0.0,0.0,0.0,0.0,0.0,0.0,0.0,0.0,0.0,0.0,0.0,0.0,0.0,0.0,0.0,0.0,0.0,0.0,0.0,0.0,0.0,0.0,0.0,0.0,0.0,0.0,0.0,0.0,0.0,0.0,0.0,0.0,0.0,0.0,0.0,0.0,0.0,0.0,0.0,0.0,0.0,0.0,0.0,0.0,0.0,0.0,0.0,0.0,0.0,0.0,0.0,0.0,0.0,0.0,0.0,0.0,0.0,0.0,0.0,0.0,0.0,0.0,0.0,0.0,0.0,0.0,0.0,0.0,0.0,0.0,0.0,0.0,0.0,0.0,0.0,0.0,0.0,0.0,0.0,0.0,0.0,0.0,0.0,0.0,0.0,0.0,0.0,0.0,0.0,0.0,0.0,0.0,0.0,0.0,0.0,0.0,0.0,0.0,0.0,0.0,0.0,0.0,0.0,0.0,0.0,0.0,0.0,0.0,0.0,0.0,0.0,0.0,0.0,0.0,0.0,0.0,0.0,0.0,0.0,0.0,0.0,0.0,0.0,0.0,0.0,0.0,0.0,0.0,0.0,0.0,0.0,0.0,0.0,0.0,0.0,0.0,0.0,0.0,0.0,0.0,0.0,0.0,0.0,0.0,0.0,0.0,0.0,0.0,0.0,0.0,0.0,0.0,0.0,0.0,0.0,0.0,0.0,0.0,0.0,0.0,0.0,0.0,0.0,0.0,0.0,0.0,0.0,0.0,0.0,0.0,0.0,0.0,0.0,0.0,0.0,0.0,0.0,0.0,0.0,0.0,0.0,0.0,0.0,0.0,0.0,0.0,0.0,0.0,0.0,0.0,0.0,0.0,0.0,0.0,0.0,0.0,0.0,0.0,0.0,0.0,0.0,0.0,0.0,0.0,0.0,0.0,0.0,0.0,0.0,0.0,0.0,0.0,0.0,0.0,0.0,0.0,0.0,0.0,0.0,0.0,0.0,0.0,0.0,0.0,0.0,0.0,0.0,0.0,0.0,0.0,0.0,0.0,0.0,0.0,0.0,0.0,0.0,0.0,0.0,0.0,0.0,0.0,0.0,0.0,0.0,0.0,0.0,0.0,0.0,0.0,0.0,0.0,0.0,0.0,0.0,0.0,0.0,0.0,0.0,0.0,0.0,0.0,0.0,0.0,0.0,0.0,0.0,0.0,0.0,0.0,0.0,0.0,0.0,0.0,0.0,0.0,0.0,0.0,0.0,0.0,0.0,0.0,0.0,0.0,0.0,0.0,0.0,0.0,0.0,0.0,0.0,0.0,0.0,0.0,0.0,0.0,0.0,0.0,0.0,0.0,0.0,0.0,0.0,0.0,0.0,0.0,0.0,0.0,0.0,0.0,0.0,0.0,0.0,0.0,0.0,0.0,0.0,0.0,0.0,0.0,0.0,0.0,0.0,0.0,0.0,0.0,0.5033,0.0,0.0,0.0,0.0,0.0,0.0,0.0,0.0,0.0,0.0,0.0,0.0,0.0,0.0,0.0,0.0,0.0,0.0,0.0,0.0,0.0,0.0,0.0,0.0,0.1306,0.1311,0.1325,0.1369,0.0,0.0,0.0,0.0,0.0,0.0,0.0,0.0,0.0,0.2273,0.2567,0.2531,0.2811,0.3439,0.3324,0.3366,0.345,0.0,0.0,0.0,0.0,0.0,0.0,0.0,0.0,0.0,0.0,0.0,0.0,0.0,0.0,0.0,0.0,0.0,0.0,0.0,0.0,0.0,0.0,0.0,0.0,0.0,0.0,0.0,0.0,0.0,0.0,0.0,0.0,0.0,0.0,0.0,0.0,0.0,0.0,0.0,0.0,0.0,0.0,0.0,0.0,0.0,0.0,0.0,0.0,0.0,0.0,0.0,0.0,0.0,0.0,0.0,0.0,0.0,0.0,0.0,0.0,0.0,0.0,0.0,0.0,0.0,0.0,0.0,0.0,0.0,0.0,0.0,0.4829,0.0,0.0,0.0,0.0,0.0,0.0,0.0,0.0,0.0,0.0,0.0,0.0,0.0,0.0,0.0,0.0,0.0,0.0,0.0,0.0,0.0,0.1024,0.1242,0.1247,0.1301,0.1411,0.1414,0.1425,0.1404,0.141,0.0,0.0,0.0,0.0,0.0,0.1984,0.2162,0.2484,0.2594,0.2876,0.3223,0.3334,0.342,0.3474,0.326,0.0,0.0,0.0,0.0,0.0,0.0,0.0,0.0,0.0,0.0,0.0,0.0,0.0,0.0,0.0,0.0,0.0,0.0,0.0,0.0,0.0,0.0,0.0,0.0,0.0,0.0,0.0,0.0,0.0,0.0,0.0,0.0,0.0,0.0,0.0,0.0,0.0,0.0,0.0,0.0,0.0,0.0,0.0,0.0,0.0,0.0,0.0,0.0,0.0,0.0,0.0,0.0,0.0,0.0,0.0,0.0,0.0,0.0,0.0,0.0,0.0,0.0,0.0,0.0737,0.0985,0.1797,0.0903,0.1069,0.205,0.2497,0.3516,0.4783,0.5042,0.0,0.0,0.0,0.0,0.0,0.0,0.0,0.0,0.0,0.0,0.0,0.0,0.0,0.0,0.0,0.0,0.0,0.0,0.0,0.0851,0.1095,0.1115,0.1222,0.1461,0.1508,0.1509,0.1466,0.1539,0.0,0.0,0.0,0.0,0.1747,0.1732,0.1957,0.2335,0.2819,0.2906,0.2635,0.2995,0.3295,0.347,0.2739,0.1934,0.1088,0.0,0.0,0.0,0.0,0.0,0.0,0.0,0.0,0.0,0.0,0.0,0.0,0.0,0.0,0.0,0.0,0.0,0.0,0.0,0.0,0.0,0.0,0.0,0.0,0.0,0.0,0.0,0.0,0.0,0.0,0.0,0.0,0.0,0.0,0.0,0.0,0.0,0.0,0.0,0.0,0.0,-0.1472,-0.1434,0.0,0.0,0.0,0.0,0.0,0.0,0.0,0.0,0.0,0.0,0.0,0.0,0.0,-0.198,-0.0716,-0.1805,-0.124,0.1138,-0.1185,-0.1622,-0.0419,-0.1709,-0.1552,-0.0258,0.103,0.0,0.3596,0.5463,0.0,0.0,0.0,0.0,0.0,0.0,0.0,0.0,0.0,0.0,0.0,0.0,0.0,0.0,0.0,0.0,0.0,0.0,0.0,0.0,0.0,0.0877,0.0945,0.1117,0.1129,0.1182,0.1324,0.1396,0.0,0.0,0.0,0.1705,0.1737,0.1782,0.1908,0.2123,0.2423,0.255,0.2621,0.3056,0.2744,0.1808,0.1664,0.1623,0.1559,0.1354,0.0,0.0,0.0,0.0,0.0,0.0,0.0,0.0,0.0,0.0,0.0,0.0,0.0,0.0,0.0,0.0,0.0,0.0,0.0,0.0,0.0,0.0,0.0,0.0,0.0,0.0,0.0,0.0,0.0,0.0,0.0,0.0,0.0,0.0,0.0,0.0,0.0,0.0,0.0,-0.2071,-0.2144,-0.2016,-0.2139,-0.2215,0.0,0.0,0.0,0.0,0.0,0.0,0.0,0.0,0.0,-0.2567,-0.2594,-0.2386,-0.1845,-0.2469,-0.2126,-0.1004,-0.2234,-0.2501,-0.1869,-0.2504,-0.157,0.0526,0.1139,0.2681,0.4654,0.5575,0.5993,0.5996,0.0,0.0,0.0,0.0,0.5523,0.5534,0.0,0.0,0.0,0.0,0.0,0.0,0.0,0.0,0.0,0.0,0.0,0.0,0.0592,0.0606,0.0674,0.0798,0.0809,0.0921,0.1182,0.1254,0.1421,0.172,0.1816,0.1798,0.1829,0.1896,0.1967,0.2042,0.211,0.229,0.2587,0.2887,0.2221,0.0771,0.0773,0.0955,0.1097,0.0452,0.0256,0.0315,0.0,0.0,0.0,0.0,0.0,0.0,0.0,0.0,0.0,0.0,0.0,0.0,0.0,0.0,0.0,0.0,0.0,0.0,0.0,0.0,0.0,0.0,0.0,0.0,0.0,0.0,0.0,0.0,0.0,0.0,0.0,0.0,0.0,0.0,0.0,0.0,0.0,-0.2206,-0.2271,-0.2368,-0.2354,-0.236,0.0,0.0,0.0,0.0,0.0,0.0,-0.2525,-0.2548,-0.2597,-0.2679,-0.2675,-0.2706,-0.2782,-0.2791,-0.2784,-0.2762,-0.2807,-0.2812,-0.2784,-0.2815,-0.1685,0.0357,0.1162,0.268,0.4639,0.5356,0.5583,0.5583,0.5583,0.5591,0.5605,0.5605,0.5616,0.5646,0.0,0.0,0.0,0.0,0.0,0.0,0.0,0.0,0.0,0.0,0.0,0.0101,0.0404,0.0417,0.0532,0.08,0.0801,0.0968,0.1254,0.1276,0.1477,0.1872,0.1877,0.1894,0.1924,0.2009,0.2071,0.2105,0.2195,0.224,0.2241,0.2243,0.2032,0.1472,0.0497,-0.0703,-0.1917,-0.1026,-0.0611,-0.0602,-0.0585,0.0,0.0,0.0,0.0,0.0,0.0,0.0,0.0,0.0,0.0,0.0,0.0,0.0,0.0,0.0,0.0,0.0,0.0,0.0,0.0,0.0,0.0,0.0,0.0,0.0,0.0,0.0,0.0,0.0,0.0,0.0,0.0,0.0,0.0,0.0,0.0,0.0,0.0,-0.2502,-0.2478,0.0,0.0,0.0,0.0,-0.2586,-0.257,-0.2592,-0.2676,-0.2683,-0.2712,-0.2774,-0.2748,-0.275,-0.2782,-0.2812,-0.2826,-0.2825,-0.2912,-0.2936,-0.2908,-0.2939,-0.2953,-0.2585,0.0277,0.1569,0.1934,0.4555,0.5734,0.5734,0.5734,0.5681,0.573,0.573,0.5769,0.5826,0.0,0.0,0.0,-0.4602,-0.4854,-0.487,-0.4444,-0.4047,-0.3389,-0.2194,-0.1483,-0.0713,0.0052,-0.0539,-0.0666,0.0227,-0.0402,-0.0404,0.0631,0.0951,0.1262,0.1592,0.1819,0.1985,0.2016,0.2086,0.2138,0.2168,0.224,0.2283,0.2231,0.1449,0.0585,-0.0295,-0.1553,-0.2424,-0.3034,-0.215,-0.1692,-0.166,-0.1658,-0.1617,0.0,0.0,0.0,0.0,0.0,0.0,0.0,0.0,0.0,0.0,0.0,0.0,0.0,0.0,0.0,0.0,0.0,0.0,0.0,0.0,0.0,0.0,0.0,0.0,0.0,0.0,0.0,0.0,0.0,0.0,0.0,0.0,0.0,0.0,0.0,0.0,0.0,-0.2542,-0.2549,0.0,-0.2612,-0.2613,-0.2634,-0.2686,-0.2716,-0.2747,-0.2778,-0.2799,-0.2827,-0.2867,-0.2857,-0.2867,-0.2897,-0.2909,-0.2904,-0.2886,-0.2957,-0.2975,-0.2947,-0.2996,-0.1988,0.0,0.0,0.1142,0.3044,0.4046,0.5002,0.5826,0.5826,0.5839,0.5861,0.5902,0.5929,0.5951,0.0,-0.4679,0.0,-0.4783,-0.5002,-0.4925,-0.4091,-0.3957,-0.3355,-0.1722,-0.1265,-0.078,-0.0054,-0.1108,-0.1368,-0.0117,-0.1125,-0.1196,0.0359,0.0797,0.1114,0.1471,0.1829,0.2064,0.2159,0.2144,0.2195,0.2245,0.2296,0.2335,0.229,0.0967,-0.03,-0.1361,-0.2796,-0.361,-0.4031,-0.3407,-0.2838,-0.2206,-0.2297,-0.2245,-0.2154,0.0,0.0,0.0,0.0,0.0,0.0,0.0,0.0,0.0,0.0,0.0,0.0,0.0,0.0,0.0,0.0,0.0,0.0,0.0,0.0,0.0,0.0,0.0,0.0,0.0,0.0,0.0,0.0,0.0,0.0,0.0,0.0,0.0,0.0,0.0,-0.2589,-0.2589,-0.2623,-0.2656,-0.2676,-0.2705,-0.2736,-0.2766,-0.2815,-0.2853,-0.2872,-0.2893,-0.2921,-0.2961,-0.2932,-0.2941,-0.2991,-0.2981,-0.2976,-0.2977,-0.3028,-0.3041,-0.3024,-0.3065,-0.1933,0.0,-0.0583,0.0291,0.2331,0.3401,0.442,0.5285,0.581,0.5981,0.5987,0.6027,0.6055,0.6076,-0.5023,-0.4833,-0.4783,-0.498,-0.5121,-0.495,-0.4215,-0.3433,-0.2605,-0.1556,-0.0626,-0.0054,-0.0055,-0.1239,-0.1493,-0.0173,-0.1284,-0.1313,0.037,0.0793,0.1183,0.1582,0.1915,0.2127,0.2224,0.2188,0.2245,0.2333,0.2364,0.2395,0.2349,0.0606,-0.0606,-0.1439,-0.3181,-0.4318,-0.4923,-0.4923,-0.3959,-0.241,-0.2337,-0.2301,-0.2175,0.0,0.0,0.0,0.0,0.0,0.0,0.0,0.0,0.0,0.0,0.0,0.0,0.0,0.0,0.0,0.0,0.0,0.0,0.0,0.0,0.0,0.0,0.0,0.0,0.0,0.0,0.0,0.0,0.0,0.0,0.0,0.0,0.0,-0.2567,-0.2613,-0.2567,-0.2567,-0.2703,-0.274,-0.274,-0.2769,-0.2799,-0.2829,-0.2861,-0.2904,-0.2961,-0.2966,-0.2994,-0.3054,-0.2969,-0.2965,-0.3054,-0.3025,-0.304,-0.3099,-0.3129,-0.3144,-0.3144,-0.3145,-0.3048,-0.295,-0.1571,-0.0982,-0.0688,0.2554,0.3833,0.4022,0.5478,0.6104,0.6104,0.6104,0.6142,0.6199,-0.5159,-0.5083,-0.5061,-0.5127,-0.5388,-0.5249,-0.4369,-0.421,-0.3546,-0.1792,-0.1313,-0.1179,-0.1309,-0.2476,-0.2768,-0.1401,-0.2514,-0.232,0.0,0.0517,0.1012,0.1678,0.1786,0.1916,0.2219,0.2251,0.2288,0.2333,0.2386,0.2427,0.2381,-0.0546,-0.2044,-0.2359,-0.5393,-0.6422,-0.5981,-0.5981,-0.5355,-0.4174,-0.3569,-0.2902,-0.2309,0.0,0.0,0.0,0.0,0.0,0.0,0.0,0.0,0.0,0.0,0.0,0.0,0.0,0.0,0.0,0.0,0.0,0.0,0.0,0.0,0.0,0.0,0.0,0.0,0.0,0.0,0.0,0.0,0.0,0.0,0.0,0.0,-0.2657,-0.2627,-0.2675,-0.2713,-0.2713,-0.2747,-0.278,-0.2801,-0.2831,-0.2861,-0.289,-0.2961,-0.301,-0.3026,-0.3069,-0.31,-0.3118,-0.3093,-0.3092,-0.3118,-0.3088,-0.3092,-0.313,-0.314,-0.3155,-0.3176,-0.3197,-0.2514,-0.1517,-0.221,-0.1918,-0.0715,0.142,0.2334,0.2545,0.5225,0.6229,0.6229,0.6229,0.624,0.6256,-0.5355,-0.5301,-0.5279,-0.5333,-0.5168,-0.4746,-0.3857,-0.3502,-0.2738,-0.1147,-0.0953,-0.0971,-0.1056,-0.2226,-0.2509,-0.1187,-0.226,-0.2187,-0.0127,0.0537,0.1042,0.1605,0.1807,0.2024,0.2264,0.2293,0.2328,0.2371,0.2432,0.2477,0.243,-0.0957,-0.2571,-0.2733,-0.6233,-0.7528,-0.6996,-0.6996,-0.6463,-0.5594,-0.5044,-0.4307,-0.3407,-0.3507,-0.3594,-0.3491,-0.3064,-0.2943,-0.2873,-0.2721,0.0,0.0,0.0,0.0,0.0,0.0,0.0,0.0,0.0,0.0,0.0,0.0,0.0,0.0,0.0,0.0,0.0,0.0,0.0,0.0,0.0,0.0,0.0,0.0,-0.265,-0.2672,-0.2667,-0.2707,-0.2743,-0.2755,-0.2795,-0.2829,-0.2846,-0.2886,-0.2928,-0.2969,-0.3035,-0.3082,-0.3108,-0.3142,-0.3161,-0.3161,-0.3149,-0.3149,-0.3161,-0.3144,-0.315,-0.3179,-0.3179,-0.3189,-0.3206,-0.3223,-0.2733,-0.1933,-0.2845,-0.2758,-0.1753,0.0717,0.1641,0.0,0.0,0.0,0.0,0.0,0.6341,0.6316,-0.5508,-0.5474,-0.54,-0.5362,-0.4687,-0.3821,-0.2883,-0.1979,-0.1099,-0.0106,0.0,-0.0054,-0.0171,-0.128,-0.1539,-0.03,-0.1301,-0.1408,-0.0066,0.0616,0.1177,0.1561,0.1874,0.2123,0.2294,0.2323,0.2368,0.2429,0.2487,0.2532,0.2484,-0.0971,-0.2602,-0.2765,-0.6272,-0.7823,-0.7815,-0.7815,-0.7402,-0.6661,-0.6661,-0.5934,-0.4709,-0.4178,-0.3818,-0.3518,-0.2861,-0.2529,-0.2613,-0.3209,0.0,0.0,0.0,0.0,0.0,0.0,0.0,0.0,0.0,0.0,0.0,0.0,0.0,0.0,0.0,0.0,0.0,0.0,0.0,0.0,0.0,0.0,0.0,0.0,-0.2573,-0.2669,-0.2703,-0.2731,-0.2759,-0.2789,-0.2846,-0.2886,-0.2894,-0.2941,-0.2996,-0.3058,-0.3091,-0.313,-0.318,0.0,0.0,0.0,0.0,-0.3165,-0.3193,-0.319,-0.3202,-0.323,-0.3227,-0.3227,-0.323,-0.3234,-0.3238,-0.3242,-0.3269,-0.3182,-0.2776,0.0308,0.1846,0.246,0.5319,0.6542,0.6534,0.6482,0.6431,0.639,-0.5529,-0.5567,-0.5375,-0.4519,-0.4385,-0.3789,-0.1989,-0.1622,-0.118,-0.0159,0.0,-0.0373,-0.1344,-0.1792,-0.1825,-0.1477,-0.1803,-0.1436,-0.0068,0.0136,0.055,0.1272,0.1351,0.1649,0.2252,0.2354,0.2399,0.2461,0.2496,0.2541,0.2513,-0.1064,-0.2715,-0.2797,-0.648,-0.7974,-0.7909,-0.7909,-0.7782,-0.7556,-0.7556,-0.6151,-0.4208,-0.5375,-0.494,-0.3736,-0.4192,-0.4379,-0.4248,-0.3718,-0.393,-0.4393,-0.451,-0.4496,0.0,0.0,0.0,0.0,0.0,0.0,0.0,0.0,0.0,0.0,0.0,0.0,0.0,0.0,0.0,0.0,0.0,0.0,0.0,-0.2683,-0.2705,-0.274,-0.2795,-0.2807,-0.2822,-0.2853,-0.2909,-0.2964,-0.3013,-0.3028,-0.3059,-0.312,-0.3153,-0.3165,-0.3152,-0.3197,-0.3212,-0.3189,-0.3205,-0.3216,-0.3223,-0.32,-0.3202,-0.323,0.0,0.0,-0.3231,-0.3255,-0.328,-0.3303,-0.331,-0.2609,-0.1162,0.0839,0.324,0.5738,0.633,0.648,0.6477,0.6466,0.6485,0.6518,-0.499,-0.4935,-0.4821,-0.4282,-0.351,-0.2583,-0.1568,-0.1065,-0.0599,-0.0052,0.0,-0.0214,-0.0837,-0.0974,-0.0998,-0.0902,-0.0955,-0.0729,-0.0067,0.0205,0.0555,0.1203,0.1426,0.1728,0.226,0.2363,0.2401,0.2446,0.2492,0.2544,0.2521,-0.1067,-0.273,-0.283,-0.6446,-0.804,-0.7999,-0.7999,-0.797,-0.7929,-0.7929,-0.687,-0.5391,-0.6122,-0.5498,-0.443,-0.4786,-0.4891,-0.4839,-0.4842,-0.506,-0.5399,-0.58,-0.5686,-0.5195,0.0,0.0,0.0,0.0,0.0,0.0,0.0,0.0,0.0,0.0,0.0,0.0,0.0,0.0,-0.2617,0.0,0.0,-0.2657,-0.2687,-0.2718,-0.2748,-0.2778,-0.2834,-0.2883,-0.2915,-0.2971,-0.3018,-0.3145,-0.308,-0.3116,-0.3161,-0.3193,-0.3202,-0.3187,-0.3228,-0.3232,-0.319,-0.3216,-0.3224,-0.3209,-0.3224,-0.3239,-0.3253,-0.3254,-0.3262,-0.3276,-0.3291,-0.3307,-0.3322,-0.3337,-0.2409,-0.0736,0.1882,0.4383,0.6673,0.6583,0.6548,0.6548,0.6548,0.6567,0.6594,-0.4433,-0.3987,-0.3715,-0.3715,-0.244,-0.1321,-0.1141,-0.0488,0.0,0.0,0.0,0.0,0.0,0.0,0.0,0.0,0.0,0.0,0.0,0.0274,0.07,0.1192,0.1492,0.1872,0.226,0.2363,0.2393,0.2424,0.2485,0.2541,0.2513,-0.1064,-0.2647,-0.2843,-0.6443,-0.8048,-0.806,-0.806,-0.806,-0.806,-0.806,-0.752,-0.6701,-0.671,-0.5963,-0.503,-0.5203,-0.5214,-0.5234,-0.5846,-0.6176,-0.6347,-0.7089,-0.6802,-0.6061,-0.5265,-0.5112,0.0,0.0,0.0,0.0,0.0,0.0,0.0,0.0,0.0,-0.336,-0.2722,-0.2656,-0.2664,-0.2688,-0.2653,-0.2639,-0.2701,-0.2725,-0.2746,-0.2769,-0.2855,-0.293,-0.2966,-0.3013,-0.3051,-0.3069,-0.3114,-0.3157,-0.3194,-0.3223,-0.3234,-0.3223,-0.3255,-0.3251,-0.3198,-0.3224,-0.3231,-0.3215,-0.3261,-0.3284,-0.3284,-0.3309,-0.3321,-0.3321,-0.3328,-0.3329,-0.3332,-0.3046,-0.1995,-0.0209,0.2919,0.4898,0.615,0.6462,0.667,0.6668,0.6643,0.6643,0.6654,-0.43,-0.2911,-0.1705,-0.1705,-0.1531,-0.1097,-0.0284,-0.0047,0.0,0.0,0.0,0.0,0.0,0.0,0.0,0.0,0.0,0.0,0.0,0.0068,0.0415,0.1192,0.1208,0.1584,0.226,0.2363,0.2393,0.2424,0.2485,0.2532,0.2484,-0.0971,-0.2617,-0.2893,-0.6371,-0.7991,-0.806,-0.806,-0.806,-0.806,-0.806,-0.7554,-0.6777,-0.744,-0.6602,-0.5252,-0.5896,-0.6055,-0.5992,-0.6072,-0.6557,-0.7172,-0.726,-0.7301,-0.7029,-0.6218,-0.6015,-0.5969,-0.5755,-0.5299,-0.4698,-0.4033,-0.3356,-0.2828,0.0,0.0,-0.2725,-0.2679,-0.2687,-0.2688,-0.2691,-0.2687,-0.2702,-0.2763,-0.2754,-0.2774,-0.2881,-0.2908,-0.2938,-0.2995,-0.3007,-0.3044,-0.3125,-0.314,-0.3165,-0.3221,-0.3254,-0.3247,-0.3195,-0.3246,-0.326,-0.3227,-0.3254,-0.3281,-0.3306,-0.3313,-0.3315,-0.3315,-0.332,-0.3321,-0.3322,-0.335,-0.3362,-0.3258,-0.1801,-0.0213,0.1593,0.3505,0.4354,0.4674,0.616,0.6799,0.6785,0.6676,0.667,0.6717,-0.3582,-0.2374,-0.1211,-0.0674,-0.0589,-0.0461,-0.0047,0.0,0.0,0.0,0.0,0.0,0.0,0.0,0.0,0.0,0.0,0.0,0.0,0.0,0.0268,0.0821,0.1041,0.1483,0.2018,0.2264,0.2367,0.2397,0.2423,0.2459,0.2429,-0.1029,-0.2642,-0.2833,-0.6322,-0.7954,-0.7991,-0.804,-0.806,-0.8056,-0.8007,-0.7738,-0.7387,-0.7625,-0.7293,-0.6702,-0.6986,-0.6762,0.0,-0.6826,-0.6833,-0.6735,-0.7245,-0.7403,-0.7249,-0.6463,-0.6658,-0.6855,-0.5887,-0.4979,-0.4131,-0.3339,-0.3191,-0.3211,-0.275,-0.3007,-0.3268,-0.2798,-0.2718,-0.2713,-0.2695,-0.2721,-0.2754,0.0,-0.2816,-0.2859,-0.2909,-0.2931,-0.2958,-0.3002,-0.3022,-0.3055,-0.3111,-0.3148,-0.3179,-0.3204,-0.3265,-0.3284,-0.3242,-0.3296,-0.3314,-0.3284,-0.3295,-0.3309,-0.3321,-0.3339,-0.3348,-0.3348,-0.3366,-0.3374,-0.3374,-0.3386,-0.3393,-0.3287,-0.1702,-0.0534,0.0429,0.3111,0.4306,0.4432,0.6273,0.6924,0.6908,0.6788,0.6758,0.6779,-0.3045,-0.1882,-0.0808,-0.0135,0.0,0.0,0.0,0.0,0.0,0.0,0.0,0.0,0.0,0.0,0.0,0.0,0.0,0.0,0.0,0.0,0.0196,0.0602,0.0953,0.1387,0.1769,0.2086,0.2333,0.2354,0.2371,0.2401,0.2368,-0.1003,-0.2577,-0.2767,-0.6194,-0.7799,-0.7827,-0.7913,-0.795,-0.795,-0.7913,-0.7897,-0.788,-0.7721,-0.7664,-0.766,-0.7635,-0.7031,-0.6438,-0.705,-0.6658,-0.5938,-0.6844,-0.715,-0.7065,-0.6795,-0.7183,-0.7328,-0.5651,-0.4784,-0.4051,-0.2894,-0.3067,-0.3413,-0.2855,-0.3119,-0.3387,-0.2819,-0.2744,-0.2744,-0.2721,-0.2761,-0.2801,-0.2816,-0.2881,-0.2934,-0.2951,-0.298,-0.3007,-0.3029,-0.3059,-0.3086,-0.3108,-0.3157,-0.3191,-0.32,-0.3275,-0.3307,-0.3277,-0.3325,-0.3348,-0.3335,-0.3325,-0.3329,-0.3345,-0.3367,-0.338,-0.338,-0.341,-0.3425,-0.3425,-0.3433,-0.3115,-0.2684,-0.2039,-0.1077,0.0,0.249,0.3802,0.448,0.6325,0.6976,0.6962,0.6856,0.6828,0.6839,-0.2911,-0.1346,-0.0045,0.0,0.0,0.0,0.0,0.0,0.0,0.0,0.0,0.0,0.0,0.0,0.0,0.0,0.0,0.0,0.0,0.0,0.0195,0.0593,0.0948,0.1307,0.172,0.212,0.2293,0.2293,0.235,0.2379,0.2307,-0.0902,-0.2511,-0.2773,-0.6012,-0.7456,-0.7546,-0.7635,-0.7676,-0.7684,-0.777,-0.7803,-0.7791,-0.7697,-0.7664,-0.7652,-0.7562,-0.6978,-0.6275,-0.6353,-0.5758,-0.516,-0.5932,-0.6291,-0.6584,-0.7295,-0.7656,-0.739,-0.5691,-0.5166,-0.4714,-0.3061,-0.2669,-0.2691,-0.2692,-0.2716,-0.2736,-0.2737,-0.2761,-0.2781,-0.2781,-0.2806,-0.2845,-0.2902,-0.2939,-0.298,-0.304,-0.3074,-0.3093,-0.3095,-0.3122,-0.3141,0.0,-0.317,-0.32,-0.3227,-0.3285,-0.3307,-0.3277,-0.3306,-0.3336,-0.3365,-0.3336,-0.335,-0.3408,-0.341,-0.3411,-0.3411,-0.3441,-0.3456,-0.3457,-0.3486,-0.2624,-0.1092,-0.2733,-0.153,0.1639,0.1749,0.284,0.4585,0.6283,0.691,0.6905,0.6842,0.6856,0.6897,-0.3001,-0.1837,-0.0719,-0.009,0.0,0.0,0.0,0.0,0.0,0.0,0.0,0.0,0.0,0.0,0.0,0.0,0.0,0.0,0.0,0.0,0.0061,0.0189,0.0779,0.1131,0.1287,0.1881,0.226,0.226,0.2281,0.23,0.2248,-0.0953,-0.2523,-0.2707,-0.5959,-0.7407,-0.7439,-0.7533,-0.7607,-0.766,-0.7631,-0.7652,-0.7705,-0.7672,-0.7623,-0.7574,0.0,-0.6709,-0.5498,-0.6174,-0.5748,-0.5153,-0.6059,-0.6329,-0.6449,-0.6791,-0.698,-0.6811,-0.5651,-0.4919,-0.4097,-0.2928,-0.2684,-0.2698,-0.2718,-0.2731,-0.275,-0.2789,-0.2822,-0.2844,-0.2844,-0.29,-0.2946,-0.2946,-0.2972,-0.3006,-0.3047,-0.3043,-0.3044,-0.3065,-0.3095,0.0,0.0,0.0,0.0,-0.323,-0.3306,-0.3347,-0.3336,-0.3365,-0.3386,-0.3396,-0.3386,-0.3392,-0.3411,-0.3431,-0.3442,-0.3442,-0.3472,-0.3487,-0.3487,-0.3499,-0.3174,-0.2627,-0.1982,-0.1103,0.011,0.255,0.3877,0.463,0.6411,0.7063,0.7027,0.7006,0.7014,0.7014,0.0,-0.1837,-0.0719,-0.009,0.0,0.0,0.0,0.0,0.0,0.0,0.0,0.0,0.0,0.0,0.0,0.0,0.0,0.0,0.0,0.0,0.0058,0.012,0.0752,0.1095,0.1241,0.1899,0.2213,0.2213,0.2234,0.2255,0.2204,-0.093,-0.238,-0.2545,-0.5692,-0.7154,-0.7158,-0.7248,-0.7395,-0.755,-0.7395,-0.7448,-0.7599,-0.7472,-0.7386,0.0,-0.7435,-0.66,-0.5435,-0.6155,-0.551,-0.4766,-0.6007,-0.6543,-0.678,-0.6691,-0.6683,-0.6466,-0.5208,-0.4456,-0.3784,-0.2945,-0.2701,-0.2714,-0.2733,-0.2755,-0.2781,-0.2821,-0.2853,-0.2876,-0.2887,-0.2945,-0.2991,-0.2994,-0.3028,-0.3062,-0.3082,-0.3077,-0.3074,-0.3084,-0.3101,-0.3126,0.0,0.0,0.0,-0.3246,-0.3311,-0.3355,-0.3366,-0.3374,-0.3389,-0.3411,-0.3401,-0.3401,-0.3412,-0.3431,-0.3452,-0.3474,-0.3493,-0.3513,-0.3534,-0.3534,-0.3534,-0.3423,-0.1664,-0.0556,0.0334,0.3243,0.4806,0.5562,0.6691,0.7125,0.709,0.7068,0.7068,0.7076,0.0,0.0,-0.0135,0.0,0.0,0.0,0.0,0.0,0.0,0.0,0.0,0.0,0.0,0.0,0.0,0.0,0.0,0.0,0.0,0.0,0.0114,0.0401,0.0792,0.1126,0.1481,0.1959,0.2217,0.2217,0.2207,0.2167,0.2099,-0.0768,-0.2165,-0.2306,-0.5248,-0.6655,-0.6733,-0.6811,-0.7047,-0.7341,-0.7084,-0.719,-0.746,-0.7125,-0.6994,-0.7003,-0.7092,-0.6586,-0.5995,-0.6213,-0.5136,-0.4024,-0.5636,-0.6868,-0.7518,-0.6759,-0.655,-0.6214,-0.4456,-0.3952,-0.37,-0.2945,-0.2716,-0.2737,-0.274,-0.2787,-0.2829,-0.2833,-0.2857,-0.2887,0.0,0.0,-0.2984,-0.3043,-0.31,-0.3138,-0.3137,-0.3161,-0.3171,0.0,0.0,0.0,0.0,0.0,0.0,-0.3276,0.0,-0.3336,-0.3365,-0.334,-0.3352,-0.341,-0.3384,-0.3382,-0.3411,-0.3414,-0.3444,-0.3502,-0.3502,-0.3534,-0.3587,-0.3587,-0.3589,-0.3365,-0.157,0.0224,0.2129,0.3923,0.5607,0.7166,0.7125,0.7104,0.709,0.7036,0.7055,0.7098,0.0,0.0,0.0,0.0,0.0,0.0,0.0,0.0,0.0,0.0,0.0,0.0,0.0,0.0,0.0,0.0,0.0,0.0,0.0,0.0,0.0108,0.0388,0.0759,0.1144,0.1395,0.1911,0.2152,0.2152,0.2102,0.2121,0.2077,0.0203,-0.1297,-0.2344,-0.4247,-0.574,-0.6729,-0.6749,-0.6847,-0.7055,-0.6989,-0.6982,-0.7125,-0.7101,-0.7047,-0.7003,-0.7092,-0.6177,-0.5164,-0.585,-0.551,-0.468,-0.4575,-0.5237,-0.5837,-0.4949,-0.4707,-0.4623,-0.412,-0.3532,-0.2945,-0.2777,-0.2716,-0.2744,-0.2766,-0.2801,-0.2841,-0.2885,-0.2917,-0.2956,-0.3007,0.0,0.0,-0.305,-0.3065,0.0,-0.3044,-0.3067,0.0,-0.3077,0.0,-0.3096,-0.3149,-0.3182,0.0,0.0,-0.3337,-0.3358,-0.3366,-0.3381,-0.3396,-0.3411,-0.3404,-0.3404,-0.3412,-0.3434,-0.3465,-0.3502,-0.3502,-0.352,-0.3555,-0.3555,-0.2787,-0.1458,0.0336,0.2129,0.3923,0.5866,0.6878,0.7183,0.7259,0.7259,0.7224,0.7251,0.7273,0.7286,0.0,0.0,0.0,0.0,0.0,0.0,0.0,0.0,0.0,0.0,0.0,0.0,0.0,0.0,0.0,0.0,0.0,0.0,0.0,0.0103,0.0314,0.0588,0.0948,0.1261,0.1562,0.1891,0.2005,0.2005,0.2045,0.2072,0.209,0.0526,-0.0861,-0.227,-0.3765,-0.5198,-0.6488,-0.6488,-0.6607,0.0,0.0,-0.6684,-0.6864,-0.6754,-0.6705,-0.6709,-0.6798,-0.6138,-0.517,-0.5412,-0.5292,-0.5078,-0.4624,-0.4871,-0.5208,-0.4288,-0.4036,-0.3952,-0.3532,-0.3113,-0.2692,-0.2692,-0.2725,-0.2762,-0.278,-0.2816,-0.2861,-0.2906,-0.293,-0.296,-0.3021,-0.3032,0.0,0.0,0.0,0.0,-0.3048,-0.3061,-0.3067,0.0,-0.3065,0.0,-0.3138,-0.3171,-0.322,0.0,-0.3329,-0.3358,-0.3385,-0.339,-0.3397,-0.3411,-0.3412,-0.3412,-0.3412,-0.3429,-0.3459,-0.3502,-0.3502,-0.3524,-0.3565,-0.358,-0.3031,-0.1918,0.0,0.2378,0.3514,0.6265,0.7286,0.7259,0.733,0.7335,0.7308,0.7343,0.7357,0.7357,0.0,0.0,0.0,0.0,0.0,0.0,0.0,0.0,0.0,0.0,0.0,0.0,0.0,0.0,0.0,0.0,0.0,0.0,0.0,0.0,0.0569,0.0879,0.1177,0.1471,0.1798,0.1855,0.1913,0.1913,0.1994,0.2037,0.2041,0.0575,-0.0833,-0.2183,-0.3537,-0.4955,-0.6182,-0.6182,-0.6366,-0.6627,-0.6308,-0.637,-0.6619,0.0,-0.6235,-0.6329,-0.6368,-0.6198,-0.5759,-0.4937,-0.4756,-0.4948,-0.4875,-0.4954,-0.4875,-0.4036,-0.3868,-0.37,-0.2945,-0.2692,-0.2692,-0.2692,-0.2906,-0.3122,-0.2864,-0.3085,-0.3319,-0.2994,-0.3004,-0.3027,-0.2995,-0.3006,-0.3024,-0.3077,0.0,-0.3085,-0.3085,-0.3089,-0.3082,-0.3055,-0.308,-0.311,-0.314,-0.3171,-0.3215,-0.3277,-0.3306,-0.3345,-0.3403,-0.3385,-0.3385,-0.3411,-0.3412,-0.3412,-0.3412,-0.3415,-0.3444,-0.3495,-0.3499,-0.3531,-0.3587,-0.3614,-0.3518,-0.3067,0.0344,0.0,0.2412,0.5986,0.7371,0.7371,0.7376,0.7376,0.7376,0.7376,0.7376,0.7376,0.0,0.0,0.0,0.0,0.0,0.0,0.0,0.0,0.0,0.0,0.0,0.0,0.0,0.0,0.0,0.0,0.0,0.0,0.0,0.0,0.0,0.0812,0.1102,0.1445,0.1712,0.1782,0.1819,0.1819,0.1859,0.1892,0.1918,0.0614,-0.075,-0.2151,-0.3456,-0.4827,-0.6182,-0.6182,-0.6219,-0.6268,-0.6206,-0.6219,-0.6268,-0.6206,0.0,0.0,-0.5761,-0.6206,-0.6678,-0.4501,-0.385,-0.3854,-0.3242,-0.3139,-0.3113,-0.2945,-0.2945,-0.2861,-0.2777,-0.2692,-0.2692,-0.2692,-0.382,-0.4539,-0.3087,-0.45,-0.5528,-0.3318,-0.3535,-0.3852,-0.3089,-0.3006,-0.301,-0.3021,-0.3022,-0.3022,-0.3022,-0.3044,-0.3058,0.0,-0.308,-0.311,-0.314,-0.3171,0.0,0.0,0.0,-0.3337,-0.3373,-0.3393,-0.3407,-0.3412,-0.3412,-0.3412,-0.3412,-0.3437,-0.3454,-0.3465,-0.3491,-0.352,-0.3555,-0.3583,-0.282,-0.1249,0.0916,0.0,0.4256,0.6484,0.7433,0.7433,0.7488,0.7504,0.7504,0.7504,0.7504,0.7496,0.0,0.0,0.0,0.0,0.0,0.0,0.0,0.0,0.0,0.0,0.0,0.0,0.0,0.0,0.0,0.0,0.0,0.0,0.0,0.0,0.0,0.0,0.0,0.0,0.1659,0.1718,0.1748,0.1748,0.0,0.1539,0.0976,0.0408,-0.0947,-0.2883,-0.3449,-0.4514,-0.59,-0.59,-0.5929,-0.5974,-0.5974,-0.6002,-0.6043,0.0,0.0,0.0,-0.6597,-0.655,-0.6429,-0.6361,-0.5156,-0.3603,-0.2836,-0.2632,-0.2672,-0.2688,-0.2682,-0.2672,-0.2688,-0.2682,-0.2835,-0.3751,-0.4703,-0.5169,-0.418,-0.5424,-0.6025,-0.3396,-0.3605,-0.3998,-0.3136,-0.2972,0.0,-0.3005,-0.3006,-0.3013,-0.3028,-0.3043,-0.3148,-0.3148,-0.3093,-0.3127,-0.3141,-0.3183,-0.324,-0.3315,0.0,-0.3341,-0.3388,-0.3404,-0.3412,-0.3412,-0.3412,-0.3419,-0.3435,-0.345,-0.3472,-0.3502,-0.3516,-0.354,-0.3569,-0.3614,-0.319,-0.2287,-0.0463,0.0,0.1862,0.4789,0.5971,0.6088,0.7054,0.7537,0.7537,0.7537,0.7537,0.7532,0.0,0.0,0.0,0.0,0.0,0.0,0.0,0.0,0.0,0.0,0.0,0.0,0.0,0.0,0.0,0.0,0.0,0.0,0.0,0.0,0.0,0.0,0.0,0.0,0.0,0.0,0.0,0.1685,0.1522,0.0,0.0,0.0,0.0,0.0,-0.3765,-0.4542,-0.5528,-0.5528,-0.5631,0.0,0.0,-0.5778,0.0,0.0,0.0,0.0,0.0,-0.7211,-0.6469,-0.8318,-0.6951,-0.4447,-0.3695,-0.3106,-0.266,-0.2928,-0.2832,-0.265,-0.3085,-0.3152,-0.354,-0.5182,-0.6041,-0.626,-0.5392,-0.6287,-0.6455,-0.3439,-0.3549,-0.3919,-0.3053,-0.2908,-0.2943,0.0,-0.2983,-0.3002,-0.3046,-0.3148,-0.3148,0.0,-0.3106,0.0,-0.3142,-0.3202,0.0,-0.3317,0.0,0.0,-0.341,-0.3412,-0.3412,-0.3412,-0.3418,-0.3433,-0.3457,-0.3469,-0.3499,-0.3544,-0.3551,-0.3565,-0.3594,-0.3652,-0.3681,-0.3568,-0.1754,0.0,0.0,0.2706,0.4118,0.4236,0.5768,0.6594,0.6946,0.6946,0.7184,0.7523,0.0,0.0,0.0,0.0,0.0,0.0,0.0,0.0,0.0,0.0,0.0,0.0,0.0,0.0,0.0,0.0,0.0,0.0,0.0,0.0,0.0,0.0,0.0,0.0,0.0,0.0,0.0,0.1625,0.0621,0.0,0.0,0.0,0.0,0.0,0.0,-0.5286,-0.5406,-0.5406,0.0,0.0,0.0,0.0,0.0,0.0,0.0,0.0,0.0,-0.804,-0.8278,-0.8716,-0.8269,-0.7269,-0.657,-0.4617,-0.285,-0.3653,-0.3311,-0.2971,-0.4492,-0.4882,-0.5283,-0.6982,-0.8603,-0.9017,-0.5866,-0.7092,-0.7717,-0.3537,-0.3498,-0.3866,-0.2926,-0.2801,0.0,0.0,0.0,-0.2954,-0.304,-0.3148,-0.3148,-0.3148,0.0,0.0,-0.3142,-0.3221,0.0,-0.3318,0.0,0.0,-0.3411,-0.3412,-0.3412,-0.3412,-0.3438,-0.3454,-0.3457,-0.3509,-0.3538,-0.3544,-0.3572,-0.3587,-0.3594,-0.3652,-0.3681,-0.3568,-0.1754,0.0,0.0,0.1295,0.2119,0.2119,0.2354,0.3415,0.4943,0.4943,0.6003,0.7523,0.0,0.0,0.0,0.0,0.0,0.0,-0.2021,-0.2073,-0.1834,-0.1186,-0.1111,-0.0785,-0.0059,0.0,0.0,0.0,0.0,0.0,0.0,0.0,0.0,0.0,0.0,0.0,0.0,0.0,0.1262,0.0656,0.0203,0.0,0.0,0.0,0.0,0.0,0.0,-0.5247,-0.5296,-0.5239,0.0,0.0,0.0,0.0,0.0,0.0,0.0,0.0,0.0,0.0,-0.8809,-1.0942,-0.9824,-0.7848,-0.8937,-0.6892,-0.408,-0.4009,-0.3667,-0.3566,-0.4788,-0.5088,-0.578,-0.842,-0.8894,-0.8362,-0.694,-0.7129,-0.6684,-0.3382,-0.3411,-0.3847,-0.2908,-0.2788,-0.2844,0.0,0.0,0.0,-0.3066,-0.3063,-0.3059,-0.3077,-0.3116,0.0,0.0,0.0,-0.3296,0.0,0.0,0.0,-0.3412,-0.3412,-0.342,-0.3438,-0.345,-0.3474,-0.3509,-0.3534,-0.3555,-0.3572,-0.3583,-0.3589,-0.3589,-0.3636,-0.3663,-0.3684,-0.2911,0.0,0.0,-0.0588,0.0235,0.0353,0.1412,0.2354,0.3061,0.3061,0.3519,0.4084,0.0,0.0,0.0,0.0,0.0,-0.3221,-0.3398,-0.3408,-0.3181,-0.2421,-0.2378,-0.1918,-0.0661,-0.0521,-0.0387,-0.0052,0.0,0.0,0.0,0.0,0.0,0.0,0.0,0.0,0.0,0.0,0.0759,-0.0051,-0.066,-0.1782,0.0,0.0,-0.4309,-0.5108,0.0,0.0,0.0,0.0,0.0,0.0,0.0,0.0,0.0,0.0,0.0,0.0,0.0,0.0,0.0,0.0,0.0,-0.816,-0.9807,-0.822,-0.5631,-0.5333,-0.4914,-0.4878,-0.6438,-0.6716,-0.7212,-1.0134,-0.9603,-0.8234,-0.7722,-0.6877,-0.5536,-0.3121,-0.3218,-0.3472,-0.2795,-0.2761,-0.2821,0.0,0.0,-0.2983,-0.3084,-0.3071,-0.307,0.0,0.0,-0.3149,0.0,-0.3242,0.0,0.0,0.0,0.0,-0.3412,-0.342,-0.3435,-0.3456,-0.3474,-0.3502,-0.3544,-0.3555,-0.3569,-0.3589,-0.3589,-0.3589,-0.3589,-0.3621,-0.3652,-0.3681,-0.3712,0.0,0.0,-0.2354,-0.1766,-0.1648,-0.0353,0.0588,0.1059,0.1057,0.1402,0.1857,0.0,0.0,0.0,0.0,0.0,0.0,-0.3398,-0.3499,-0.3617,-0.3608,-0.3692,-0.3284,-0.1948,-0.1801,-0.1311,-0.0109,0.0,0.0,0.0,0.0,0.0,0.0,0.0,0.0,0.0,0.0,0.0,-0.0104,-0.2277,-0.3398,-0.351,-0.4574,-0.5108,-0.5108,0.0,0.0,0.0,0.0,0.0,0.0,0.0,0.0,-0.5794,0.0,0.0,0.0,0.0,0.0,0.0,0.0,0.0,0.0,0.0,-0.8228,-0.7521,-0.8269,-0.7401,-0.6933,-1.0019,-1.0409,-1.0397,-1.2037,-1.1282,-0.9629,-0.7961,-0.6274,-0.4643,-0.2971,-0.2647,-0.2647,-0.2565,-0.2698,-0.2759,-0.2819,0.0,0.0,-0.3081,-0.3071,-0.3085,0.0,0.0,-0.3165,-0.3224,-0.3284,0.0,0.0,0.0,0.0,-0.3412,-0.3441,-0.3457,-0.3457,-0.3513,-0.3544,-0.3544,-0.3576,-0.3589,-0.3589,-0.3589,-0.3589,-0.3589,-0.3621,-0.3652,-0.3681,0.0,0.0,0.0,-0.3771,-0.3771,-0.3771,-0.3771,-0.2593,-0.0823,-0.0816,0.0349,0.1857,0.0,0.0,0.0,0.0,0.0,0.0,0.0,-0.5616,-0.5393,-0.4643,-0.4661,-0.43,-0.3043,-0.2917,-0.2719,-0.2333,-0.0892,0.0,0.0,0.0,0.0,0.0,0.0,0.0,0.0,0.0,-0.0469,-0.1288,-0.279,-0.3956,-0.4801,-0.5186,-0.5382,-0.5382,-0.5382,-0.5382,0.0,0.0,0.0,0.0,0.0,-0.5688,-0.5884,0.0,0.0,0.0,0.0,0.0,0.0,0.0,0.0,0.0,0.0,0.0,0.0,-0.8797,-0.7818,-0.662,-0.8181,-0.8471,-0.8526,-0.9698,-0.9238,-0.7982,-0.6281,-0.5131,-0.404,-0.2922,-0.2677,-0.2672,-0.2567,-0.2714,-0.2782,-0.2822,-0.2913,0.0,0.0,0.0,0.0,-0.318,-0.318,-0.3205,0.0,0.0,0.0,0.0,0.0,0.0,-0.3442,-0.3471,-0.3489,-0.3489,-0.3524,-0.3555,-0.3576,-0.3587,-0.3589,-0.3589,-0.3589,-0.3589,-0.3589,-0.36,-0.3632,0.0,0.0,0.0,0.0,-0.3772,-0.3772,-0.3772,-0.3772,-0.3417,-0.2825,-0.2938,-0.2456,-0.1977,0.0,0.0,0.0,0.0,0.0,0.0,0.0,-0.666,-0.6453,-0.5791,-0.5793,-0.5402,-0.4147,-0.3977,-0.3823,-0.3374,-0.2042,0.0,0.0,0.0,0.0,0.0,0.0,0.0,0.152,-0.0052,-0.1232,-0.1909,-0.3514,-0.4729,-0.5533,-0.5586,-0.561,-0.561,-0.5573,-0.5578,0.0,0.0,0.0,0.0,-0.5673,-0.5814,-0.5929,0.0,0.0,0.0,0.0,0.0,0.0,0.0,0.0,0.0,0.0,0.0,0.0,0.0,-0.7778,-0.7018,-0.8411,-0.8636,-0.8608,-0.908,-0.8243,-0.6908,-0.5802,-0.4737,-0.3722,-0.2822,-0.2907,-0.3075,-0.2664,-0.272,-0.2787,-0.2851,-0.2943,0.0,0.0,0.0,0.0,-0.3165,0.0,0.0,0.0,0.0,0.0,0.0,0.0,0.0,-0.3456,-0.3495,-0.352,-0.352,-0.3549,-0.3572,-0.3589,-0.3589,-0.3589,-0.3589,-0.3589,-0.3596,-0.3607,-0.3607,-0.3639,0.0,0.0,0.0,0.0,-0.3772,-0.3772,-0.3772,-0.3772,-0.3772,-0.3772,-0.3757,-0.3744,-0.3726,0.0,0.0,0.0,0.0,0.0,0.0,0.0,-0.6755,-0.6779,-0.6779,-0.6883,-0.6508,-0.5273,-0.5112,-0.4661,-0.352,0.0,0.0,0.0,0.0,0.0,0.0,0.0,0.0,0.0963,-0.1177,-0.2324,-0.2298,-0.448,-0.5643,-0.581,-0.5814,-0.5818,-0.5814,-0.5725,-0.5725,-0.5798,0.0,0.0,0.0,-0.5884,-0.5916,0.0,0.0,0.0,0.0,0.0,0.0,0.0,0.0,0.0,0.0,0.0,0.0,0.0,0.0,0.0,0.0,0.0,-1.0258,-0.9786,-0.9708,-0.8044,-0.6465,-0.6154,-0.5037,0.0,-0.2855,-0.3261,-0.3615,-0.285,-0.2722,-0.2784,-0.2896,-0.2968,-0.3031,0.0,-0.3101,0.0,0.0,-0.3247,0.0,-0.3324,0.0,0.0,0.0,0.0,0.0,-0.346,-0.3513,-0.3544,-0.3549,-0.3576,-0.3589,-0.3589,-0.3589,-0.3589,-0.3589,-0.3594,-0.3607,-0.3636,-0.3639,-0.367,0.0,0.0,0.0,0.0,-0.3772,-0.3772,-0.3772,-0.3772,-0.3772,-0.3768,-0.3744,-0.3733,-0.3733,0.0,0.0,0.0,0.0,0.0,0.0,0.0,0.0,0.0,0.0,-0.6627,-0.6558,-0.627,-0.6199,-0.6122,0.0,0.0,0.0,0.0,0.0,0.0,0.0,0.0,0.0,-0.2081,-0.3082,-0.3749,-0.4079,-0.5404,-0.6043,-0.6088,-0.6157,-0.619,-0.6186,-0.6096,-0.6031,-0.5924,-0.5916,0.0,0.0,-0.5908,-0.5916,0.0,0.0,0.0,0.0,-0.9842,-0.9949,0.0,0.0,0.0,0.0,0.0,0.0,0.0,0.0,-0.7337,-0.7569,-0.815,0.0,-0.7755,-0.6506,-0.6817,-0.6886,0.0,-0.4636,-0.4626,-0.3789,-0.3258,-0.2957,-0.2694,-0.2774,-0.2852,-0.2879,-0.2972,-0.3055,-0.3092,-0.3138,0.0,-0.3176,-0.3242,-0.3305,-0.3351,0.0,0.0,0.0,0.0,-0.3467,-0.3491,-0.3527,-0.3555,-0.358,-0.3587,-0.3589,-0.3589,-0.3589,-0.3589,-0.3589,-0.3614,-0.3628,-0.3636,-0.366,-0.3692,0.0,0.0,0.0,-0.3772,-0.3772,-0.3772,-0.3772,-0.3772,-0.3772,-0.3775,-0.3788,-0.3795,-0.3799,0.0,0.0,0.0,0.0,0.0,0.0,0.0,0.0,0.0,0.0,0.0,0.0,0.0,0.0,0.0,0.0,0.0,0.0,0.0,0.0,0.0,0.0,0.0,-0.3177,-0.3101,-0.405,-0.4529,-0.4509,-0.5638,-0.6202,-0.6243,-0.6292,-0.6317,-0.6313,-0.6223,-0.6108,-0.5932,-0.6023,-0.5965,-0.5867,-0.599,0.0,0.0,0.0,0.0,0.0,-1.0096,-0.9709,0.0,-0.8382,-0.7539,-0.6741,0.0,0.0,0.0,0.0,-0.7297,-0.7358,-0.7488,-0.7525,-0.7291,-0.6353,-0.6566,-0.6626,-0.4793,-0.5123,-0.5374,-0.3638,-0.3605,-0.3659,-0.2921,-0.2808,-0.2871,-0.2926,-0.3001,0.0,0.0,0.0,-0.3198,-0.3225,-0.3281,-0.333,0.0,0.0,0.0,0.0,0.0,-0.3491,-0.352,-0.3549,-0.3572,-0.3589,-0.3589,-0.3589,-0.3589,-0.3589,-0.3596,-0.3611,-0.3628,-0.3649,-0.3677,-0.3694,-0.3719,0.0,0.0,0.0,-0.3772,-0.3772,-0.3772,-0.3772,-0.3786,-0.3793,-0.3795,-0.3824,-0.3838,-0.3842,0.0,0.0,0.0,0.0,0.0,0.0,0.0,0.0,0.0,0.0,0.0,0.0,0.0,0.0,0.0,0.0,0.0,0.0,0.0,0.0,0.0,0.0,0.0,-0.4165,-0.3754,-0.483,-0.5157,-0.4669,-0.5796,-0.6341,-0.6378,-0.6406,-0.6398,-0.6353,-0.6264,-0.6125,-0.5965,-0.6104,-0.6023,-0.5823,-0.6047,0.0,0.0,0.0,0.0,0.0,0.0,0.0,0.0,-0.7975,-0.7401,-0.6741,-0.6827,0.0,0.0,0.0,0.0,0.0,-0.7497,-0.769,-0.7759,-0.7603,-0.7185,-0.6532,-0.5759,-0.6025,-0.571,-0.3489,-0.412,-0.4539,-0.3085,-0.2846,-0.2889,-0.299,-0.3032,0.0,-0.3163,-0.3179,-0.3205,-0.3268,-0.3325,0.0,0.0,0.0,0.0,0.0,0.0,-0.352,-0.3544,-0.3572,-0.3589,-0.3589,-0.3589,-0.3594,-0.3596,-0.3596,-0.3611,-0.3636,-0.3645,-0.3677,-0.3726,-0.373,-0.3748,-0.3772,0.0,0.0,-0.3772,-0.3775,-0.3779,-0.3782,-0.381,-0.3824,-0.3827,-0.3855,-0.3866,-0.3869,0.0,0.0,0.0,0.0,0.0,0.0,0.0,0.0,0.0,0.0,0.0,0.0,0.0,0.0,0.0,0.0,0.0,0.0,0.0,0.0,0.0,0.0,-0.6734,-0.6709,-0.6811,-0.6775,-0.6694,-0.6517,-0.6836,-0.6872,-0.6668,-0.6815,-0.6766,-0.6545,-0.6451,-0.6313,-0.6137,-0.6092,-0.6006,-0.59,-0.5941,0.0,0.0,0.0,0.0,0.0,0.0,0.0,0.0,-0.7097,-0.6785,-0.6741,-0.6827,0.0,0.0,0.0,0.0,0.0,-0.757,-0.8369,-0.892,-0.8214,-0.8462,-0.8757,-0.805,-0.6629,-0.5322,-0.4997,-0.4094,-0.3207,-0.2954,-0.2928,-0.2986,-0.3003,-0.3032,-0.3066,0.0,0.0,-0.3182,-0.3265,0.0,0.0,0.0,0.0,0.0,0.0,0.0,-0.354,-0.3544,-0.3572,-0.3589,-0.3589,-0.3589,-0.3604,-0.3628,-0.3628,-0.3632,-0.3636,-0.3688,-0.3715,-0.3726,-0.3754,-0.3768,-0.3772,0.0,-0.3772,-0.3775,-0.3799,-0.381,-0.3813,-0.3842,-0.3851,-0.3855,-0.3887,-0.3898,-0.39,0.0,0.0,0.0,0.0,0.0,0.0,0.0,0.0,0.0,0.0,0.0,0.0,0.0,0.0,0.0,0.0,0.0,0.0,0.0,0.0,0.0,-0.7588,-0.7707,-0.7754,-0.773,-0.7722,-0.762,-0.757,-0.7625,-0.7498,-0.7153,-0.7044,-0.6827,-0.6656,-0.6517,-0.6378,-0.6247,-0.6161,-0.6072,-0.5932,0.0,0.0,0.0,0.0,0.0,0.0,0.0,0.0,0.0,0.0,-0.6721,-0.6811,-0.69,0.0,0.0,0.0,0.0,0.0,-0.7529,-0.8959,-1.0097,-0.8517,-0.8452,-0.8348,-0.7007,-0.5982,-0.5074,-0.4213,-0.379,-0.3514,-0.3007,-0.2954,-0.2994,-0.3026,-0.3056,-0.3093,-0.314,-0.3186,-0.3242,0.0,0.0,0.0,0.0,0.0,0.0,0.0,0.0,0.0,-0.3569,-0.3583,-0.3589,-0.3589,-0.3607,-0.3621,-0.3636,-0.3667,-0.3684,-0.3684,-0.3712,-0.3733,-0.375,-0.3764,-0.3772,-0.3772,0.0,-0.3772,-0.3772,-0.3786,-0.3803,-0.382,-0.3848,-0.3869,-0.3887,-0.3918,-0.3929,-0.3932,0.0,0.0,0.0,0.0,0.0,0.0,0.0,0.0,0.0,0.0,0.0,0.0,0.0,0.0,0.0,0.0,0.0,0.0,0.0,0.0,-0.7513,-0.7818,-0.8089,-0.8135,-0.8,-0.8229,-0.8219,-0.8102,-0.8139,-0.798,-0.7486,-0.7127,-0.688,-0.6749,-0.6611,-0.6472,-0.6345,-0.6276,-0.6182,-0.6025,0.0,0.0,0.0,0.0,0.0,0.0,0.0,0.0,0.0,0.0,0.0,0.0,0.0,0.0,0.0,-0.7215,-0.7292,-0.7438,-0.7928,-0.9704,-1.0919,-0.9106,-0.9087,-0.8932,-0.6783,-0.6508,-0.6025,-0.4203,-0.4281,-0.4274,-0.325,-0.2988,-0.3009,-0.3055,-0.3082,-0.3116,-0.317,-0.3228,-0.3287,-0.3348,-0.3382,0.0,0.0,0.0,0.0,0.0,0.0,0.0,-0.3589,-0.3589,-0.3589,-0.3589,-0.3618,-0.3639,-0.3645,-0.3699,-0.3726,-0.3726,-0.3733,-0.375,-0.3772,-0.3772,-0.3772,-0.3772,-0.3772,-0.3772,-0.3772,-0.3779,-0.3795,-0.382,-0.3855,-0.3887,-0.3918,-0.3932,-0.3943,-0.3947,0.0,0.0,0.0,0.0,0.0,0.0,0.0,0.0,0.0,0.0,0.0,0.0,0.0,0.0,0.0,0.0,0.0,0.0,0.0,0.0,-0.7568,-0.7709,-0.8046,-0.8246,-0.8341,-0.8576,-0.8487,-0.8213,-0.8161,-0.7868,-0.7319,-0.731,-0.7166,-0.6914,-0.6902,-0.6753,-0.651,-0.6502,-0.6333,-0.6174,-0.6178,0.0,0.0,0.0,0.0,0.0,0.0,0.0,0.0,0.0,0.0,0.0,0.0,0.0,-0.7137,-0.7235,-0.7378,-0.7781,-0.9247,-1.0667,-1.1397,-1.0351,-1.167,-1.2634,-1.0283,-0.9948,-0.9513,-0.729,-0.6215,-0.5194,-0.3412,-0.3069,-0.3089,-0.3093,-0.3096,-0.311,-0.3141,0.0,-0.3255,-0.3317,0.0,0.0,0.0,0.0,0.0,0.0,0.0,0.0,-0.3589,-0.3589,-0.3589,-0.3589,-0.3618,-0.3649,-0.3677,-0.3708,-0.3726,-0.3726,-0.3754,-0.3768,-0.3772,-0.3772,-0.3772,-0.3772,-0.3772,-0.3772,-0.3775,-0.3803,-0.3813,-0.3824,-0.388,-0.3918,-0.3943,-0.3918,-0.3925,-0.3943,0.0,0.0,0.0,0.0,0.0,0.0,0.0,0.0,0.0,0.0,0.0,0.0,0.0,0.0,0.0,0.0,0.0,0.0,0.0,0.0,-0.9067,-0.9312,-0.8654,-0.8539,-0.8942,-0.9117,-0.9086,-0.892,-0.847,-0.8119,-0.7813,-0.7469,-0.7178,-0.7019,-0.6905,-0.6869,-0.6766,-0.6586,-0.65,-0.6431,-0.6374,-0.637,0.0,0.0,0.0,0.0,0.0,0.0,0.0,0.0,-0.9279,-0.9165,-0.964,-0.9014,-0.8395,-0.9249,-0.9137,-0.9047,-1.0627,-1.0988,-1.0623,-0.9736,-1.0274,-1.0667,-0.9383,-0.7811,-0.6988,-0.8065,-0.605,-0.3823,-0.3256,-0.3059,-0.3066,-0.3141,-0.3138,-0.3142,-0.319,-0.3249,0.0,0.0,0.0,0.0,0.0,0.0,0.0,0.0,0.0,0.0,-0.3589,-0.3589,-0.3596,-0.3618,-0.3649,-0.3677,-0.3708,-0.3739,-0.3754,-0.3754,-0.3764,-0.3772,-0.3772,-0.3772,-0.3772,-0.3772,-0.3772,-0.3772,-0.3772,-0.3786,-0.3799,-0.382,-0.3859,-0.3883,-0.3891,-0.388,-0.3883,-0.3891,0.0,0.0,0.0,0.0,0.0,0.0,0.0,0.0,0.0,0.0,0.0,0.0,0.0,0.0,0.0,0.0,0.0,0.0,-1.1636,-1.0906,-1.0652,-1.0899,-1.0287,-0.9937,-0.9998,-1.0252,-1.0114,-0.9553,-0.8968,-0.8563,-0.8338,-0.779,-0.7452,-0.7306,-0.705,-0.6896,-0.6888,-0.6737,-0.6639,-0.6654,-0.6927,-0.7013,0.0,0.0,0.0,0.0,0.0,0.0,0.0,0.0,-1.048,-1.0394,-1.0796,-1.028,-0.97,-1.0652,-1.0289,-0.994,-1.1472,-1.1499,-1.0759,-0.9341,-0.9605,-0.996,-0.9184,-0.7896,-0.7303,-0.8667,-0.5757,-0.3032,-0.3076,-0.308,-0.3099,0.0,-0.3172,-0.3185,0.0,0.0,0.0,0.0,0.0,0.0,0.0,0.0,0.0,0.0,0.0,0.0,0.0,-0.36,-0.3614,-0.3636,-0.3674,-0.3705,-0.3726,-0.3757,-0.3772,-0.3772,-0.3772,-0.3772,-0.3772,-0.3772,-0.3772,-0.3772,-0.3772,-0.3772,-0.3772,-0.3772,-0.3788,-0.382,-0.3838,-0.3851,-0.3859,-0.3848,-0.3851,-0.3855,0.0,0.0,0.0,0.0,0.0,0.0,0.0,0.0,-1.4891,-1.4891,-1.4891,0.0,0.0,0.0,0.0,0.0,0.0,0.0,-1.1703,-1.193,-1.2155,-1.2326,-1.2923,-1.272,-1.1657,-1.1965,-1.1428,-1.0025,-0.9751,-0.9223,-0.8621,-0.8138,-0.7862,-0.7853,-0.7292,-0.699,-0.6982,-0.6964,-0.6824,-0.6727,-0.781,-0.8148,-0.8112,0.0,0.0,0.0,0.0,0.0,0.0,0.0,-1.1114,-1.0484,-1.1773,-1.159,-1.0877,-1.1093,-1.0481,-1.0103,-1.1735,-1.2336,-1.1968,-0.966,-1.0272,-1.1302,-1.0373,-1.1159,-1.1512,-0.9311,-0.5815,-0.3123,-0.3065,-0.3149,0.0,-0.3153,-0.3193,-0.3231,0.0,0.0,0.0,0.0,0.0,0.0,0.0,0.0,0.0,0.0,0.0,0.0,0.0,-0.3618,-0.3636,-0.3636,-0.3694,-0.3726,-0.3726,-0.3757,-0.3772,-0.3772,-0.3772,-0.3772,-0.3772,-0.3772,-0.3772,-0.3772,-0.3772,-0.3772,-0.3772,-0.3772,-0.3788,-0.3817,-0.3817,-0.3835,-0.3855,-0.3827,-0.3835,-0.3848,0.0,0.0,0.0,0.0,0.0,0.0,0.0,0.0,-1.5386,-1.5386,-1.5386,0.0,0.0,0.0,0.0,0.0,0.0,0.0,-1.4691,-1.3981,-1.3663,-1.3925,-1.345,-1.3094,-1.2796,-1.3486,-1.251,-0.9801,-0.9352,-0.8897,-0.8364,-0.8121,-0.7777,-0.7482,-0.7211,-0.7047,-0.7055,-0.775,-0.8096,-0.8103,-0.9198,-0.9549,-0.9638,0.0,0.0,0.0,0.0,0.0,0.0,0.0,0.0,0.0,-1.3418,-1.2926,-1.2381,-1.3534,-1.3297,-1.2996,-1.4622,-1.3317,-1.133,-1.0916,-0.8656,-0.6961,-0.8095,-0.8606,-0.8555,-0.7193,-0.603,-0.4872,-0.3398,-0.311,0.0,-0.325,-0.3247,0.0,0.0,0.0,0.0,0.0,0.0,0.0,0.0,0.0,0.0,0.0,0.0,0.0,0.0,-0.3649,-0.3667,-0.3667,-0.3705,-0.3737,-0.3757,-0.3768,-0.3772,-0.3772,-0.3772,-0.3772,-0.3772,-0.3772,-0.3772,-0.3772,-0.3772,-0.3772,-0.3772,-0.3772,-0.3779,-0.3786,-0.3786,-0.3788,-0.3795,-0.3788,-0.3788,-0.3795,0.0,0.0,0.0,0.0,0.0,0.0,-1.5601,-1.5601,-1.5601,-1.5601,-1.5601,-1.5601,0.0,0.0,0.0,-1.5601,-1.5601,-1.5698,-1.5996,-1.5422,-1.5147,-1.5429,-1.5148,-1.4556,-1.3566,-1.3644,-1.2397,-0.9845,-1.0283,-1.0346,-1.0024,-0.8837,-0.8211,-0.7958,-0.8009,-0.8004,-0.8015,-0.916,-0.9568,-0.954,-1.067,-1.0958,-1.0944,0.0,0.0,0.0,0.0,0.0,0.0,0.0,0.0,0.0,-1.3872,-1.3788,-1.3687,-1.4145,-1.3648,-1.3172,-1.3837,-1.2435,-1.059,-0.9433,-0.7582,-0.6149,-0.6792,-0.6989,-0.6792,-0.6069,-0.5381,-0.46,-0.3294,-0.3135,0.0,-0.327,0.0,0.0,0.0,0.0,0.0,0.0,0.0,0.0,0.0,0.0,0.0,0.0,0.0,0.0,0.0,-0.3677,-0.3705,-0.3716,-0.3748,-0.3771,-0.3788,-0.3779,-0.3772,-0.3772,-0.3772,-0.3772,-0.3772,-0.3772,-0.3772,-0.3772,-0.3772,-0.3772,-0.3772,-0.3772,-0.3772,-0.3772,-0.3772,-0.3772,-0.3772,-0.3772,-0.3779,-0.3788,0.0,0.0,0.0,0.0,0.0,0.0,-1.5666,-1.5666,-1.5666,-1.5666,-1.5645,-1.5634,0.0,0.0,0.0,-1.5601,-1.5601,-1.5698,-1.5996,-1.6183,-1.642,-1.672,-1.7346,-1.6639,-1.4452,-1.3416,-1.2139,-1.0618,-1.1867,-1.2489,-1.2462,-1.0017,-0.8928,-0.8996,-0.9359,-0.9537,-0.9671,-1.0932,-1.1264,-1.1104,-1.2129,-1.2388,-1.2164,-1.3216,0.0,0.0,0.0,0.0,0.0,0.0,0.0,0.0,-1.3652,-1.4196,-1.4586,-1.3567,-1.2695,-1.1824,-1.1026,-1.0724,-0.9888,-0.671,-0.6791,-0.742,-0.6076,-0.5766,-0.5712,-0.5845,-0.4391,-0.312,-0.3073,-0.3201,-0.3298,0.0,0.0,0.0,0.0,0.0,0.0,0.0,0.0,0.0,0.0,0.0,0.0,0.0,0.0,0.0,0.0,-0.3694,-0.3739,-0.3772,-0.3799,-0.3817,-0.382,-0.3788,-0.3772,-0.3775,-0.3772,-0.3772,-0.3772,-0.3772,-0.3772,-0.3772,-0.3772,-0.3772,-0.3772,-0.3772,-0.3772,-0.3772,-0.3772,-0.3772,-0.3772,-0.3772,-0.3788,-0.381,0.0,0.0,0.0,0.0,0.0,0.0,-1.6161,-1.6161,-1.6161,-1.6161,-1.5989,-1.5931,-1.5931,-1.5709,0.0,-1.5601,-1.5601,-1.5698,-1.5996,-1.6183,-1.642,-1.672,-1.7346,-1.7618,-1.749,-1.7554,-1.6907,-1.5479,-1.2384,-1.069,-1.0278,-0.9791,-0.9655,-0.9818,-0.9952,-1.0346,-1.0926,-1.2005,-1.2352,-1.237,-1.3555,-1.3935,-1.3832,-1.4027,-1.4018,0.0,0.0,0.0,0.0,0.0,0.0,0.0,-1.4164,-1.4659,-1.5061,-1.4821,-1.4143,-1.3473,-1.3472,-1.1986,-0.9999,-0.7933,-0.5718,-0.4048,-0.3805,-0.3711,-0.4177,-0.5677,-0.448,-0.3089,-0.3148,0.0,0.0,0.0,0.0,0.0,0.0,0.0,0.0,0.0,0.0,0.0,0.0,0.0,0.0,0.0,0.0,0.0,-0.367,-0.3705,-0.3739,-0.3772,-0.3779,-0.3803,-0.3848,-0.3799,-0.3782,0.0,-0.3782,-0.3772,-0.3772,-0.3772,-0.3772,-0.3772,-0.3772,-0.3772,-0.3772,-0.3772,-0.3772,-0.3772,-0.3772,-0.3772,-0.3772,-0.3772,-0.3775,-0.3786,0.0,0.0,0.0,0.0,0.0,0.0,0.0,0.0,-1.656,-1.6344,-1.6204,-1.6136,-1.6017,-1.5899,0.0,0.0,-1.5601,-1.5698,-1.5996,-1.6183,-1.6571,-1.7141,-1.7421,-1.7427,-1.7186,-1.7561,-1.7092,-1.5655,-1.3615,-1.2582,-1.2489,-1.1788,-1.1586,-1.1754,-1.183,-1.2022,-1.2434,-1.3671,-1.4045,-1.3976,-1.4509,-1.4659,-1.4432,-1.4432,-1.4326,-1.4172,-1.4164,0.0,0.0,0.0,0.0,0.0,0.0,0.0,-1.5096,-1.4546,-1.4165,-1.3686,-1.2702,-1.1991,-1.092,-0.8588,-0.6207,-0.4211,-0.3326,-0.3813,-0.4586,-0.4628,-0.3868,-0.3115,0.0,0.0,0.0,0.0,0.0,0.0,0.0,0.0,0.0,0.0,0.0,0.0,0.0,0.0,0.0,0.0,0.0,-0.3656,-0.3701,-0.373,-0.3761,-0.3793,-0.3806,-0.3828,-0.3859,-0.3817,-0.3806,-0.3838,-0.3793,-0.3772,-0.3772,-0.3772,-0.3772,-0.3772,-0.3772,-0.3772,-0.3772,-0.3772,-0.3772,-0.3772,-0.3772,-0.3772,-0.3775,-0.3788,-0.3803,-0.3817,0.0,0.0,0.0,0.0,0.0,0.0,0.0,0.0,0.0,-1.6549,-1.6463,-1.6344,-1.6158,-1.6093,-1.5935,0.0,0.0,0.0,-1.6061,-1.628,-1.684,-1.7744,-1.7604,-1.7151,-1.6302,-1.6577,-1.6076,-1.4621,-1.5531,-1.5973,0.0,0.0,0.0,-1.409,-1.4099,-1.4099,-1.4156,-1.5288,-1.5585,-1.5214,-1.5317,-1.5025,-1.4586,-1.4741,-1.4594,-1.4335,-1.4473,-1.4416,-1.427,-1.427,0.0,0.0,0.0,0.0,-1.5073,-1.3988,-1.377,-1.348,-1.1629,-1.1476,-1.1143,-0.8524,-0.6613,-0.5027,-0.3418,-0.4383,-0.5074,-0.3416,-0.314,0.0,0.0,0.0,0.0,0.0,0.0,0.0,0.0,0.0,0.0,0.0,0.0,0.0,0.0,0.0,0.0,0.0,0.0,-0.3663,-0.3723,-0.375,-0.3782,-0.3824,-0.3842,-0.3859,-0.3873,-0.3842,-0.3838,-0.3866,-0.3806,-0.3775,-0.3772,-0.3772,-0.3772,-0.3772,-0.3779,-0.3775,-0.3772,-0.3779,-0.3775,-0.3772,-0.3772,-0.3775,-0.3782,-0.3806,-0.3835,-0.3859,0.0,0.0,0.0,0.0,0.0,0.0,0.0,0.0,0.0,0.0,-1.7044,-1.6829,-1.6655,-1.6387,-1.6247,-1.6226,-1.6215,-1.6237,-1.6269,0.0,0.0,-1.8013,-1.8003,-1.8031,-1.803,-1.8494,-1.7925,-1.6407,-1.8281,-1.8722,0.0,0.0,0.0,-1.6034,0.0,0.0,-1.6236,-1.5941,-1.5658,-1.5496,-1.5642,-1.5472,-1.5139,-1.5155,-1.5041,-1.4862,-1.4887,-1.4781,-1.4635,-1.4635,-1.4635,0.0,0.0,0.0,-1.5376,-1.5073,-1.4486,-1.4012,-1.3933,-1.1384,-0.8358,-0.6727,-0.4876,-0.3385,0.0,0.0,-0.3444,0.0,0.0,0.0,0.0,0.0,0.0,0.0,0.0,0.0,0.0,0.0,0.0,0.0,0.0,0.0,0.0,0.0,0.0,0.0,-0.3636,-0.3663,-0.3723,-0.373,-0.3768,-0.3851,-0.3835,-0.3859,-0.3936,-0.388,-0.3869,-0.3898,-0.3838,-0.3795,-0.3772,-0.3772,-0.3772,-0.3772,-0.3799,-0.3795,-0.3775,-0.3799,-0.3795,-0.3772,-0.3772,-0.3788,-0.381,-0.3817,-0.3835,-0.3862,0.0,0.0,0.0,0.0,0.0,0.0,0.0,0.0,0.0,0.0,0.0,-1.712,-1.6883,-1.6646,-1.6452,-1.6323,-1.6431,-1.6624,-1.6894,-1.7217,-1.7615,-1.8078,-1.7949,-1.7992,-1.8239,-1.8573,-1.8452,-1.7918,-1.9117,-1.9508,0.0,-1.8593,-1.7965,0.0,0.0,0.0,0.0,0.0,0.0,-1.6478,-1.6164,0.0,0.0,0.0,-1.5488,-1.5407,-1.5309,-1.5228,-1.5163,-1.5163,-1.5163,-1.5163,-1.5163,0.0,0.0,0.0,-1.5296,-1.4938,-1.46,-1.1328,-0.7907,0.0,-0.5202,-0.3036,-0.305,-0.3078,-0.3101,0.0,0.0,0.0,0.0,0.0,0.0,0.0,0.0,0.0,0.0,0.0,0.0,0.0,0.0,0.0,0.0,0.0,0.0,0.0,-0.3652,-0.3681,-0.3723,-0.3744,-0.3768,-0.381,-0.3831,-0.3859,-0.3898,-0.3891,-0.3883,-0.388,-0.3869,-0.3842,-0.3795,-0.3795,-0.3788,-0.3772,-0.3786,-0.3786,-0.3772,-0.3786,-0.3782,-0.3772,-0.3772,-0.3779,-0.3795,-0.3827,-0.3848,-0.3866,0.0,0.0,0.0,0.0,0.0,0.0,0.0,0.0,0.0,0.0,0.0,-1.7464,-1.7217,0.0,0.0,0.0,-1.6894,-1.7227,-1.7701,-1.7895,-1.8078,-1.8261,-1.8089,-1.8046,-1.8175,-1.8401,-1.8605,-1.8789,0.0,0.0,-2.0307,-2.0479,-1.9943,0.0,-1.8529,-1.7995,0.0,0.0,0.0,-1.7107,0.0,0.0,0.0,0.0,0.0,0.0,0.0,0.0,-1.5577,-1.5577,-1.5553,-1.5512,-1.5512,-1.5634,0.0,0.0,0.0,-1.5766,-1.4872,0.0,-0.8803,-0.8372,-0.59,-0.3446,0.0,0.0,-0.3127,0.0,0.0,0.0,0.0,0.0,0.0,0.0,0.0,0.0,0.0,0.0,0.0,0.0,0.0,0.0,0.0,0.0,0.0,0.0,-0.3667,-0.3699,-0.3737,-0.3757,-0.3775,-0.3782,-0.3824,-0.3851,-0.3859,-0.3891,-0.3893,-0.3869,-0.3887,-0.3869,-0.3827,-0.3813,-0.3795,-0.3782,-0.3782,-0.3779,-0.3772,-0.3779,-0.3779,-0.3772,-0.3772,-0.3775,-0.3788,-0.3842,-0.3862,-0.3876,0.0,0.0,0.0,0.0,0.0,0.0,0.0,0.0,0.0,0.0,0.0,-1.7959,-1.7712,-1.7669,-1.7658,-1.7647,-1.7873,-1.8218,-1.8681,-1.8724,-1.8735,-1.8745,-1.8735,0.0,-1.8422,-1.8649,-1.8767,-1.8789,0.0,0.0,-2.0544,-2.0554,-2.0522,-2.023,-2.0018,-1.9241,-1.813,0.0,0.0,0.0,0.0,0.0,0.0,0.0,0.0,0.0,0.0,0.0,-1.5756,-1.5756,-1.565,-1.5512,-1.5512,-1.5634,-1.5772,0.0,0.0,0.0,0.0,-1.3025,0.0,-0.8687,-0.6283,-0.4254,0.0,0.0,0.0,0.0,0.0,0.0,0.0,0.0,0.0,0.0,0.0,0.0,0.0,0.0,0.0,0.0,0.0,0.0,0.0,0.0,0.0,0.0,-0.3681,-0.3705,-0.3764,-0.3772,-0.3786,-0.3813,-0.3817,-0.3831,-0.3859,-0.3891,-0.3904,-0.39,-0.3873,-0.3859,-0.3855,-0.3799,-0.3788,-0.3813,-0.3813,-0.3799,-0.3775,-0.3803,-0.3795,-0.3772,-0.3772,-0.3788,-0.3817,-0.3848,-0.3876,-0.3907,0.0,0.0,0.0,0.0,0.0,0.0,0.0,0.0,0.0,0.0,0.0,0.0,0.0,-1.8046,-1.7959,-1.7959,-1.8455,-1.8778,-1.8789,-1.8928,-1.8885,-1.8573,-1.8422,-1.8369,-1.8433,-1.8379,-1.8487,0.0,0.0,-1.9402,-2.0189,-2.0492,-2.0537,-2.0543,-2.0036,-1.9695,-1.9578,-1.8902,0.0,0.0,0.0,0.0,0.0,0.0,0.0,0.0,0.0,0.0,-1.6113,-1.6113,-1.6154,-1.6202,-1.6202,0.0,0.0,0.0,0.0,0.0,0.0,0.0,0.0,-0.836,-0.6191,-0.4416,-0.4154,-0.3616,0.0,0.0,0.0,0.0,0.0,0.0,0.0,0.0,0.0,0.0,0.0,0.0,0.0,0.0,0.0,0.0,0.0,0.0,0.0,0.0,0.0,-0.3692,-0.3712,-0.375,-0.3775,-0.3788,-0.3806,-0.3831,-0.3859,-0.3891,-0.3904,-0.3904,-0.3893,-0.3876,-0.3859,-0.3817,-0.3806,-0.3817,-0.3795,-0.3782,-0.3772,-0.3782,-0.3782,-0.3772,-0.3772,-0.3788,-0.382,-0.3848,-0.388,-0.3907,0.0,0.0,0.0,0.0,0.0,0.0,0.0,0.0,0.0,-1.8907,0.0,0.0,0.0,0.0,-1.8476,-1.8562,-1.8993,-1.9198,-1.9036,-1.9176,-1.9047,-1.8573,-1.8412,-1.8358,-1.8433,-1.8282,0.0,0.0,0.0,0.0,0.0,-2.0221,-2.0619,-2.092,-2.0103,-1.9947,0.0,0.0,0.0,-2.037,0.0,0.0,-1.8727,0.0,0.0,0.0,0.0,0.0,0.0,-1.6677,0.0,0.0,0.0,0.0,0.0,0.0,0.0,0.0,-1.3236,0.0,0.0,0.0,0.0,-0.5034,-0.4663,0.0,0.0,0.0,0.0,0.0,0.0,0.0,0.0,0.0,0.0,0.0,0.0,0.0,0.0,0.0,0.0,0.0,0.0,0.0,0.0,0.0,0.0,0.0,-0.3694,-0.3744,-0.3772,-0.3772,-0.3793,-0.3817,-0.3844,-0.3873,-0.3893,-0.3904,-0.3893,-0.3883,-0.3873,-0.3835,-0.382,-0.3831,-0.3799,-0.3786,-0.3786,-0.3775,-0.3779,-0.3786,-0.3786,-0.3806,-0.3835,-0.3862,-0.3887,-0.3907,0.0,0.0,0.0,0.0,0.0,0.0,0.0,0.0,-1.9092,-1.9092,0.0,0.0,0.0,0.0,0.0,-1.9499,-1.9521,-1.9521,-1.951,-1.9499,-1.9273,-1.8799,-1.8767,-1.8659,-1.8444,-1.8363,0.0,0.0,0.0,0.0,0.0,0.0,-2.0694,-2.1484,-2.0299,-1.9957,-2.0239,0.0,-2.0164,-1.959,0.0,-1.9809,-1.9805,0.0,0.0,0.0,-1.8152,-1.8004,0.0,-1.7529,0.0,0.0,0.0,0.0,0.0,0.0,0.0,0.0,0.0,0.0,0.0,0.0,0.0,0.0,-0.4919,0.0,0.0,0.0,0.0,0.0,0.0,0.0,0.0,0.0,0.0,0.0,0.0,0.0,0.0,0.0,0.0,0.0,0.0,0.0,0.0,0.0,0.0,-0.3692,-0.3723,-0.3754,-0.3772,-0.3772,-0.3772,-0.3786,-0.3817,-0.3844,-0.3873,-0.3904,-0.3873,-0.3876,-0.39,-0.3844,-0.3835,-0.3859,-0.3827,-0.3817,-0.3813,-0.3786,-0.3788,-0.3817,-0.3817,-0.3835,-0.3862,-0.3893,-0.3904,-0.3911,0.0,0.0,0.0,0.0,0.0,-1.881,-1.8875,-1.9176,-1.9402,0.0,0.0,0.0,0.0,0.0,-1.9758,-1.9994,-2.0016,-1.9941,-1.9758,-1.9435,-1.9112,-1.8799,-1.8466,-1.8336,-1.8433,-1.8272,0.0,0.0,0.0,0.0,0.0,0.0,0.0,0.0,-2.065,-2.0941,-2.1452,-2.0765,0.0,-2.1596,-2.1929,-2.1118,0.0,0.0,0.0,0.0,0.0,-1.7452,-1.7728,0.0,-1.7396,-1.7306,0.0,0.0,0.0,0.0,0.0,0.0,-1.1691,0.0,0.0,0.0,0.0,0.0,0.0,0.0,0.0,0.0,0.0,0.0,0.0,0.0,0.0,0.0,0.0,0.0,0.0,0.0,0.0,0.0,0.0,0.0,0.0,0.0,0.0,0.0,-0.3632,-0.366,-0.3692,-0.3744,-0.3772,-0.3772,-0.3772,-0.3775,-0.3786,-0.3813,-0.3842,-0.3873,-0.3862,-0.3876,-0.3904,-0.3866,-0.3851,-0.3859,-0.3827,-0.3817,-0.3813,-0.3786,-0.3775,-0.3786,-0.381,-0.3835,-0.3862,-0.3893,-0.3918,-0.3938,0.0,0.0,-1.811,-1.8567,-1.8842,-1.9036,-1.9338,-1.9618,-1.9833,0.0,0.0,0.0,0.0,0.0,-2.0059,-2.0199,-2.0124,-2.0005,-1.993,-1.9499,-1.923,-1.909,-1.8627,-1.8444,-1.8573,-1.8358,0.0,0.0,0.0,0.0,0.0,0.0,0.0,0.0,-2.0802,-2.1362,0.0,0.0,0.0,0.0,-2.1915,0.0,0.0,-1.9542,-1.9035,0.0,0.0,0.0,-1.835,-1.7837,-1.7721,0.0,0.0,0.0,0.0,0.0,0.0,0.0,0.0,0.0,0.0,0.0,0.0,0.0,0.0,0.0,0.0,0.0,0.0,0.0,0.0,0.0,0.0,0.0,0.0,0.0,0.0,0.0,0.0,0.0,0.0,0.0,0.0,0.0,0.0,-0.3589,-0.3618,-0.3652,-0.3699,-0.3733,-0.3757,-0.3772,-0.3772,-0.3772,-0.3772,-0.3803,-0.3824,-0.3842,-0.3851,-0.3869,-0.3887,-0.388,-0.3869,-0.3859,-0.3842,-0.3827,-0.3813,-0.3786,-0.3779,-0.3793,-0.3824,-0.3851,-0.388,-0.3911,-0.3936,-0.3949,0.0,0.0,-1.8078,-1.8889,-1.9103,-1.9445,-2.0081,-2.0177,-2.0264,0.0,-2.0565,0.0,0.0,0.0,0.0,0.0,-2.0091,-2.0038,-2.0038,-1.9725,-1.9564,-1.9542,-1.9101,-1.8842,-1.8789,-1.8584,0.0,0.0,0.0,0.0,0.0,0.0,0.0,0.0,-2.0802,-2.1426,0.0,0.0,0.0,-2.2556,-2.0918,-2.0901,0.0,0.0,-1.921,-2.0603,-1.8702,-1.8769,-1.9552,-1.839,-1.8111,0.0,0.0,0.0,0.0,0.0,-0.9922,0.0,0.0,0.0,0.0,0.0,0.0,0.0,0.0,0.0,0.0,0.0,0.0,0.0,0.0,0.0,0.0,0.0,0.0,0.0,0.0,0.0,0.0,0.0,0.0,0.0,0.0,-0.3538,-0.3551,-0.3583,-0.3614,-0.3656,-0.3719,-0.3723,-0.3737,-0.3772,-0.3772,-0.3772,-0.3772,-0.3799,-0.3813,-0.3817,-0.3842,-0.3859,-0.3866,-0.3891,-0.3887,-0.3859,-0.3859,-0.3842,-0.381,-0.3782,-0.3788,-0.3813,-0.3844,-0.3876,-0.3904,-0.3936,-0.3949,-0.3949,-1.8196,-1.8326,-1.8412,-1.8789,-1.9327,-1.9758,-1.9973,-1.9995,-2.007,-2.05,-2.0565,0.0,0.0,0.0,0.0,0.0,-2.0727,-2.0694,-2.0694,-2.0307,-1.9984,-1.9865,-1.951,-1.9176,-1.8789,-1.8735,-1.8713,0.0,0.0,0.0,0.0,0.0,0.0,0.0,-2.0802,-2.133,0.0,0.0,0.0,-2.2911,-2.274,0.0,-2.0663,-2.0714,-1.9926,-1.8978,-1.862,-1.871,-1.8847,-1.859,-1.859,-1.8328,0.0,0.0,0.0,-1.2206,0.0,0.0,0.0,0.0,0.0,0.0,-0.6963,0.0,0.0,0.0,0.0,0.0,0.0,0.0,0.0,0.0,0.0,0.0,0.0,0.0,0.0,0.0,0.0,0.0,0.0,0.0,0.0,-0.3495,-0.3524,-0.3551,-0.3583,-0.3625,-0.3688,-0.3692,-0.3716,-0.3772,-0.3772,-0.3772,-0.3772,-0.3779,-0.3793,-0.3817,-0.3824,-0.3848,-0.3898,-0.39,-0.3887,-0.3859,-0.3859,-0.3828,-0.3779,-0.3775,-0.3775,-0.3786,-0.3838,-0.3862,-0.3873,-0.3929,-0.3949,-0.3949,-1.8175,-1.8358,-1.8552,-1.8907,-1.9359,-1.979,-2.0222,-2.0296,-2.05,-2.0867,0.0,0.0,0.0,0.0,0.0,0.0,0.0,0.0,-2.1254,-2.0942,-2.0694,-2.0565,-2.0113,-1.9682,-1.939,-1.8961,-1.8842,0.0,0.0,0.0,0.0,0.0,0.0,0.0,0.0,0.0,0.0,0.0,-2.3354,-2.349,-2.2491,0.0,-2.0692,-2.018,-1.9363,-1.8598,-1.8688,-1.8728,-1.8753,-1.8931,-1.8931,0.0,-1.7091,-1.6008,-1.4815,0.0,-1.0943,-1.004,0.0,0.0,0.0,-0.7827,-0.6764,0.0,0.0,0.0,0.0,0.0,0.0,0.0,0.0,0.0,0.0,0.0,0.0,0.0,0.0,0.0,0.0,0.0,0.0,0.0,0.0,-0.3449,-0.3482,-0.354,-0.3558,-0.3587,-0.3632,-0.3663,-0.3694,-0.3726,-0.3754,-0.3772,-0.3772,-0.3772,-0.3779,-0.3795,-0.381,-0.3831,-0.3862,-0.3876,-0.3866,-0.3838,-0.3838,-0.3813,-0.3772,-0.3772,-0.3772,-0.3779,-0.3835,-0.3859,-0.3866,-0.3929,-0.3949,-0.3949,-1.8326,-1.8487,-1.8767,-1.9071,-1.9521,-1.9962,-2.0544,-2.078,-2.0996,0.0,0.0,0.0,0.0,0.0,0.0,0.0,0.0,0.0,-2.1839,-2.1633,-2.14,-2.1286,-2.0727,-2.0264,-1.993,-1.9305,-1.9112,-1.9286,0.0,0.0,0.0,0.0,0.0,0.0,0.0,0.0,0.0,0.0,0.0,-2.3657,0.0,-2.1427,-2.1545,-1.9889,-1.9192,-1.9165,-1.8971,-1.8874,-1.8931,-1.9297,-1.9115,-1.8493,-1.7202,-1.573,0.0,0.0,0.0,0.0,0.0,0.0,-0.8747,-0.7619,-0.6699,-0.5776,0.0,0.0,0.0,0.0,0.0,0.0,0.0,0.0,0.0,0.0,0.0,0.0,0.0,0.0,0.0,0.0,0.0,0.0,0.0,-0.342,-0.3465,-0.3531,-0.3551,-0.3572,-0.3596,-0.3639,-0.367,-0.3688,-0.3737,-0.3764,-0.3772,-0.3772,-0.3772,-0.3772,-0.3795,-0.381,-0.3817,-0.3842,-0.3838,-0.3817,-0.3817,-0.3799,-0.3772,-0.3779,-0.3782,-0.3786,-0.3838,-0.3859,-0.3866,-0.3929,-0.3949,-0.3949,-1.9082,-1.9219,-1.9391,-1.9445,-2.0177,-2.077,-2.0856,-2.0888,-2.0996,0.0,0.0,0.0,0.0,0.0,0.0,0.0,0.0,0.0,-2.2577,0.0,0.0,-2.1367,-2.12,-2.0845,-2.0188,-1.9876,-1.9844,-2.0091,0.0,0.0,0.0,0.0,0.0,0.0,-2.1857,0.0,0.0,0.0,-2.3397,0.0,-2.278,-2.3279,0.0,-2.2438,-2.1532,-2.082,-1.9817,-1.9427,-1.9475,0.0,-1.8922,-1.7565,0.0,-1.6214,-1.4499,-1.2648,0.0,0.0,0.0,0.0,0.0,0.0,-0.6315,-0.5786,0.0,0.0,-0.3197,-0.3228,0.0,0.0,0.0,0.0,0.0,0.0,0.0,0.0,0.0,0.0,0.0,0.0,0.0,0.0,0.0,0.0,-0.3524,-0.3509,-0.358,-0.3625,-0.3628,-0.3611,-0.3639,-0.3719,-0.3726,-0.3744,-0.3772,-0.3772,-0.3772,-0.3772,-0.3775,-0.3793,-0.3817,-0.382,-0.382,-0.3817,-0.3817,-0.3799,-0.3775,-0.3799,-0.3813,-0.3813,-0.3844,-0.3859,-0.3866,-0.3929,-0.3949,-0.3949,-1.9693,-1.9747,-1.9919,-1.9919,-2.0457,-2.0899,-2.0899,-2.1136,-2.1502,0.0,0.0,0.0,0.0,0.0,0.0,0.0,0.0,-2.3676,0.0,0.0,0.0,-2.2178,-2.1825,-2.1416,-2.0845,-2.0587,-2.0447,-2.0414,-2.0317,0.0,0.0,0.0,0.0,0.0,-2.2159,0.0,-2.2708,0.0,-2.4097,0.0,0.0,0.0,0.0,-2.2519,-2.0871,-2.0057,-1.956,-1.9427,-1.9532,0.0,-1.9434,0.0,0.0,0.0,0.0,0.0,0.0,0.0,0.0,0.0,0.0,0.0,0.0,0.0,-0.4649,-0.3745,-0.3238,-0.3231,0.0,0.0,0.0,0.0,0.0,0.0,-0.3291,0.0,0.0,0.0,0.0,0.0,0.0,0.0,0.0,0.0,0.0,0.0,0.0,-0.3639,-0.3587,-0.3621,-0.3652,-0.3674,-0.3708,-0.3739,-0.3772,-0.3772,-0.3772,-0.3772,-0.3772,-0.3779,-0.3788,-0.3788,-0.3788,-0.3793,-0.381,-0.3799,-0.3775,-0.3803,-0.3817,-0.382,-0.3848,-0.3869,-0.3891,-0.3932,-0.3949,-0.3949,-2.0533,0.0,-2.049,-2.0414,-2.0845,-2.12,-2.12,-2.1663,-2.2169,0.0,0.0,0.0,-2.3206,-2.3838,0.0,0.0,-2.4442,-2.45,0.0,0.0,-2.3442,-2.2945,-2.2437,-2.1976,-2.1577,-2.1254,-2.105,-2.0942,0.0,0.0,0.0,0.0,0.0,0.0,0.0,-2.2448,-2.2517,0.0,-2.4387,-2.5141,-2.527,-2.5522,-2.5583,-2.2435,-2.0594,-1.9561,-1.8964,-1.8807,-1.8862,-1.8549,-1.8299,0.0,-1.6554,0.0,0.0,0.0,0.0,0.0,-1.0012,0.0,0.0,0.0,0.0,0.0,0.0,0.0,0.0,0.0,0.0,0.0,0.0,0.0,0.0,0.0,0.0,0.0,0.0,0.0,0.0,0.0,0.0,0.0,0.0,0.0,0.0,0.0,0.0,0.0,-0.3562,-0.3621,-0.3649,-0.3636,-0.3688,-0.373,-0.3757,-0.3768,-0.3772,-0.3772,-0.3772,-0.3772,-0.3772,-0.3772,-0.3775,-0.3786,-0.3806,-0.381,-0.3795,-0.382,-0.3835,-0.3842,-0.3862,-0.3891,-0.3918,-0.3943,-0.3949,-0.3949,-2.1911,-2.1545,-2.1168,-2.092,-2.148,-2.1954,-2.1954,-2.2557,0.0,0.0,0.0,0.0,0.0,0.0,0.0,0.0,0.0,-2.5189,-2.4676,0.0,-2.4043,-2.3387,-2.2923,-2.2546,-2.2309,-2.1836,-2.1706,-2.1922,0.0,0.0,0.0,0.0,0.0,0.0,0.0,-2.1715,-2.0182,-2.2407,-2.3709,-2.4194,-2.4646,-2.3875,-2.258,0.0,-2.204,-2.0376,-1.8116,0.0,0.0,-1.6102,-1.4501,0.0,0.0,0.0,0.0,0.0,0.0,0.0,0.0,0.0,0.0,-0.7351,0.0,0.0,0.0,0.0,-0.3347,0.0,0.0,0.0,0.0,0.0,0.0,0.0,0.0,0.0,0.0,0.0,0.0,0.0,0.0,0.0,0.0,0.0,0.0,0.0,0.0,0.0,-0.3594,-0.3589,-0.3607,-0.3636,-0.3667,-0.3699,-0.3726,-0.3757,-0.3772,-0.3772,-0.3772,-0.3772,-0.3772,-0.3772,-0.3788,-0.3817,-0.3817,-0.3831,-0.3855,-0.3859,-0.3876,-0.39,-0.39,-0.3922,-0.3949,-0.3949,-0.3949,-0.3947,-2.1997,-2.1976,-2.19,-2.1653,-2.1814,-2.2137,-2.2622,-2.3021,0.0,0.0,0.0,0.0,0.0,-2.569,-2.5919,0.0,0.0,-2.5806,-2.484,-2.4734,0.0,-2.3195,-2.3162,-2.2902,0.0,0.0,-2.2374,0.0,0.0,0.0,0.0,0.0,0.0,0.0,0.0,-1.9572,0.0,0.0,0.0,0.0,0.0,-2.5363,-2.4597,0.0,0.0,-1.8136,-1.7553,-1.6708,0.0,-1.5284,-1.4963,-1.4604,-1.3274,-1.2683,-1.2201,-1.0614,-1.0302,0.0,0.0,0.0,-0.9772,-0.8385,0.0,0.0,0.0,0.0,0.0,0.0,0.0,0.0,0.0,0.0,0.0,0.0,0.0,0.0,0.0,0.0,0.0,0.0,0.0,0.0,0.0,0.0,0.0,0.0,0.0,0.0,0.0,-0.3587,-0.3614,-0.3604,-0.3652,-0.3694,-0.3726,-0.3737,-0.375,-0.3772,-0.375,-0.375,-0.3772,-0.3772,-0.3788,-0.3817,-0.3838,-0.3848,-0.3859,-0.388,-0.3893,-0.3904,-0.3904,-0.3922,-0.3949,-0.3949,-0.3949,-0.3943,-2.234,-2.2352,-2.2352,-2.2029,-2.204,-2.2309,0.0,0.0,0.0,0.0,-2.5308,0.0,-2.6087,0.0,-2.632,0.0,-2.651,-2.6247,-2.536,-2.5441,0.0,-2.3827,-2.3882,-2.3531,0.0,0.0,0.0,0.0,0.0,-2.1412,0.0,0.0,0.0,0.0,0.0,-1.8072,-1.988,0.0,-2.2693,0.0,0.0,-2.4584,0.0,0.0,-1.9722,-1.8075,0.0,-1.4996,-1.4178,-1.3591,-1.3647,-1.3701,-1.2375,-1.2177,-1.2092,-1.0652,-1.0326,-1.0375,-1.0289,-1.0265,0.0,-0.8926,-0.8085,0.0,-0.5576,0.0,-0.398,0.0,0.0,0.0,0.0,0.0,0.0,0.0,0.0,0.0,0.0,0.0,0.0,0.0,0.0,0.0,0.0,0.0,0.0,0.0,0.0,0.0,0.0,0.0,-0.3611,-0.3589,-0.3649,-0.3692,-0.3708,-0.3733,-0.375,-0.3772,-0.4684,-0.5037,-0.5064,-0.5064,-0.5084,-0.5127,-0.4206,-0.3866,-0.3876,-0.3898,-0.3911,-0.3918,-0.3907,-0.3922,-0.3949,-0.3949,-0.3936,-0.3911,-2.2751,-2.2665,-2.2535,-2.2126,-2.2245,0.0,0.0,0.0,-2.4687,0.0,-2.5819,-2.6583,-2.704,-2.6697,-2.6494,-2.6936,-2.681,-2.6504,-2.6162,-2.6511,0.0,0.0,-2.4951,-2.4437,-2.3408,0.0,0.0,0.0,0.0,0.0,0.0,0.0,0.0,0.0,-1.5782,0.0,-1.8092,-1.9815,-2.2268,-2.4939,-2.2994,-2.184,-2.0992,-1.8142,-1.8546,-1.9846,-1.4487,-1.2717,-1.2511,-1.0999,-1.049,-1.049,-1.049,-1.0432,-1.0367,-1.0363,-1.0302,-1.0253,-1.033,-1.0355,-1.0164,-0.894,0.0,0.0,0.0,0.0,-0.4851,0.0,0.0,0.0,0.0,0.0,0.0,0.0,0.0,0.0,0.0,0.0,0.0,0.0,0.0,0.0,0.0,0.0,0.0,0.0,0.0,0.0,0.0,0.0,-0.3589,-0.3587,-0.3645,-0.3681,-0.3681,-0.3737,-0.3886,-0.4008,-0.6352,-0.7523,-0.7643,-0.7643,-0.7677,-0.7503,-0.5163,-0.3997,-0.3904,-0.3904,-0.3925,-0.3947,-0.3918,-0.3922,-0.3947,-0.3947,-0.3911,-0.3855,-2.2546,-2.2428,-2.2611,0.0,-2.3343,-2.3365,0.0,0.0,0.0,0.0,-2.6631,-2.7152,-2.7337,-2.7217,-2.7061,-2.7051,-2.7148,0.0,0.0,0.0,0.0,-2.4408,-2.4485,-2.4247,-2.3418,-2.3688,-2.282,-2.0823,0.0,0.0,-1.7763,0.0,0.0,0.0,0.0,0.0,-1.8391,-1.8981,-2.0747,-2.3021,-2.0975,-2.0309,0.0,0.0,-1.6131,-1.6656,-1.3839,-1.2087,-1.0999,-1.059,-1.049,-1.049,-1.049,-1.0522,-1.053,-1.0473,-1.0481,-1.049,-1.0383,-1.0404,-1.0244,-0.8954,-0.8784,-0.8384,0.0,0.0,0.0,0.0,0.0,0.0,0.0,0.0,0.0,0.0,0.0,0.0,0.0,0.0,0.0,-0.3021,0.0,0.0,0.0,0.0,0.0,0.0,0.0,0.0,0.0,0.0,0.0,-0.3558,-0.3614,-0.3656,-0.3681,-0.3694,-0.4655,-0.6587,-0.7246,-0.8529,-1.0333,-1.0333,-0.9323,-0.7616,-0.6955,-0.5564,-0.3907,-0.3929,-0.3943,-0.3949,-0.3943,-0.3929,-0.3914,-0.3914,-0.3891,-0.3855,-2.2783,0.0,0.0,-2.3634,0.0,0.0,-2.4266,0.0,0.0,-2.7129,-2.7534,0.0,-2.8089,-2.7799,-2.7534,-2.7389,-2.751,0.0,-2.6605,0.0,0.0,-2.4751,-2.4763,-2.4502,-2.372,-2.3871,0.0,-2.0327,0.0,0.0,-1.5843,0.0,0.0,0.0,0.0,-1.3544,0.0,-1.8256,-1.9804,-2.1217,-1.9017,0.0,0.0,-1.4967,-1.3866,-1.4004,-1.2432,-1.126,-1.0551,-1.0596,-1.0604,-1.0604,-1.0604,-1.0604,-1.0604,-1.0563,-1.0551,-1.0543,-1.0485,-1.0506,-1.0429,-0.9667,-0.9565,-0.9254,-0.8076,-0.7233,-0.6517,0.0,0.0,0.0,0.0,0.0,0.0,0.0,0.0,0.0,0.0,0.0,0.0,0.0,-0.3119,0.0,0.0,0.0,0.0,0.0,0.0,0.0,0.0,0.0,0.0,-0.3565,-0.3625,-0.3663,-0.3681,-0.4879,-0.6088,-0.7523,-0.9705,-1.1566,-1.2901,-1.2901,-1.1524,-0.911,-0.8114,-0.6138,-0.3887,-0.3918,-0.3938,-0.3949,-0.3936,-0.3918,-0.39,-0.3876,-0.3855,-0.3838,0.0,0.0,0.0,0.0,0.0,0.0,0.0,-2.6455,0.0,-2.8183,0.0,-2.8379,-2.885,-2.8282,-2.7848,-2.7811,0.0,-2.7663,-2.7392,-2.7099,-2.6572,-2.5517,-2.5257,-2.4851,-2.4118,-2.3967,-2.2746,0.0,0.0,0.0,0.0,0.0,0.0,0.0,0.0,0.0,0.0,-1.7689,-1.897,0.0,-1.6988,-1.6282,-1.6337,-1.3253,-1.2238,-1.2263,-1.1193,-1.0649,-1.0649,-1.0743,-1.0775,-1.0775,-1.0784,-1.073,-1.0669,-1.0669,-1.0604,-1.0551,-1.0616,-1.0637,-1.0624,-1.0616,-1.0575,-1.032,-0.9279,-0.8859,-0.8131,-0.6003,-0.5324,-0.4851,0.0,0.0,0.0,0.0,0.0,0.0,0.0,0.0,0.0,0.0,0.0,0.0,0.0,0.0,0.0,0.0,0.0,0.0,0.0,0.0,0.0,-0.3583,-0.3636,0.0,-0.4252,0.0,-0.7915,-0.8595,-1.2915,-1.5132,-1.547,-1.5126,-1.3601,-1.1161,-0.8657,-0.6223,-0.3862,-0.3898,-0.3925,-0.3947,-0.3922,-0.3904,-0.3893,-0.3842,-0.3817,-0.3806,0.0,0.0,0.0,0.0,0.0,-2.6545,-2.7306,-2.7579,-2.7745,-2.7886,-2.8117,-2.8234,-2.8331,-2.8222,-2.8041,-2.7836,-2.8005,0.0,0.0,0.0,0.0,-2.5273,-2.5042,-2.4642,-2.4118,-2.4441,-2.261,0.0,0.0,0.0,0.0,0.0,0.0,0.0,0.0,0.0,-1.5886,-1.6685,0.0,-1.7017,-1.4837,-1.413,-1.4457,-1.3361,-1.2689,-1.2291,-1.179,-1.1235,-1.0743,-1.0837,-1.0869,-1.0877,-1.0951,-1.0963,-1.0951,-1.0951,-1.089,-1.0804,-1.0743,-1.073,-1.071,-1.0637,-1.0657,-1.069,-1.0412,-0.9495,-0.8468,-0.7,-0.5894,-0.4895,-0.367,0.0,0.0,0.0,0.0,0.0,0.0,0.0,0.0,0.0,0.0,-0.3253,0.0,0.0,0.0,0.0,0.0,0.0,0.0,0.0,0.0,0.0,-0.3562,0.0,0.0,0.0,-0.955,-1.3857,-1.4591,-1.6064,-1.8059,-1.5947,-1.3601,-1.1161,-0.8707,-0.6252,-0.3862,-0.3918,-0.3947,-0.3949,-0.3943,-0.3911,-0.3866,-0.3855,-0.382,-0.3779,0.0,0.0,0.0,0.0,0.0,0.0,0.0,-2.815,0.0,-2.8617,-2.8596,-2.8729,-2.8994,-2.891,-2.8777,-2.8644,-2.8463,-2.8138,-2.7686,-2.6782,-2.6124,-2.5595,-2.5101,-2.47,-2.4474,-2.457,-2.2572,-1.8412,0.0,0.0,0.0,0.0,0.0,0.0,0.0,-1.3497,0.0,0.0,0.0,-1.4976,-1.4002,-1.3749,-1.3955,-1.331,-1.2872,-1.2362,-1.1907,-1.1382,-1.0837,-1.0931,-1.0963,-1.0963,-1.1016,-1.1024,-1.1024,-1.1024,-1.0992,-1.0951,-1.091,-1.089,-1.0869,-1.0784,-1.0751,-1.0743,-1.0698,-1.0211,-0.9279,-0.7483,-0.6574,-0.566,-0.3763,-0.3471,0.0,0.0,0.0,0.0,0.0,0.0,0.0,0.0,0.0,0.0,0.0,0.0,0.0,0.0,0.0,0.0,0.0,0.0,0.0,0.0,0.0,0.0,0.0,0.0,0.0,-1.4994,-1.6226,-1.7518,-1.8762,-1.7581,-1.4931,-1.1221,-1.0008,-0.733,-0.3887,-0.3932,-0.3949,-0.3947,-0.3914,-0.3883,-0.3855,-0.3824,-0.3795,-0.3772,0.0,-2.5483,0.0,0.0,-2.7299,0.0,-2.8088,-2.8619,-2.9091,-2.9296,-2.9188,-2.926,-2.967,-2.9526,-2.9405,-2.9405,-2.8923,-2.8433,-2.8124,-2.7048,-2.6252,-2.5913,-2.5278,-2.4937,-2.4883,-2.471,-2.2859,0.0,0.0,0.0,0.0,0.0,0.0,0.0,0.0,0.0,0.0,0.0,-1.3629,-1.3613,-1.3738,-1.3868,-1.3993,-1.3347,-1.2812,-1.2423,-1.1893,-1.1291,-1.0931,-1.1024,-1.1057,-1.1057,-1.1078,-1.1078,-1.1078,-1.1078,-1.1065,-1.1057,-1.1057,-1.1037,-1.1004,-1.0931,-1.0869,-1.0816,-1.0816,-1.0743,-1.0119,-0.8011,-0.7063,-0.6005,-0.3889,-0.3491,0.0,0.0,0.0,0.0,0.0,0.0,0.0,0.0,0.0,0.0,0.0,0.0,0.0,0.0,0.0,0.0,0.0,0.0,0.0,0.0,0.0,-0.6374,-0.8906,0.0,-1.3155,0.0,-1.7639,-1.862,-1.8708,-1.8201,-1.5571,-1.1286,-1.0724,-0.8069,-0.3914,-0.3938,-0.3947,-0.3936,-0.3887,-0.3862,-0.3844,-0.3799,-0.3779,-0.3772,0.0,0.0,0.0,0.0,0.0,0.0,-2.9063,-2.9151,-2.9019,-2.9043,-2.9236,-2.9393,-2.9441,-2.9417,-2.9405,-2.9405,-2.8923,-2.8416,-2.7886,-2.7257,-2.6639,-2.5907,-2.5572,-2.5356,-2.5152,-2.512,-2.3943,0.0,0.0,-1.8023,0.0,0.0,0.0,0.0,0.0,0.0,0.0,-1.3624,-1.3705,-1.3613,-1.3738,-1.3923,-1.4014,-1.3466,-1.2876,-1.2437,-1.1974,-1.1388,-1.1024,-1.1118,-1.1151,-1.1163,-1.1237,-1.1265,-1.1265,-1.1265,-1.1204,-1.1151,-1.1151,-1.109,-1.1024,-1.1016,-1.1004,-1.1004,-1.1004,-1.0931,-1.0527,-0.9169,-0.7041,-0.5098,-0.3792,-0.3513,-0.3489,0.0,0.0,0.0,0.0,0.0,-0.3397,-0.337,0.0,0.0,0.0,0.0,0.0,0.0,0.0,0.0,0.0,0.0,0.0,-0.7237,0.0,-1.1542,-1.4317,-1.4363,-1.5647,-1.8174,-1.8552,-1.8674,-1.8451,-1.6484,-1.399,-1.1175,-0.9053,-0.6471,-0.3947,-0.3949,-0.3932,-0.3907,-0.39,-0.3866,-0.382,-0.3813,-0.3795,-0.3772,0.0,0.0,0.0,0.0,0.0,0.0,0.0,-2.9598,-2.9731,-2.9731,-2.9827,-2.9888,-2.9888,-3.0177,-3.0358,-3.0358,-2.986,-2.9349,-2.8723,-2.7795,-2.7069,-2.6519,-2.6013,-2.569,-2.5593,-2.5453,-2.4325,0.0,0.0,0.0,0.0,0.0,0.0,0.0,0.0,-1.3548,-1.3471,-1.3694,-1.376,-1.3722,-1.3841,-1.3988,-1.4025,-1.3806,-1.3212,-1.2437,-1.2429,-1.1746,-1.1037,-1.1131,-1.1196,-1.1245,-1.1278,-1.129,-1.129,-1.129,-1.1265,-1.1237,-1.1237,-1.1216,-1.1171,-1.1118,-1.111,-1.109,-1.1037,-1.0992,-1.0626,-0.9373,-0.7111,-0.5235,-0.4755,-0.3997,-0.3558,0.0,0.0,0.0,0.0,0.0,0.0,-0.5404,0.0,-0.5428,0.0,0.0,0.0,0.0,0.0,0.0,0.0,0.0,0.0,-0.9803,0.0,-1.2041,-1.4834,-1.4559,-1.5746,-1.8409,-1.8464,-1.8552,-1.8674,-1.7736,-1.5162,-1.1255,-0.8881,-0.6389,-0.3949,-0.3929,-0.3914,-0.39,-0.3866,-0.3838,-0.3813,-0.3795,-0.3782,-0.3772,-2.7945,0.0,-2.8847,0.0,-2.9168,-2.9465,-2.9622,-2.9972,-3.0274,-3.0419,-3.0515,-3.0527,-3.0455,-3.0781,-3.0998,-3.0998,-3.0373,-2.9747,-2.9317,-2.8208,-2.7382,-2.7144,-2.653,0.0,-2.6185,-2.5884,-2.498,-2.3473,-2.1581,0.0,0.0,-1.5704,0.0,0.0,-1.3602,-1.3586,-1.3558,-1.3722,-1.3787,-1.3798,-1.395,-1.4069,-1.4041,-1.3996,-1.3399,-1.2596,-1.248,-1.1895,-1.1078,-1.1143,-1.1216,-1.129,-1.129,-1.129,-1.129,-1.129,-1.129,-1.129,-1.129,-1.129,-1.1278,-1.1216,-1.1204,-1.1184,-1.1118,-1.109,-1.0709,-0.9418,-0.7508,-0.5956,-0.5413,-0.4359,-0.36,-0.3538,0.0,0.0,0.0,-0.4891,0.0,0.0,-0.7048,-0.7274,-0.7988,0.0,0.0,0.0,0.0,0.0,0.0,0.0,0.0,0.0,0.0,0.0,0.0,-1.554,-1.6346,-1.8321,-1.8355,-1.8498,-1.8687,-1.8078,-1.5431,-1.1339,-0.8915,-0.6389,-0.3936,-0.3914,-0.3893,-0.3873,-0.3835,-0.381,-0.3799,-0.3779,-0.3772,-0.3772,-2.8896,-2.9188,-2.9489,-2.9743,-2.9574,-2.9586,-3.0129,-3.0214,-3.0407,-3.0914,-3.1215,-3.1276,-3.1022,-3.0998,-3.0998,-3.0998,-2.9944,-2.9317,-2.9317,-2.8269,-2.7744,0.0,0.0,-2.6939,-2.6939,-2.6465,-2.611,-2.5862,0.0,0.0,-2.1846,-1.782,-1.5139,-1.3602,-1.3602,-1.3537,-1.3439,-1.3684,-1.3787,-1.3809,-1.4042,-1.414,-1.4052,-1.3735,-1.3255,-1.2593,-1.2127,-1.1661,-1.1163,-1.1163,-1.1216,-1.129,-1.129,-1.129,-1.129,-1.129,-1.129,-1.129,-1.129,-1.129,-1.129,-1.129,-1.129,-1.129,-1.129,-1.1225,-1.0792,-0.9435,-0.8263,-0.6971,-0.5736,-0.4485,-0.3589,-0.3589,0.0,0.0,0.0,-0.3544,0.0,-0.7153,-0.7494,-0.8536,-1.0842,0.0,0.0,0.0,0.0,0.0,0.0,0.0,0.0,-1.4946,-1.6858,0.0,-1.8742,-1.8321,-1.8158,-1.8321,-1.8464,-1.8531,-1.843,-1.6139,-1.3877,-1.1423,-0.8881,-0.6214,-0.3904,-0.3904,-0.3869,-0.3817,-0.3817,-0.3799,-0.3772,-0.3772,-0.3772,-0.3772,-2.9467,-2.9787,-3.0045,-3.0298,-3.0274,-3.0346,-3.0696,-3.0902,-3.1071,-3.124,-3.1505,-3.171,-3.1807,-3.1662,-3.1553,0.0,-3.0799,-3.0256,0.0,-2.889,-2.8147,-2.7887,-2.7445,-2.7262,-2.7424,-2.6961,-2.6681,-2.6605,0.0,0.0,0.0,-1.5679,-1.3945,-1.3363,-1.3531,-1.3586,-1.3564,-1.3803,-1.395,-1.4031,-1.4108,-1.4238,-1.439,-1.4247,-1.387,-1.3384,-1.2915,-1.229,-1.1747,-1.1345,-1.1265,-1.129,-1.129,-1.129,-1.129,-1.129,-1.129,-1.129,-1.129,-1.129,-1.129,-1.129,-1.129,-1.129,-1.129,-1.1265,-1.0871,-0.9509,-0.8333,-0.7044,-0.5715,-0.4449,-0.3652,-0.3652,-0.3636,0.0,-0.358,0.0,-0.6776,-0.9243,-0.9606,-1.0494,0.0,-1.1732,0.0,0.0,0.0,0.0,0.0,0.0,0.0,0.0,-1.7848,0.0,-1.8464,-1.8321,-1.8267,-1.8321,-1.8464,-1.8586,-1.8687,-1.8157,-1.6549,-1.41,-1.3336,-1.0575,-0.657,-0.6506,-0.5384,-0.3813,-0.3793,-0.3779,-0.3772,-0.3772,-0.3772,-0.3772,-3.0214,-3.0395,-3.0564,-3.0721,-3.0757,-3.0841,-3.1107,-3.1288,-3.1457,-3.1662,-3.1843,-3.206,-3.2314,-3.2205,0.0,-3.1785,-3.1222,-3.0573,-3.0031,-2.9123,-2.8433,-2.8264,-2.7822,-2.7639,-2.7779,-2.7402,0.0,-2.7208,-2.5696,-2.2703,-1.8222,-1.6961,-1.5332,-1.3515,-1.3667,-1.3738,-1.3749,-1.3944,-1.4069,-1.4151,-1.4238,-1.4363,-1.4515,-1.4602,-1.4337,-1.3723,-1.3261,-1.271,-1.2027,-1.1503,-1.129,-1.129,-1.129,-1.129,-1.129,-1.129,-1.129,-1.129,-1.129,-1.129,-1.129,-1.129,-1.129,-1.129,-1.129,-1.129,-1.1039,-1.0168,-0.864,-0.722,-0.6361,-0.485,-0.3694,-0.3684,-0.4482,-0.504,-0.4985,0.0,-0.9418,0.0,0.0,0.0,0.0,-1.4562,-1.3783,0.0,0.0,0.0,0.0,0.0,0.0,-1.8329,-1.8158,0.0,-1.8389,-1.8355,-1.8355,-1.8409,-1.8552,-1.8674,-1.8762,-1.8959,-1.7638,-1.5185,-1.5255,-1.2412,-0.772,-0.7643,-0.6064,-0.3799,-0.3779,-0.3772,-0.3772,-0.3772,-0.3772,-0.3772,-3.0902,-3.101,0.0,0.0,-3.1059,0.0,-3.1409,-3.1457,-3.165,-3.2157,-3.2229,-3.2326,-3.2592,-3.2616,-3.2299,-3.1774,0.0,0.0,0.0,-2.9174,-2.8727,-2.8727,-2.8296,-2.8059,-2.8059,-2.7801,-2.7661,-2.7755,-2.7534,-2.5289,-2.1021,-2.0701,-1.8352,-1.428,-1.4075,-1.3972,-1.3977,-1.4097,-1.4151,-1.4178,-1.4407,-1.4515,-1.4548,-1.4771,-1.4402,-1.3839,-1.3363,-1.269,-1.2105,-1.1524,-1.129,-1.129,-1.129,-1.129,-1.129,-1.129,-1.129,-1.129,-1.129,-1.129,-1.129,-1.129,-1.129,-1.129,-1.129,-1.129,-1.129,-1.1169,-0.9296,-0.7627,-0.7455,-0.5475,-0.3835,-0.3922,-0.5864,-0.7472,-0.7696,-0.9565,-1.1964,0.0,0.0,0.0,0.0,-1.862,-1.8531,0.0,0.0,0.0,0.0,0.0,-1.8477,-1.8301,-1.8057,-1.8111,-1.8511,-1.8409,-1.8409,-1.8552,-1.8694,-1.8762,-1.8762,-1.8782,-1.756,-1.5313,-1.5313,-1.2469,-0.7854,-0.7848,-0.6279,-0.3772,-0.3772,-0.3772,-0.3772,-0.3772,-0.3772,-0.3772,0.0,0.0,-3.13,-3.13,-3.1638,-3.194,-3.2,-3.2181,-3.235,-3.2483,-3.2495,-3.2592,-3.2857,-3.2463,-3.2091,-3.162,-3.1152,-3.0703,-3.0605,-2.9558,-2.8996,-2.8996,-2.8705,-2.8543,-2.8543,-2.8134,-2.7833,-2.7755,-2.5932,-2.4538,-2.3363,-1.9952,-1.7708,-1.6645,-1.4811,-1.4097,-1.4097,-1.4222,-1.4336,-1.4417,-1.4477,-1.4619,-1.4782,-1.4255,-1.4102,-1.3941,-1.2807,-1.2344,-1.2105,-1.1524,-1.129,-1.129,-1.129,-1.129,-1.129,-1.129,-1.129,-1.129,-1.129,-1.129,-1.129,-1.129,-1.129,-1.129,-1.129,-1.129,-1.1051,-0.9997,-0.9413,-0.8351,-0.6457,-0.5634,-0.5511,-0.6434,-0.713,-0.8162,-1.0072,-1.074,-1.2089,0.0,-1.4732,-1.5581,-1.7967,-1.8124,-1.8179,0.0,0.0,0.0,0.0,-1.8654,-1.8531,-1.8158,-1.8409,-1.8498,-1.8375,-1.8565,-1.8674,-1.8708,-1.8742,-1.8762,-1.8762,-1.8884,-1.8594,-1.8039,-1.8039,-1.5195,-1.0568,-1.0507,-0.7775,-0.3772,-0.3772,-0.3772,-0.3772,-0.3772,-0.3772,-0.3772,-3.1336,-3.1578,-3.1759,-3.1759,-3.2109,-3.2374,-3.2374,-3.2495,-3.2628,-3.2748,-3.2748,-3.2881,-3.3147,-3.2602,-3.2226,-3.2017,-3.1215,-3.0611,-3.0388,-2.961,-2.9222,-2.9222,-2.8996,-2.8877,-2.8877,-2.863,-2.8382,-2.8134,-2.6924,-2.5624,-2.4362,-2.0903,-1.8596,-1.7291,-1.5116,-1.4195,-1.4151,-1.4336,-1.4445,-1.4515,-1.4619,-1.4744,-1.4858,-1.457,-1.4285,-1.3981,-1.3041,-1.2461,-1.2105,-1.1524,-1.129,-1.129,-1.129,-1.129,-1.129,-1.129,-1.129,-1.129,-1.129,-1.129,-1.129,-1.129,-1.129,-1.129,-1.129,-1.129,-1.1051,-1.0352,-0.9769,-0.9179,-0.8351,-0.7761,-0.7761,-0.9042,-1.0213,-1.1366,-1.271,-1.3824,-1.5033,-1.6236,-1.6337,-1.6727,-1.808,-1.8124,-1.8145,-1.8321,-1.8464,0.0,-1.8565,-1.8694,-1.862,-1.8301,-1.8531,-1.8586,-1.8423,-1.8586,-1.8694,-1.8762,-1.8762,-1.8762,-1.8762,-1.885,-1.8884,-1.8884,-1.8884,-1.6754,-1.2976,-1.175,-0.9042,-0.5413,-0.4243,-0.3772,-0.3772,-0.3772,-0.3772,-0.3772,-3.1867,-3.2109,-3.2254,-3.2254,-3.2471,-3.2652,-3.2652,-3.2688,-3.2785,-3.3014,-3.305,-3.3135,-3.324,-3.2691,-3.2378,-3.2254,-3.124,-3.0348,-3.0008,-2.9679,-2.948,-2.948,-2.9254,-2.9136,-2.9136,-2.9103,-2.8963,-2.8705,-2.8705,-2.7482,-2.5019,-2.2905,-2.0412,-1.7784,-1.5753,-1.4592,-1.4178,-1.439,-1.4488,-1.4515,-1.4744,-1.4841,-1.4869,-1.4877,-1.4459,-1.3864,-1.328,-1.2582,-1.1988,-1.1524,-1.129,-1.129,-1.129,-1.129,-1.129,-1.129,-1.129,-1.129,-1.129,-1.129,-1.129,-1.129,-1.129,-1.129,-1.129,-1.129,-1.129,-1.129,-1.0469,-0.9997,-1.1278,-1.045,-1.0231,-1.1797,-1.3767,-1.517,-1.5705,-1.7311,-1.8599,-1.8599,-1.8423,-1.8321,-1.8321,-1.8287,-1.8199,-1.8077,-1.8301,-1.8423,-1.8321,-1.8586,-1.8674,-1.8565,-1.8565,-1.8565,-1.8565,-1.8565,-1.864,-1.8762,-1.8762,-1.8762,-1.8762,-1.8762,-1.8762,-1.8762,-1.8762,-1.7361,-1.4888,-1.2784,-1.0096,-0.7289,-0.5182,-0.4126,-0.3772,-0.3772,-0.3772,-0.3772,-3.2423,-3.2495,-3.2531,-3.2531,-3.2748,-3.2917,-3.2917,-3.3111,-3.3268,-3.3304,-3.3304,-3.3204,-3.2691,-3.213,-3.1578,-3.1026,-3.0348,-3.01,-3.0563,-3.0067,-2.9706,-2.9706,-2.948,-2.9362,-2.9362,-2.9168,-2.8963,-2.8705,-2.8705,-2.8348,-2.7757,-2.5368,-2.294,-2.0615,-1.8246,-1.6176,-1.4292,-1.4336,-1.4407,-1.4515,-1.4646,-1.476,-1.4869,-1.4401,-1.3864,-1.328,-1.2582,-1.1988,-1.1407,-1.129,-1.129,-1.129,-1.129,-1.129,-1.129,-1.129,-1.129,-1.129,-1.129,-1.129,-1.129,-1.129,-1.129,-1.129,-1.129,-1.129,-1.129,-1.129,-1.1169,-1.1169,-1.1975,-1.1503,-1.2053,-1.5282,-1.5411,-1.6106,-1.8617,-1.8939,-1.8918,-1.8918,-1.8565,-1.8321,-1.8321,-1.8091,-1.7914,-1.7901,-1.8057,-1.8213,-1.8321,-1.8477,-1.862,-1.8728,-1.8728,-1.8728,-1.8728,-1.8728,-1.8742,-1.8762,-1.8762,-1.8762,-1.8762,-1.8762,-1.8762,-1.8762,-1.8762,-1.7361,-1.501,-1.4533,-1.1741,-0.7406,-0.7054,-0.5649,-0.3772,-0.3772,-0.3772,-0.3772,-3.2555,-3.2688,-3.2785,-3.2785,-3.3014,-3.3183,-3.3183,-3.3304,-3.3376,-3.3376,-3.3376,-3.3152,-3.2591,-3.1928,-3.1364,-3.0811,-3.0111,-2.9884,-3.0224,-3.0008,-2.9771,-2.9771,-2.9652,-2.9534,-2.9416,-2.9308,-2.9071,-2.8705,-2.8705,-2.8522,-2.8177,-2.588,-2.3521,-2.0951,-1.8739,-1.6464,-1.4238,-1.4363,-1.445,-1.4515,-1.4629,-1.4744,-1.4858,-1.457,-1.4168,-1.3635,-1.2924,-1.2344,-1.1763,-1.1407,-1.129,-1.129,-1.129,-1.129,-1.129,-1.129,-1.129,-1.129,-1.129,-1.129,-1.129,-1.129,-1.129,-1.129,-1.129,-1.129,-1.129,-1.129,-1.2105,-1.3149,-1.4072,-1.4549,-1.556,-1.7931,-1.7756,-1.7775,-1.9253,-1.9169,-1.8993,-1.8993,-1.8599,-1.8355,-1.8423,-1.8091,-1.7901,-1.7989,-1.8057,-1.8199,-1.8423,-1.8498,-1.864,-1.8884,-1.8796,-1.8762,-1.8762,-1.8762,-1.8762,-1.8762,-1.8762,-1.8762,-1.8762,-1.8762,-1.8762,-1.8762,-1.8762,-1.8181,-1.6884,-1.4072,-1.162,-0.9279,-0.6587,-0.4829,-0.3772,-0.3772,-0.3772,-0.3772,-3.2748,-3.2942,-3.3074,-3.3074,-3.3243,-3.3376,-3.3376,-3.3376,-3.3376,-3.3376,-3.3376,-3.3152,-3.2591,-3.1928,-3.1364,-3.0811,-3.0111,-2.9771,-2.9771,-2.9771,-2.9771,-2.9771,-2.9771,-2.9652,-2.9416,-2.9416,-2.9189,-2.8705,-2.8705,-2.849,-2.8102,-2.6411,-2.4341,-2.1697,-1.957,-1.7228,-1.4954,-1.4603,-1.4461,-1.4477,-1.4586,-1.4689,-1.4787,-1.4841,-1.457,-1.3941,-1.3387,-1.2807,-1.2105,-1.1524,-1.129,-1.129,-1.129,-1.129,-1.129,-1.129,-1.129,-1.129,-1.129,-1.129,-1.129,-1.129,-1.129,-1.129,-1.129,-1.129,-1.129,-1.129,-1.2807,-1.4549,-1.5947,-1.7123,-1.837,-2.0032,-1.9546,-1.9128,-1.9379,-1.9217,-1.9081,-1.904,-1.864,-1.8389,-1.8477,-1.8111,-1.7914,-1.8023,-1.8077,-1.8199,-1.8423,-1.8464,-1.8599,-1.8864,-1.8796,-1.8762,-1.8762,-1.8762,-1.8762,-1.8762,-1.8762,-1.8762,-1.8762,-1.8762,-1.8762,-1.8762,-1.8762,-1.8762,-1.84,-1.3956,-1.1845,-1.0911,-0.6352,-0.4357,-0.3772,-0.3772,-0.3772,-0.3772,-3.3268,-3.334,-3.334,-3.334,-3.3376,-3.3376,-3.3376,-3.3376,-3.3376,-3.3376,-3.3376,-3.3152,-3.2591,-3.1928,-3.1364,-3.0811,-3.0111,-2.9771,-2.9771,-2.9771,-2.9771,-2.9771,-2.9771,-2.9652,-2.9416,-2.9416,-2.9189,-2.8705,-2.8705,-2.8576,-2.8339,-2.8242,-2.6914,-2.4462,-2.2101,-1.969,-1.7372,-1.5202,-1.4336,-1.4347,-1.4461,-1.4515,-1.4559,-1.4771,-1.4517,-1.3839,-1.3363,-1.2807,-1.2105,-1.1524,-1.129,-1.129,-1.129,-1.129,-1.129,-1.129,-1.129,-1.129,-1.129,-1.129,-1.129,-1.129,-1.129,-1.129,-1.129,-1.129,-1.129,-1.129,-1.2807,-1.4666,-1.6541,-1.7343,-1.8594,-2.0962,-2.0204,-1.9379,-1.9963,-1.9657,-1.9345,-1.9203,-1.8796,-1.8464,-1.8355,-1.8057,-1.786,-1.788,-1.8002,-1.8111,-1.8124,-1.8247,-1.8409,-1.8565,-1.8694,-1.8762,-1.8762,-1.8762,-1.8762,-1.8762,-1.8762,-1.8762,-1.8762,-1.8762,-1.8762,-1.8762,-1.8762,-1.8762,-1.8639,-1.5825,-1.3377,-1.1032,-0.8342,-0.5768,-0.3772,-0.3772,-0.3772,-0.3772,-3.334,-3.3376,-3.3376,-3.3376,-3.3376,-3.3376,-3.3376,-3.3376,-3.3376,-3.3376,-3.3376,-3.3028,-3.204,-3.1702,-3.124,-3.0224,-2.9895,-2.9771,-2.9771,-2.9771,-2.9771,-2.9771,-2.9771,-2.9599,-2.9222,-2.9222,-2.8963,-2.849,-2.849,-2.8447,-2.836,-2.836,-2.7151,-2.4726,-2.2328,-2.0027,-1.7599,-1.5313,-1.432,-1.432,-1.4379,-1.4434,-1.4515,-1.4154,-1.4223,-1.4176,-1.2953,-1.2511,-1.2511,-1.1469,-1.1118,-1.1118,-1.1118,-1.1118,-1.1118,-1.1118,-1.1118,-1.1118,-1.1118,-1.1204,-1.129,-1.129,-1.129,-1.129,-1.129,-1.2227,-1.3046,-1.3046,-1.5487,-1.7807,-1.8503,-1.9083,-1.9935,-2.1101,-2.0112,-1.9345,-1.9766,-1.961,-1.9379,-1.9217,-1.8816,-1.8511,-1.8464,-1.8179,-1.8036,-1.8145,-1.8111,-1.8124,-1.8233,-1.8287,-1.8335,-1.8389,-1.8464,-1.8565,-1.8762,-1.8762,-1.8762,-1.8762,-1.8762,-1.8762,-1.8762,-1.8762,-1.8762,-1.8762,-1.8762,-1.8762,-1.8523,-1.4427,-1.22,-1.0911,-0.6824,-0.4594,-0.3772,-0.3772,-0.3772,-0.3772,-3.3376,-3.3376,-3.3376,-3.3376,-3.3376,-3.3376,-3.3376,-3.3376,-3.3376,-3.3376,-3.3376,-3.304,-3.2265,-3.1804,-3.124,-3.0439,-2.9987,-2.9771,-2.9771,-2.9771,-2.9771,-2.9771,-2.9771,-2.9534,-2.9082,-2.9082,-2.8845,-2.836,-2.836,-2.836,-2.836,-2.836,-2.7475,-2.5821,-2.2656,-2.0357,-1.87,-1.5634,-1.432,-1.432,-1.432,-1.4347,-1.4279,-1.3975,-1.4017,-1.4059,-1.2668,-1.2346,-1.2355,-1.1363,-1.1024,-1.1024,-1.1024,-1.1024,-1.1024,-1.1024,-1.1024,-1.1024,-1.1024,-1.111,-1.1216,-1.1245,-1.1245,-1.1257,-1.1278,-1.2807,-1.4088,-1.4088,-1.7104,-1.9669,-1.9669,-2.024,-2.0721,-2.1049,-2.0006,-1.9237,-1.9535,-1.9447,-1.9305,-1.9149,-1.8776,-1.8511,-1.8464,-1.8199,-1.8057,-1.8165,-1.8124,-1.8145,-1.8247,-1.8301,-1.8301,-1.8247,-1.8301,-1.8443,-1.8694,-1.8694,-1.8708,-1.8762,-1.8762,-1.8762,-1.8762,-1.8762,-1.8762,-1.8762,-1.8762,-1.8762,-1.84,-1.3377,-1.1269,-1.0805,-0.5768,-0.3772,-0.3772,-0.3772,-0.3772,-0.3772,-3.3376,-3.3376,-3.3376,-3.3376,-3.3376,-3.3376,-3.3376,-3.3376,-3.3376,-3.3376,-3.3376,-3.3376,-3.3376,-3.2265,-3.1578,-3.1578,-3.045,-2.9771,-2.9771,-2.9771,-2.9771,-2.9771,-2.9771,-2.9534,-2.9082,-2.9082,-2.8845,-2.836,-2.836,-2.836,-2.836,-2.836,-2.836,-2.8145,-2.342,-2.1343,-2.1015,-1.6305,-1.432,-1.432,-1.432,-1.4249,-1.4151,-1.4276,-1.3912,-1.3282,-1.2839,-1.2353,-1.1689,-1.1224,-1.1024,-1.1024,-1.1024,-1.1024,-1.1024,-1.1024,-1.1024,-1.1024,-1.1024,-1.1024,-1.1045,-1.1143,-1.1163,-1.1184,-1.1265,-1.2807,-1.4088,-1.4088,-1.7104,-1.9669,-1.9669,-2.024,-2.0721,-2.1049,-1.9914,-1.9094,-1.9379,-1.9291,-1.9149,-1.9006,-1.8708,-1.8477,-1.8335,-1.8036,-1.786,-1.786,-1.8002,-1.8091,-1.8091,-1.8233,-1.8247,-1.8091,-1.8233,-1.8389,-1.8531,-1.8531,-1.8599,-1.8762,-1.8762,-1.8762,-1.8762,-1.8762,-1.8762,-1.8762,-1.8762,-1.8762,-1.84,-1.3377,-1.1265,-1.0805,-0.5768,-0.3772,-0.3772,-0.3772,-0.3772,-0.3772,-3.3376,-3.3376,-3.3376,-3.3376,-3.3376,-3.3376,-3.3376,-3.3376,-3.3376,-3.3376,-3.3028,-3.2603,-3.2141,-3.1488,-3.0778,-3.0326,-2.9987,-2.9771,-2.9771,-2.9771,-2.9771,-2.9771,-2.9771,-2.962,-2.9329,-2.9157,-2.8931,-2.8597,-2.8447,-2.836,-2.836,-2.836,-2.836,-2.8253,-2.517,-2.2857,-2.1108,-1.8053,-1.5862,-1.4309,-1.4222,-1.4167,-1.4025,-1.3648,-1.333,-1.3157,-1.2228,-1.1746,-1.1575,-1.1053,-1.0837,-1.0837,-1.0837,-1.0837,-1.0837,-1.0837,-1.0837,-1.0837,-1.0837,-1.0837,-1.089,-1.111,-1.111,-1.109,-1.1184,-1.3563,-1.5825,-1.5912,-1.8924,-2.15,-2.1625,-2.1064,-2.0683,-2.0892,-1.9836,-1.9027,-1.9115,-1.9081,-1.8952,-1.8687,-1.8498,-1.8321,-1.8179,-1.8077,-1.8023,-1.8023,-1.8158,-1.8158,-1.7948,-1.8179,-1.8247,-1.8091,-1.8233,-1.8389,-1.8531,-1.8531,-1.8599,-1.8762,-1.8762,-1.8762,-1.8762,-1.8762,-1.8762,-1.8762,-1.8762,-1.782,-1.5831,-1.2677,-1.0213,-0.8342,-0.5064,-0.3772,-0.3772,-0.3772,-0.3772,-0.3772,-3.3376,-3.3376,-3.3376,-3.3376,-3.3376,-3.3376,-3.3376,-3.3376,-3.3376,-3.3376,-3.304,-3.2603,-3.204,-3.1376,-3.0789,-3.0224,-2.9895,-2.9771,-2.9771,-2.9771,-2.9771,-2.9771,-2.9771,-2.962,-2.9276,-2.9136,-2.891,-2.8565,-2.8425,-2.836,-2.836,-2.836,-2.836,-2.8253,-2.593,-2.352,-2.1116,-1.8811,-1.6372,-1.4238,-1.4167,-1.408,-1.3993,-1.3485,-1.3068,-1.259,-1.1969,-1.1506,-1.115,-1.0854,-1.0751,-1.0751,-1.0751,-1.0751,-1.0751,-1.0751,-1.0751,-1.0751,-1.0751,-1.0751,-1.0804,-1.1004,-1.1016,-1.0992,-1.109,-1.3911,-1.6487,-1.6584,-1.9562,-2.2123,-2.2237,-2.15,-2.0787,-2.0721,-1.9892,-1.9172,-1.9001,-1.8796,-1.8654,-1.8477,-1.8321,-1.8199,-1.8111,-1.8036,-1.8002,-1.8002,-1.8199,-1.8179,-1.788,-1.8158,-1.8213,-1.8002,-1.8145,-1.8301,-1.8443,-1.8498,-1.8599,-1.8762,-1.8708,-1.8708,-1.8762,-1.8762,-1.8762,-1.8762,-1.8762,-1.7361,-1.4772,-1.2322,-0.9751,-0.7289,-0.4711,-0.3772,-0.3772,-0.3772,-0.3772,-0.3772,-3.3376,-3.3376,-3.3376,-3.3376,-3.3376,-3.3376,-3.3376,-3.3376,-3.3376,-3.3376,-3.3364,-3.304,-3.2479,-3.1916,-3.1251,-3.0687,-3.01,-2.9771,-2.9771,-2.9771,-2.9771,-2.9771,-2.9771,-2.9534,-2.9082,-2.9082,-2.8845,-2.8393,-2.8371,-2.836,-2.836,-2.836,-2.836,-2.8253,-2.6156,-2.3738,-2.1116,-1.9023,-1.653,-1.414,-1.4108,-1.3977,-1.3787,-1.3787,-1.3042,-1.2096,-1.2201,-1.154,-1.0747,-1.0722,-1.0751,-1.0751,-1.0751,-1.0751,-1.0751,-1.0751,-1.0751,-1.0751,-1.0751,-1.0751,-1.0775,-1.0857,-1.0877,-1.0898,-1.0992,-1.3844,-1.6444,-1.6456,-1.9417,-2.1912,-2.1936,-2.1613,-2.1087,-2.0765,-1.9971,-1.9362,-1.8912,-1.8464,-1.8301,-1.8287,-1.8158,-1.8077,-1.8077,-1.7948,-1.786,-1.786,-1.8145,-1.8179,-1.788,-1.8165,-1.8199,-1.7901,-1.8036,-1.8179,-1.8321,-1.8423,-1.8586,-1.8742,-1.8599,-1.8599,-1.8742,-1.8742,-1.8742,-1.8762,-1.8762,-1.7239,-1.4549,-1.2205,-0.9634,-0.6941,-0.4711,-0.3772,-0.3772,-0.3772,-0.3772,-0.3772,-3.3376,-3.3376,-3.3376,-3.3376,-3.3376,-3.3376,-3.3376,-3.3376,-3.3376,-3.3376,-3.3028,-3.2479,-3.1916,-3.124,-3.0687,-3.01,-2.9884,-2.9771,-2.9771,-2.9771,-2.9771,-2.9771,-2.9771,-2.9534,-2.9082,-2.9082,-2.8931,-2.863,-2.8447,-2.836,-2.836,-2.836,-2.836,-2.836,-2.781,-2.5279,-2.1226,-2.0754,-1.7963,-1.4124,-1.3939,-1.383,-1.3787,-1.3787,-1.3411,-1.2851,-1.2525,-1.1965,-1.1283,-1.0966,-1.0751,-1.0751,-1.0751,-1.0751,-1.0751,-1.0751,-1.0751,-1.0751,-1.0751,-1.0751,-1.0751,-1.0775,-1.0784,-1.0804,-1.0898,-1.3659,-1.6187,-1.6297,-1.9245,-2.1766,-2.1912,-2.1389,-2.1074,-2.0902,-1.9965,-1.9234,-1.9029,-1.8509,-1.8091,-1.7968,-1.7935,-1.7914,-1.7914,-1.788,-1.786,-1.786,-1.8145,-1.8179,-1.788,-1.8267,-1.8355,-1.8057,-1.8199,-1.8287,-1.8321,-1.8233,-1.8321,-1.8586,-1.8552,-1.8552,-1.8586,-1.8586,-1.8654,-1.8762,-1.8762,-1.6302,-1.2083,-1.1503,-0.8696,-0.4594,-0.4008,-0.3772,-0.3772,-0.3772,-0.3772,-0.3772,-3.3376,-3.3376,-3.3376,-3.3376,-3.3376,-3.3376,-3.3376,-3.3376,-3.3376,-3.3376,-3.3152,-3.2603,-3.1702,-3.1364,-3.0778,-2.9884,-2.9771,-2.9771,-2.9771,-2.9771,-2.9771,-2.9771,-2.9771,-2.9534,-2.9082,-2.9082,-2.891,-2.8543,-2.8425,-2.836,-2.836,-2.836,-2.836,-2.836,-2.836,-2.6323,-2.2726,-2.1649,-1.9036,-1.5464,-1.426,-1.3754,-1.3705,-1.3765,-1.3535,-1.299,-1.2563,-1.1891,-1.1201,-1.0867,-1.0751,-1.0751,-1.0751,-1.0751,-1.0751,-1.0751,-1.0751,-1.0751,-1.0751,-1.0751,-1.0751,-1.0751,-1.0751,-1.0763,-1.0816,-1.3567,-1.6089,-1.6157,-1.9079,-2.1555,-2.166,-2.151,-2.1246,-2.0895,-2.0334,-1.9751,-1.9111,-1.8691,-1.8295,-1.7991,-1.786,-1.786,-1.786,-1.786,-1.786,-1.786,-1.8077,-1.8111,-1.788,-1.8158,-1.8213,-1.7989,-1.8124,-1.8213,-1.8213,-1.8199,-1.8247,-1.8321,-1.8321,-1.8389,-1.8531,-1.8531,-1.862,-1.8762,-1.7465,-1.4772,-1.1265,-0.9978,-0.7289,-0.3772,-0.3772,-0.3772,-0.3772,-0.3772,-0.3772,-0.3772,-3.3376,-3.3376,-3.3376,-3.3376,-3.3376,-3.3376,-3.3376,-3.3376,-3.3376,-3.3376,-3.3376,-3.294,-3.1702,-3.1376,-3.0902,-2.9884,-2.9771,-2.9771,-2.9771,-2.9771,-2.9771,-2.9771,-2.9771,-2.9566,-2.9136,-2.9103,-2.8845,-2.836,-2.836,-2.836,-2.836,-2.836,-2.836,-2.836,-2.836,-2.6909,-2.4318,-2.2113,-1.9555,-1.6849,-1.4714,-1.3694,-1.3618,-1.376,-1.3551,-1.3212,-1.2578,-1.1688,-1.0751,-1.0751,-1.0751,-1.0751,-1.0751,-1.0751,-1.0751,-1.0751,-1.0751,-1.0751,-1.0751,-1.0751,-1.0751,-1.0751,-1.0751,-1.0751,-1.0751,-1.3531,-1.6077,-1.6077,-1.8949,-2.1384,-2.1384,-2.1514,-2.15,-2.0938,-2.0731,-2.0382,-1.9388,-1.9057,-1.864,-1.8088,-1.7977,-1.786,-1.786,-1.786,-1.786,-1.786,-1.8002,-1.8023,-1.786,-1.8002,-1.8023,-1.786,-1.7989,-1.8057,-1.8057,-1.8179,-1.8179,-1.8057,-1.8057,-1.7981,-1.7811,-1.8262,-1.8126,-1.7465,-1.5709,-1.3372,-1.045,-0.8342,-0.6003,-0.3772,-0.3772,-0.3772,-0.3772,-0.3772,-0.3772,-0.3772,-3.3376,-3.3376,-3.3376,-3.3376,-3.3376,-3.3376,-3.3376,-3.3376,-3.3376,-3.3376,-3.3376,-3.294,-3.1702,-3.0687,-3.0008,-2.9771,-2.9771,-2.9771,-2.9771,-2.9771,-2.9771,-2.9771,-2.9771,-2.9652,-2.9394,-2.9189,-2.8845,-2.836,-2.836,-2.836,-2.836,-2.836,-2.836,-2.836,-2.836,-2.6909,-2.4308,-2.1976,-1.9555,-1.6949,-1.451,-1.3618,-1.3629,-1.3852,-1.3944,-1.3765,-1.2776,-1.1746,-1.0751,-1.0751,-1.0751,-1.0751,-1.0751,-1.0751,-1.0751,-1.0751,-1.0751,-1.0751,-1.0751,-1.0751,-1.0751,-1.0751,-1.0751,-1.0751,-1.0751,-1.3531,-1.6077,-1.6077,-1.8949,-2.1384,-2.1384,-2.1408,-2.1425,-2.1315,-2.0875,-2.0434,-2.0316,-1.986,-1.9309,-1.864,-1.8205,-1.786,-1.786,-1.786,-1.786,-1.786,-1.8002,-1.8023,-1.786,-1.8002,-1.8023,-1.786,-1.788,-1.7901,-1.7901,-1.7914,-1.7914,-1.7901,-1.7901,-1.6926,-1.5253,-1.7319,-1.6078,-1.2438,-1.4194,-1.2322,-0.799,-0.7641,-0.6003,-0.3772,-0.3772,-0.3772,-0.3772,-0.3772,-0.3772,-0.3772,-3.3376,-3.3376,-3.3376,-3.3376,-3.3376,-3.3376,-3.3376,-3.3376,-3.3376,-3.3376,-3.3152,-3.2591,-3.1702,-3.0563,-2.9771,-2.9771,-2.9771,-2.9771,-2.9771,-2.9771,-2.9771,-2.9771,-2.9771,-2.9652,-2.9416,-2.9189,-2.891,-2.8554,-2.8425,-2.836,-2.836,-2.836,-2.836,-2.836,-2.822,-2.7493,-2.617,-2.3713,-2.1188,-1.8716,-1.6341,-1.4651,-1.3624,-1.3798,-1.3648,-1.3243,-1.2267,-1.1488,-1.0751,-1.0751,-1.0751,-1.0743,-1.069,-1.0677,-1.0669,-1.0616,-1.0604,-1.0604,-1.0604,-1.0604,-1.0616,-1.0669,-1.0677,-1.069,-1.0743,-1.3531,-1.6077,-1.6077,-1.8949,-2.1384,-2.1384,-2.1384,-2.1384,-2.1384,-2.1156,-2.0945,-2.0513,-2.0301,-1.9845,-1.9309,-1.8757,-1.8302,-1.8302,-1.8088,-1.786,-1.786,-1.7935,-1.7935,-1.786,-1.7935,-1.7935,-1.786,-1.786,-1.786,-1.786,-1.786,-1.786,-1.786,-1.6533,-1.5389,-1.4559,-1.5776,-1.4406,-1.1196,-1.0891,-0.9514,-0.7406,-0.6003,-0.4829,-0.3772,-0.3772,-0.3772,-0.3772,-0.3772,-0.3772,-0.3772]}]]